GFSSGP_250_spd_000.txt.gz
Wind_Speed
87 87 89 91 90 90 92 91 98 96 98 100 100 98 106 111 116 121 122 122 128 130 131 131 131 129 121 114 115 108 106 97 98 96 94 95 90 86 84 83 77 75 70 66 57 54 62 64 60
86 88 93 93 92 90 94 98 104 107 104 102 104 110 110 118 127 132 132 134 133 136 130 130 128 118 111 105 102 107 101 94 88 90 81 77 78 79 77 76 71 63 58 59 54 57 64 61 58
92 91 91 95 98 100 101 105 102 102 101 108 112 116 122 127 127 129 133 137 133 131 125 121 110 103 102 103 96 97 94 93 88 84 79 75 65 67 65 63 62 51 52 51 54 55 57 58 53
100 99 97 94 98 106 107 106 109 120 116 115 119 121 125 131 134 135 139 131 128 121 112 105 101 99 101 97 94 91 86 78 76 77 72 66 59 56 54 50 45 43 51 50 55 54 53 55 50
104 105 103 97 103 106 111 115 120 123 127 129 128 129 129 129 131 127 121 115 111 108 101 100 95 87 82 78 75 74 72 70 66 59 55 52 48 50 48 46 47 45 49 51 56 52 56 63 52
101 98 101 109 115 118 119 119 122 127 127 132 124 119 120 115 112 111 108 103 93 86 79 70 70 70 67 63 64 63 59 56 50 49 48 43 40 42 42 42 45 47 50 54 57 55 59 62 56
106 108 106 110 118 124 124 123 118 123 125 119 113 117 109 97 93 89 78 68 64 60 54 49 51 52 46 44 44 38 33 32 32 32 32 33 36 38 40 41 47 51 53 58 62 56 61 68 62
110 113 118 116 116 116 116 112 119 118 115 106 96 95 87 76 64 55 46 40 39 37 36 36 37 32 27 30 27 26 26 26 25 25 24 23 25 29 33 36 44 50 56 60 57 59 61 65 67
113 114 115 112 113 108 108 110 110 103 89 83 69 60 49 39 35 31 26 22 18 21 26 23 19 21 20 20 20 20 22 21 21 23 23 24 25 28 29 34 38 44 51 60 66 64 60 71 66
107 109 110 108 101 108 107 102 80 63 53 48 35 32 23 15 10 10 7 13 14 14 19 26 27 25 22 20 21 22 21 21 21 23 24 24 26 27 31 33 37 42 50 50 62 61 69 71 70
108 112 112 103 94 79 63 51 44 28 20 9 5 5 4 4 20 17 23 22 24 25 29 36 33 34 36 34 32 31 32 33 27 30 30 26 25 26 28 32 36 40 46 52 55 59 65 69 69
87 76 55 47 47 37 32 23 9 5 7 12 18 29 34 31 31 33 34 32 30 30 29 29 30 28 28 29 26 23 22 22 21 24 25 24 28 28 33 30 30 36 44 51 56 61 68 72 75
37 22 21 19 15 12 5 7 14 21 27 28 29 28 29 31 30 27 26 24 25 25 25 25 25 25 24 24 23 20 20 19 16 16 20 19 16 21 25 27 29 34 35 39 47 56 64 68 72
12 9 7 3 1 6 17 24 25 27 28 27 26 26 25 25 24 25 25 24 23 22 24 26 25 25 24 23 24 24 23 22 20 21 19 22 24 23 29 30 27 26 27 32 37 45 56 63 73
4 9 10 8 15 18 22 20 22 20 22 21 23 21 22 23 24 24 25 25 26 25 26 27 26 28 28 28 27 24 24 25 27 28 28 30 30 30 35 39 40 37 34 35 37 44 52 57 62
9 12 16 19 19 19 16 14 15 17 16 18 17 18 19 20 21 23 25 24 25 26 26 26 24 26 29 30 32 35 35 35 34 34 35 37 38 37 38 38 40 42 46 49 48 49 45 52 59
6 10 13 12 12 11 9 9 9 9 9 10 11 13 15 16 17 18 20 21 23 25 26 27 28 29 30 33 35 36 38 41 38 41 42 43 43 43 41 44 46 49 50 51 53 59 56 54 52
7 6 9 9 8 4 1 1 1 1 2 5 9 12 12 12 16 20 23 27 27 27 29 30 31 32 34 35 38 41 45 48 49 46 47 49 50 51 49 50 51 53 57 59 61 64 65 64 62
7 11 12 11 8 7 7 7 6 7 5 9 12 12 11 13 20 22 25 29 30 30 32 32 36 38 39 40 43 46 49 51 50 47 46 47 50 54 54 53 54 58 63 66 68 72 74 74 70
11 10 10 10 11 13 10 12 12 12 10 14 13 12 17 22 26 27 30 32 34 35 39 39 39 42 42 44 46 49 51 53 54 55 55 56 59 59 60 61 62 66 71 72 77 82 83 82 83
12 13 13 15 15 14 18 16 19 23 23 20 26 23 26 30 31 35 39 40 44 43 44 45 46 46 46 50 52 54 56 61 64 65 65 65 65 68 71 70 74 75 75 80 82 87 91 91 88
13 15 20 21 22 21 24 25 18 15 19 22 24 28 36 37 37 40 44 49 51 51 52 53 53 57 58 62 65 63 64 68 71 68 68 70 72 73 76 77 78 80 81 83 87 92 94 95 95
20 21 21 22 25 25 24 28 25 20 26 23 23 30 37 37 39 39 47 51 53 54 58 60 63 66 66 68 71 72 72 75 76 77 78 79 80 83 86 87 88 88 92 94 94 99 101 101 98
20 19 20 21 25 29 29 31 29 27 23 24 33 36 35 38 43 46 51 54 55 58 63 67 69 67 70 70 71 76 78 77 79 81 83 84 87 90 94 98 101 99 101 101 104 105 104 104 92
19 22 24 23 26 28 28 34 33 36 35 35 36 38 39 46 51 53 56 57 61 65 68 69 71 71 72 74 78 80 83 86 88 90 92 96 97 96 100 103 105 107 109 110 112 111 110 97 88
20 23 26 26 25 31 37 42 44 44 45 46 46 47 48 53 57 57 60 63 67 69 72 75 74 76 78 81 85 87 91 96 99 102 104 106 108 108 108 111 114 117 120 121 116 113 99 91 86
24 26 26 28 28 29 37 47 49 52 49 48 50 51 55 60 64 67 70 72 74 76 76 79 82 85 89 90 91 95 99 103 107 108 110 113 115 118 119 122 125 122 120 113 107 98 93 88 85
32 34 31 30 29 31 37 52 55 50 48 50 52 55 60 64 68 71 73 74 77 80 82 86 90 91 93 95 98 101 105 109 114 118 121 123 124 124 123 122 118 118 112 106 98 93 88 83 79
37 38 37 40 44 47 44 45 48 48 50 52 56 61 65 69 70 73 77 80 82 84 87 91 96 100 103 105 108 111 116 121 124 127 126 124 120 115 115 114 113 109 104 100 95 87 82 78 74
48 48 43 40 38 40 36 41 50 52 53 56 61 64 68 71 75 78 84 87 89 92 96 101 104 106 110 113 117 121 125 127 129 126 126 123 116 110 108 105 100 98 93 88 84 80 77 72 70

GFSSGP_250_spd_003.txt.gz
Wind_Speed
76 79 78 80 77 78 80 84 84 90 91 98 99 99 103 106 108 112 114 113 122 129 126 127 129 129 126 122 121 119 117 112 110 109 104 102 99 97 92 90 85 81 76 72 69 65 56 53 50
86 86 81 83 84 90 88 87 90 95 100 100 106 102 104 108 112 120 125 123 131 131 131 130 126 124 120 118 118 115 111 110 104 104 101 99 98 91 90 81 70 67 67 65 54 52 48 45 47
93 96 95 88 88 94 97 98 95 97 103 107 107 112 118 117 125 127 129 133 134 130 126 122 113 116 115 115 109 100 101 92 91 89 82 77 72 71 72 71 70 67 58 54 48 44 47 47 49
94 88 90 99 96 100 103 104 104 104 106 112 118 119 122 124 128 131 127 126 125 122 117 109 104 103 96 89 84 78 74 73 63 67 63 63 66 68 64 64 57 57 50 47 43 47 50 54 54
92 95 99 103 105 100 105 108 111 114 116 111 111 118 122 129 127 127 122 119 115 115 109 104 93 80 70 68 67 63 58 59 60 58 58 54 52 53 54 54 50 47 45 46 44 47 56 57 59
98 99 100 100 102 100 105 108 111 110 117 118 120 119 122 122 127 121 113 110 107 94 78 64 62 59 55 54 50 51 52 50 48 44 42 41 43 43 42 45 46 47 45 46 46 51 57 59 57
102 102 104 111 109 108 107 115 122 124 118 125 129 120 119 112 107 103 94 68 56 51 49 44 42 39 36 36 37 36 36 32 29 30 30 29 30 29 29 32 38 44 47 49 50 52 59 59 56
109 110 111 113 119 118 121 125 126 127 129 130 123 116 101 91 81 65 53 47 39 32 26 22 20 21 16 14 15 14 15 17 17 17 18 20 21 23 25 26 28 32 41 46 49 51 58 61 59
106 110 115 116 113 116 125 130 126 126 116 109 96 86 68 50 49 47 37 29 16 10 7 8 9 11 11 9 8 10 15 17 15 16 15 13 15 18 22 23 26 29 33 35 41 54 59 62 59
114 115 116 122 115 118 115 107 104 97 92 85 69 47 36 24 22 16 6 2 9 9 13 14 15 16 18 19 17 16 20 23 24 23 26 24 24 22 18 19 21 28 32 36 39 44 51 63 65
104 105 101 106 102 97 92 87 64 64 58 47 25 13 9 5 7 3 9 15 17 17 20 21 22 22 23 23 23 21 21 21 20 19 21 20 21 20 20 20 21 18 19 30 39 44 47 53 59
96 86 90 88 78 60 58 40 32 34 28 17 12 5 12 15 15 15 14 14 19 20 21 21 22 23 24 25 24 22 20 17 15 16 17 14 16 17 15 18 18 19 20 20 19 26 39 47 52
77 71 66 55 34 34 29 23 13 13 5 10 14 17 15 15 18 16 15 16 14 16 19 20 21 21 22 23 25 25 23 22 23 22 17 18 18 18 20 23 25 25 25 21 18 18 22 28 36
35 32 25 19 17 13 7 8 8 12 14 14 12 9 13 14 15 18 19 20 20 19 19 20 21 20 23 26 27 28 27 27 27 28 27 26 25 25 26 27 27 27 25 23 26 27 21 17 21
21 16 11 7 8 10 13 15 13 11 9 6 5 7 8 9 10 12 16 19 21 21 20 20 22 24 24 27 27 27 29 31 35 36 35 33 31 32 35 36 34 34 34 33 34 33 30 33 35
8 4 8 11 15 14 11 10 9 5 4 1 2 3 6 8 10 11 15 19 24 27 26 24 24 23 25 27 30 32 32 32 33 38 37 35 35 34 36 37 39 41 43 43 42 41 43 43 43
9 12 16 17 18 12 9 8 7 10 7 8 8 8 10 11 13 16 18 19 24 27 29 31 32 33 33 35 35 35 38 40 40 40 42 42 43 43 44 46 48 48 49 50 51 52 53 55 54
11 14 18 16 16 12 12 12 13 14 15 15 15 19 22 22 26 31 32 29 34 34 33 35 37 38 39 39 42 45 46 46 50 50 49 50 53 54 54 52 52 52 54 56 58 60 62 64 64
11 13 13 15 15 15 16 18 18 18 21 18 19 22 23 25 30 36 37 33 35 38 38 40 40 39 41 45 48 52 55 56 57 57 53 53 56 58 58 59 61 61 61 62 65 68 68 68 68
10 13 14 13 15 18 20 21 20 21 26 24 28 28 27 27 32 38 43 41 40 42 43 46 47 46 46 48 52 57 60 60 61 62 60 60 62 64 65 67 68 68 68 70 73 76 78 78 78
15 18 20 21 19 23 23 25 22 27 31 33 33 34 36 37 34 43 43 46 49 51 52 53 55 56 59 59 60 61 62 62 65 67 69 70 71 72 72 75 76 77 79 81 82 83 87 90 89
20 21 23 25 28 29 29 29 28 32 33 31 33 34 37 41 44 50 48 49 52 57 59 61 63 65 67 66 65 66 67 68 69 72 75 78 81 82 85 87 88 89 91 91 90 90 91 93 96
22 22 26 28 28 29 31 32 32 34 36 35 35 37 38 45 51 50 51 53 55 57 59 62 65 68 68 69 68 70 72 76 78 80 83 85 88 91 93 97 99 100 102 102 101 103 103 104 105
24 24 24 23 23 25 29 31 30 31 33 36 39 42 43 48 49 51 52 52 56 60 63 65 67 67 69 72 75 78 80 82 86 90 93 96 98 101 102 103 104 108 109 111 109 107 104 102 101
23 23 22 24 28 29 30 30 31 33 35 37 42 44 45 48 50 51 54 57 60 63 65 66 68 72 76 79 83 86 90 95 98 102 104 107 108 109 111 113 114 113 112 109 104 100 99 95 94
21 22 25 26 30 34 36 39 41 36 38 44 40 39 44 49 52 55 59 61 64 68 70 73 76 81 84 85 90 94 98 103 108 112 114 116 114 114 116 112 108 105 104 101 97 95 92 90 90
22 25 27 29 32 35 44 51 51 49 48 42 39 45 50 53 56 58 62 64 68 73 76 80 84 88 91 93 96 101 103 106 111 114 116 117 116 114 109 107 105 100 94 92 90 87 87 85 83
29 28 31 33 37 42 46 54 54 48 42 48 50 52 55 59 62 64 67 71 78 81 83 87 91 95 98 99 102 105 108 110 116 120 121 120 115 111 105 97 93 90 88 86 85 83 81 80 77
34 36 38 43 46 47 36 39 45 48 49 54 56 59 60 62 65 70 75 80 84 86 89 92 95 95 97 104 109 112 117 117 117 119 117 117 114 107 96 90 87 87 85 84 84 82 81 80 79
37 41 44 41 38 37 36 42 47 51 54 58 60 61 65 70 74 79 82 84 85 89 92 98 101 106 109 114 116 117 119 118 120 115 111 111 104 96 91 88 87 84 83 84 84 80 77 75 73

GFSSGP_250_spd_006.txt.gz
Wind_Speed
73 75 76 75 78 78 73 76 78 84 86 86 90 92 94 100 102 108 111 113 115 118 116 118 118 121 125 127 123 117 116 114 110 106 111 106 99 95 91 86 79 74 74 74 70 69 68 66 64
80 79 79 82 76 77 81 82 85 86 94 103 102 102 99 106 109 113 116 115 118 123 125 127 128 121 120 118 116 120 111 106 107 100 93 91 82 77 72 71 67 64 64 62 56 57 55 58 55
83 83 84 77 83 82 84 89 93 97 101 104 104 104 109 113 115 115 116 121 129 133 125 130 126 121 118 114 112 106 96 88 82 83 79 73 68 64 58 61 58 58 57 59 57 56 56 56 54
85 85 86 91 89 87 87 91 96 99 106 104 106 109 114 116 122 129 126 126 139 134 127 130 116 121 112 99 86 79 75 72 64 61 58 55 54 54 55 56 56 53 53 52 49 49 48 51 49
87 91 91 89 89 91 91 95 99 103 103 106 111 115 116 122 131 133 134 129 138 130 121 117 108 86 70 65 63 56 54 52 45 44 45 46 45 44 44 43 42 41 45 46 47 46 46 46 46
96 93 93 97 97 97 97 100 101 103 110 110 113 116 125 128 135 132 127 121 125 113 97 86 69 62 56 53 49 47 40 33 34 34 33 34 36 35 34 33 33 35 37 40 41 42 43 42 46
101 103 103 101 103 103 106 107 107 108 110 118 115 119 119 129 133 124 112 109 90 78 61 55 53 49 45 41 37 29 25 24 23 25 25 24 24 27 28 28 26 26 27 29 34 38 40 42 44
103 102 102 104 105 107 111 115 120 118 116 122 127 125 121 111 114 108 92 71 57 53 43 40 32 22 20 15 12 9 10 9 9 11 13 12 13 13 17 20 22 23 24 25 26 31 39 44 46
109 115 107 103 106 107 110 111 115 122 123 118 119 107 104 98 84 65 53 44 37 20 14 8 10 9 9 8 7 8 11 12 12 13 13 13 14 13 14 16 17 17 18 22 24 27 31 38 45
110 113 106 109 112 113 111 112 118 120 112 105 93 89 71 60 51 38 33 19 13 6 8 11 12 15 16 20 18 19 20 20 20 21 20 21 22 19 17 18 17 17 14 11 13 23 29 32 35
115 108 107 108 102 104 102 97 102 101 88 79 61 59 47 41 23 15 11 10 9 9 12 15 17 17 17 18 18 17 17 16 21 23 20 21 20 19 17 19 22 23 21 18 13 11 12 18 31
97 92 90 91 85 85 87 87 75 58 53 40 33 27 20 11 5 8 9 11 11 12 17 20 20 19 22 25 23 23 22 20 23 25 28 27 26 26 25 26 27 27 26 24 22 19 16 18 18
83 98 84 81 78 70 66 48 39 34 28 20 10 7 4 6 3 4 7 11 12 14 15 18 22 24 25 26 27 27 27 27 26 28 29 32 31 30 30 30 31 30 30 29 23 22 22 18 17
81 75 69 52 57 40 33 25 19 16 16 7 8 5 3 5 7 5 5 11 14 17 18 20 22 24 25 26 26 28 29 29 28 29 29 30 31 30 30 30 32 32 33 34 33 34 33 30 26
56 51 49 27 28 20 16 12 14 11 7 5 6 8 10 12 15 15 15 19 25 26 28 28 27 28 30 31 30 30 30 31 32 34 35 36 38 38 37 37 38 39 39 40 41 40 40 40 38
26 21 25 16 13 14 14 12 10 9 7 7 9 12 15 18 18 20 18 18 24 27 26 25 26 29 32 33 34 33 33 34 37 39 42 43 42 43 43 43 42 42 43 43 42 43 44 45 46
15 12 12 13 17 17 17 14 13 11 13 16 17 19 21 21 22 23 25 28 31 34 34 35 37 39 41 42 42 44 46 47 49 49 49 48 45 45 47 48 50 51 52 54 53 53 53 53 54
11 14 15 17 23 20 16 15 16 17 19 22 25 28 28 28 32 33 34 34 38 42 44 43 43 44 47 47 49 50 53 54 53 52 52 53 54 56 57 57 59 59 61 62 63 64 65 65 63
13 15 18 20 21 24 21 19 21 24 25 27 29 34 37 37 39 40 45 45 45 48 48 47 48 50 53 54 55 56 57 60 61 60 61 60 61 62 63 65 67 67 66 68 70 72 73 74 74
16 16 16 16 20 22 23 24 24 27 28 29 31 35 38 42 42 43 44 46 47 52 55 54 53 55 55 58 59 58 58 59 62 65 68 69 69 70 71 73 75 77 79 80 82 82 83 83 84
12 13 15 18 23 24 25 29 31 31 32 34 37 40 41 42 44 50 48 49 51 54 56 60 58 61 62 60 61 62 63 66 69 72 74 76 79 80 82 84 87 91 93 95 96 97 97 96 95
16 19 20 23 23 25 28 30 31 30 32 34 34 35 36 41 46 48 54 53 53 56 58 58 61 61 62 63 64 67 71 72 74 77 80 83 87 90 93 96 97 100 103 105 105 106 104 104 101
21 23 25 26 28 30 30 28 27 26 29 31 32 35 40 43 49 56 53 54 54 56 57 58 60 63 65 70 72 73 76 79 82 87 89 91 94 98 102 107 109 108 108 107 106 107 106 102 101
22 25 29 31 31 28 25 25 27 26 27 30 35 36 41 48 52 50 49 52 54 57 61 63 66 69 74 77 81 84 88 92 94 97 100 103 104 106 109 111 111 110 109 108 107 103 100 94 94
23 24 24 23 22 25 26 28 31 33 34 38 43 47 48 49 48 49 52 55 58 60 62 66 71 76 80 84 87 90 93 95 100 103 103 105 107 108 110 111 110 106 107 106 101 97 92 85 82
25 25 24 22 23 24 26 33 38 39 39 41 42 40 40 46 50 53 55 58 61 64 68 72 77 82 84 87 90 94 98 101 102 106 110 110 111 113 112 110 108 106 102 98 96 90 84 77 73
25 25 25 27 28 32 39 45 45 42 42 39 42 44 48 53 55 58 60 62 66 71 75 80 82 85 88 90 94 98 103 107 111 113 115 113 114 117 112 110 106 99 94 91 89 84 79 75 72
26 28 30 31 32 36 43 53 47 37 42 49 51 53 53 55 59 63 66 69 73 78 83 84 85 87 92 95 99 104 110 111 114 114 115 116 113 113 112 106 98 94 88 85 83 81 77 75 73
30 31 33 34 39 41 34 48 44 48 52 54 53 55 60 63 68 72 75 79 82 83 83 84 92 97 98 104 108 113 117 119 121 120 119 117 113 112 105 99 94 90 88 84 83 80 78 75 76
35 36 37 39 39 38 37 45 49 49 49 51 54 59 64 69 73 77 78 76 77 82 87 93 98 103 109 111 116 120 125 128 128 125 124 120 114 108 101 98 94 89 86 84 83 80 77 78 79

GFSSGP_250_spd_009.txt.gz
Wind_Speed
73 74 72 73 77 75 78 76 81 83 82 83 83 84 84 87 92 97 98 102 106 111 111 115 118 125 128 131 123 127 128 122 118 115 110 98 89 90 85 83 86 81 78 81 76 69 66 64 62
80 76 76 77 80 79 76 77 78 81 85 86 90 90 89 89 93 99 102 105 108 109 111 117 119 123 129 129 126 123 119 115 106 95 90 84 75 74 68 68 67 63 61 62 59 57 56 54 53
81 78 81 83 80 79 83 84 84 86 88 93 88 90 97 97 99 103 104 109 110 114 119 126 129 127 128 128 124 110 97 83 73 73 71 68 65 60 60 55 56 54 54 54 53 52 50 48 50
83 84 82 80 82 86 86 84 87 86 90 91 93 96 96 103 105 110 116 117 116 123 128 128 126 119 120 107 90 70 64 62 60 58 53 52 51 45 44 39 38 41 41 42 44 45 44 44 49
88 89 86 85 86 87 87 91 92 93 92 93 100 104 106 111 114 119 122 125 126 127 124 123 110 101 89 76 64 57 51 49 46 42 39 38 35 34 33 32 33 33 33 33 33 34 37 37 38
90 87 86 88 87 92 93 94 96 96 100 102 107 105 110 109 113 119 120 123 123 122 106 93 84 75 62 51 48 40 35 32 32 31 29 29 27 26 25 23 24 25 25 25 24 27 29 31 33
93 91 93 91 95 97 97 99 99 102 106 106 110 106 106 111 116 120 115 112 109 106 80 67 53 48 38 33 31 28 27 22 21 22 23 22 20 18 14 13 14 17 19 20 22 22 22 25 28
97 97 96 96 97 97 102 102 108 101 105 111 108 113 115 116 107 106 96 96 78 62 49 46 37 39 30 28 25 21 19 20 20 23 22 23 20 18 17 16 15 16 16 16 16 18 19 19 20
99 100 99 102 104 105 104 107 113 114 111 109 107 104 100 102 91 89 69 57 52 44 32 26 23 22 23 24 24 23 22 23 24 25 26 26 26 28 27 24 22 23 23 21 19 19 21 20 20
99 104 104 99 106 105 108 106 107 102 91 94 91 93 92 88 73 54 42 31 26 20 17 18 21 20 21 21 20 21 20 20 21 23 24 26 25 24 25 26 26 25 25 24 21 18 20 20 21
99 101 109 105 105 108 109 106 97 94 92 86 83 76 70 53 45 36 28 17 12 12 13 14 14 15 17 19 20 21 21 21 22 21 21 23 26 26 25 25 24 25 26 24 24 22 20 19 22
95 87 91 96 99 97 94 89 84 90 75 57 56 53 38 34 25 9 9 10 11 10 9 10 16 18 21 22 24 23 23 21 19 19 21 24 26 27 28 27 26 25 26 26 26 25 23 22 24
84 91 92 85 89 75 78 86 75 65 59 44 40 25 17 10 9 12 10 8 7 10 14 21 25 26 27 29 30 30 27 27 28 28 28 29 31 34 35 34 33 32 31 31 31 30 28 26 30
86 86 84 77 68 77 73 55 48 36 32 24 17 8 10 13 15 15 14 13 14 20 26 29 28 28 30 32 33 35 36 37 36 36 38 41 42 42 41 39 38 37 37 37 35 35 35 35 35
75 73 71 57 53 41 33 30 28 21 17 11 11 12 16 15 18 20 21 22 22 21 28 32 32 33 35 35 37 40 42 43 44 45 45 47 46 46 46 45 43 41 42 42 43 43 42 42 41
41 47 30 39 22 21 21 19 16 11 13 15 15 16 19 23 27 28 28 28 27 28 29 29 31 38 39 42 44 44 46 48 47 48 49 48 47 46 47 48 48 48 49 51 52 51 51 52 52
32 24 20 20 19 17 15 14 13 15 18 19 20 24 26 29 31 33 34 34 36 35 35 40 42 44 46 50 48 46 48 49 48 47 47 47 47 50 53 54 55 56 57 58 58 59 59 60 61
16 14 15 18 17 13 14 16 18 21 22 24 26 30 33 35 36 37 39 40 40 44 46 46 48 47 47 50 50 49 50 53 54 54 55 56 58 59 61 62 63 63 63 65 66 69 72 72 72
12 14 17 19 19 17 20 23 25 24 25 26 26 28 30 34 37 41 42 43 43 46 49 47 49 51 50 52 51 54 57 58 59 60 63 65 68 70 68 68 66 67 69 70 72 73 75 77 79
10 13 17 18 19 20 22 28 29 32 32 32 32 31 32 36 38 41 43 42 44 48 47 48 50 50 52 53 56 60 62 64 65 65 67 68 69 71 73 76 80 81 83 86 88 89 90 89 90
10 14 15 17 18 16 18 22 26 29 31 28 29 32 36 39 41 43 44 43 48 49 48 49 53 55 58 60 61 62 64 65 68 69 70 71 74 78 80 82 83 88 92 94 97 99 98 98 97
17 18 18 20 20 20 22 25 30 27 25 26 28 31 37 40 41 42 47 50 51 51 52 56 58 60 61 63 66 69 71 71 72 72 74 80 83 84 87 88 89 92 95 96 98 100 101 101 98
22 21 23 23 22 24 27 29 26 26 25 25 31 38 41 42 46 50 49 47 48 53 56 58 61 62 65 69 72 74 75 76 76 82 84 86 89 92 94 96 96 96 98 103 101 99 99 102 100
22 22 23 24 25 25 21 21 24 24 26 30 37 42 45 46 42 41 44 50 52 54 56 59 65 69 72 76 79 79 79 81 85 88 91 94 97 99 100 101 104 106 109 110 105 101 101 101 100
23 24 22 22 23 20 20 22 25 29 33 37 39 41 39 39 43 46 47 49 53 58 63 68 72 74 76 76 77 79 84 91 94 98 100 101 104 106 109 111 111 115 114 113 105 102 101 100 99
24 25 23 22 21 21 23 26 31 37 39 38 38 37 43 45 46 48 50 55 59 64 67 69 70 71 76 81 86 91 95 97 102 107 110 113 116 117 119 117 116 115 111 105 99 96 97 96 94
28 27 24 23 23 27 31 33 37 40 38 38 43 45 47 46 47 52 55 60 62 66 69 69 73 77 84 89 94 101 104 108 109 113 122 125 124 123 120 116 113 108 103 98 93 90 87 88 88
26 26 26 26 26 29 37 41 38 34 36 43 46 46 46 51 55 57 60 60 68 74 75 77 79 85 92 98 101 104 107 115 122 124 130 131 127 122 118 115 109 103 98 92 87 83 82 80 81
25 26 27 29 33 34 35 49 39 39 45 47 46 48 53 57 59 61 64 69 76 78 81 83 87 92 97 101 104 114 122 128 129 130 130 127 119 115 111 106 102 98 96 94 91 86 82 80 79
21 26 30 30 27 30 31 39 42 44 43 45 50 54 57 59 61 66 71 75 79 84 88 88 93 99 100 106 114 123 129 134 137 131 122 116 113 109 102 98 97 96 96 94 89 85 81 77 75

GFSSGP_250_spd_012.txt.gz
Wind_Speed
75 75 74 72 76 73 73 76 75 75 75 81 79 80 81 86 88 86 88 90 94 97 100 103 106 108 111 117 120 126 130 127 120 119 107 100 95 85 80 78 70 65 65 67 71 71 72 74 69
83 77 76 78 82 80 83 81 83 81 83 80 83 88 86 89 92 93 94 95 96 99 105 114 113 114 117 117 118 120 115 116 108 97 88 81 73 71 67 62 59 57 55 55 55 56 56 56 59
83 81 79 82 84 84 84 86 88 89 87 85 89 90 87 93 95 96 100 101 103 105 112 112 105 108 112 114 110 107 99 94 80 72 64 60 54 50 44 42 43 44 45 46 46 46 47 50 52
83 88 85 84 86 85 83 85 87 88 89 89 92 89 91 95 98 99 103 107 109 113 120 111 107 107 104 105 96 87 76 62 52 46 40 33 30 29 30 31 31 32 33 34 35 34 35 34 35
88 85 85 87 85 86 87 86 89 89 92 92 92 92 96 100 105 106 106 103 108 109 109 104 103 98 101 97 76 54 42 32 26 25 26 27 24 24 25 25 25 27 28 29 28 27 25 27 27
87 86 88 87 87 89 90 90 88 89 92 93 92 96 99 105 105 106 111 105 97 97 94 94 96 89 71 50 37 30 24 21 24 23 24 26 27 29 30 28 23 24 24 25 25 23 21 21 21
88 90 86 92 95 94 93 92 95 96 98 100 101 102 108 111 112 115 96 91 87 87 86 76 64 51 42 24 21 20 20 22 20 21 22 24 25 27 28 27 26 25 27 27 26 24 23 24 20
89 93 88 93 94 97 96 96 96 99 100 99 101 104 109 114 109 95 91 85 85 71 63 47 30 24 16 17 20 21 20 20 21 21 21 22 23 22 24 23 23 24 25 25 25 26 23 25 24
94 99 98 93 93 91 96 95 98 98 102 102 106 109 98 97 85 83 74 74 61 48 32 17 13 11 12 16 17 18 20 21 21 21 21 21 21 21 21 23 25 26 24 24 22 22 23 23 23
103 101 102 101 98 97 99 102 100 101 99 103 105 89 83 79 76 76 63 53 34 24 16 11 12 12 14 15 18 19 20 20 20 20 20 21 23 24 25 28 31 30 28 27 26 24 24 22 23
107 104 103 103 104 105 105 100 99 95 89 83 82 76 70 71 64 49 41 29 19 16 13 10 10 13 13 15 17 20 22 23 25 27 27 26 27 32 34 34 34 34 32 31 30 30 29 26 23
107 103 103 104 106 100 103 100 95 94 79 72 70 67 54 50 32 29 22 17 15 16 14 12 14 16 19 23 25 26 29 32 33 33 33 34 36 38 38 38 37 36 36 37 35 34 32 30 30
98 96 101 102 101 97 96 86 79 72 74 75 45 43 33 27 19 19 17 17 17 18 17 14 19 21 25 29 32 34 38 39 40 40 40 40 40 40 40 39 38 37 38 38 37 37 37 37 35
84 85 90 68 69 70 70 70 60 59 53 36 31 24 20 18 18 19 19 19 20 22 25 26 29 33 37 39 41 43 43 43 43 43 42 42 43 42 41 40 42 41 39 38 38 39 42 42 42
66 70 76 73 52 47 51 49 58 31 25 23 21 15 19 20 21 21 24 24 26 28 31 33 35 36 41 43 44 44 44 44 45 44 44 45 44 47 48 48 47 49 51 51 50 50 49 48 48
44 42 59 56 35 42 35 46 29 19 18 19 18 22 23 23 26 29 31 32 30 31 34 37 40 42 44 44 44 46 46 45 46 47 46 50 51 51 50 51 53 54 56 56 55 55 57 58 58
25 28 27 27 25 24 24 23 21 19 22 21 24 25 27 30 35 37 37 34 36 37 39 38 38 42 45 46 47 45 44 46 47 49 52 53 55 55 57 58 61 62 63 63 62 63 62 62 64
19 19 18 20 20 21 19 20 21 21 23 25 26 26 30 32 34 35 36 38 39 38 37 37 40 45 44 42 42 44 47 50 53 54 55 58 60 63 66 68 69 68 69 69 70 70 68 65 65
16 16 17 18 19 18 19 22 23 26 28 31 32 35 38 37 35 36 36 38 39 36 39 40 45 44 42 45 49 51 53 54 57 60 62 64 67 69 67 65 70 74 73 73 75 78 78 77 78
17 16 15 15 16 21 25 26 28 29 33 33 32 30 31 34 35 36 38 41 41 42 45 44 42 44 48 51 52 55 58 60 64 67 68 69 68 67 67 73 76 78 80 83 87 89 90 90 90
16 12 12 15 18 21 24 24 24 26 27 31 28 29 31 32 34 39 42 45 47 43 40 44 48 50 51 54 57 61 64 65 66 66 66 68 70 73 76 78 81 82 84 85 88 93 96 97 98
19 17 17 18 19 19 22 23 25 27 29 27 27 28 29 34 40 44 47 43 40 43 46 49 49 51 56 60 61 63 63 64 66 69 71 77 81 83 86 90 93 92 95 100 102 103 103 104 101
20 21 21 21 22 23 25 27 29 28 24 25 25 28 35 41 42 42 37 44 45 47 48 48 52 56 59 61 65 67 69 70 73 77 79 83 86 88 96 100 104 106 107 111 110 108 109 107 105
21 23 24 25 26 25 26 27 25 25 26 26 28 34 41 41 39 42 45 46 47 48 51 54 59 63 66 70 72 74 78 80 83 87 88 90 93 97 102 108 111 116 119 121 117 111 108 106 102
27 25 25 26 27 27 26 26 25 28 29 31 35 41 40 39 44 47 48 49 50 53 57 60 65 69 73 78 78 81 83 87 89 94 96 98 100 106 112 116 120 124 127 125 117 109 105 104 101
26 27 27 28 28 29 30 30 29 31 33 36 39 40 40 44 48 46 48 51 56 58 60 64 68 71 74 78 82 85 88 89 96 99 103 108 111 115 118 122 125 128 129 121 112 104 98 97 94
21 24 28 28 28 28 29 30 32 34 36 38 39 41 45 50 49 50 53 56 58 59 62 68 71 76 81 84 87 92 95 100 104 106 109 113 121 123 128 131 131 127 119 113 105 98 93 90 89
17 21 24 27 25 26 33 36 37 37 34 37 41 46 48 49 51 54 58 59 61 63 69 73 78 82 86 91 96 99 103 106 110 112 118 122 129 128 135 136 132 123 112 105 99 93 93 92 91
12 13 16 21 25 27 33 42 34 32 35 40 44 47 49 52 56 59 61 64 64 70 78 83 86 91 94 98 102 106 110 114 119 123 126 131 134 135 135 129 119 108 102 100 99 96 90 85 82
19 20 19 20 23 28 31 37 38 36 40 43 45 49 53 56 60 64 66 68 73 80 85 90 93 97 102 107 109 113 117 121 126 130 136 135 135 131 121 113 106 103 101 98 93 88 83 78 74

GFSSGP_250_spd_015.txt.gz
Wind_Speed
79 77 78 79 79 75 75 74 75 73 74 74 75 78 80 84 88 88 91 94 96 97 96 99 102 104 107 109 113 115 119 121 123 112 108 108 108 106 93 83 75 76 71 68 65 64 64 65 63
81 81 80 83 81 84 78 75 77 78 78 79 80 82 85 89 92 94 95 94 96 101 102 103 105 109 114 117 120 114 108 105 101 104 104 96 83 74 64 62 54 50 46 46 45 45 45 46 49
83 83 85 82 85 88 84 85 81 80 82 82 84 85 89 91 93 94 98 99 100 102 104 106 108 112 109 108 102 102 99 98 97 92 75 67 54 47 35 33 27 24 24 28 31 33 35 38 39
86 84 88 89 89 89 86 87 87 85 87 89 86 88 89 94 97 97 98 101 102 104 104 109 114 109 104 110 93 95 90 86 78 62 51 32 29 23 16 16 17 18 21 23 23 22 23 25 26
87 86 88 86 87 92 92 91 88 88 87 90 91 93 95 97 99 100 102 101 107 109 112 111 105 96 92 95 88 84 76 60 42 29 23 19 16 18 21 24 27 27 28 28 28 28 26 22 23
88 90 93 87 88 88 90 88 91 92 92 96 92 94 97 101 104 103 107 109 112 112 105 98 94 92 84 87 68 58 39 24 24 19 19 20 20 22 24 26 28 30 31 32 33 33 30 28 30
86 90 91 89 91 87 88 92 95 97 96 97 96 96 100 104 106 106 109 103 100 96 91 92 83 79 73 58 41 21 19 17 18 18 18 20 20 22 24 26 30 32 31 31 31 31 31 31 32
89 89 92 90 91 92 92 91 93 95 96 92 95 99 104 107 109 110 104 94 86 89 78 80 68 54 37 24 20 17 18 19 20 21 22 23 22 21 21 24 29 30 29 28 28 28 28 28 28
97 98 96 95 95 96 96 95 99 96 96 95 100 95 98 97 97 89 91 87 77 75 70 57 45 27 21 20 17 18 20 22 22 24 25 25 25 25 25 28 31 31 31 30 29 26 25 27 27
95 99 97 96 93 96 96 99 97 97 94 99 105 105 102 97 90 85 78 76 69 60 49 34 27 22 21 20 21 22 23 24 27 30 31 31 30 30 32 33 34 35 33 32 30 29 28 28 28
94 93 95 99 99 99 99 99 96 101 105 103 102 100 95 85 79 74 67 69 41 29 24 24 25 22 21 21 21 23 24 26 29 31 35 36 37 37 37 35 36 36 37 35 34 32 29 28 29
89 88 87 90 92 97 96 99 104 102 101 97 95 84 81 67 66 65 40 34 26 24 22 26 29 25 28 29 30 31 32 35 38 39 40 41 40 43 42 40 40 41 39 38 36 35 35 33 32
79 83 88 91 93 90 92 91 94 95 88 86 72 63 62 57 48 39 25 25 26 24 25 30 29 31 33 38 38 38 41 43 45 42 43 43 43 44 45 44 44 44 43 41 41 41 42 42 41
74 80 79 79 79 81 81 84 83 77 64 61 59 54 52 36 28 25 26 26 28 26 29 31 33 35 38 40 41 45 45 45 44 44 45 46 46 46 47 48 47 48 48 47 48 47 48 49 49
62 63 64 68 66 68 67 81 74 66 55 52 52 39 30 24 26 24 28 28 29 31 36 37 39 39 40 41 41 44 47 47 47 46 45 47 46 48 49 50 51 53 53 54 54 55 56 56 56
49 50 51 55 54 46 49 43 47 55 49 33 31 26 25 27 27 28 29 32 35 37 36 38 39 39 40 40 40 46 45 43 42 45 48 50 51 52 54 56 56 57 58 57 58 57 57 59 60
38 37 34 36 35 36 33 33 27 30 29 27 25 27 27 29 31 33 35 36 39 39 40 39 37 37 40 42 46 46 42 45 47 48 49 51 53 55 57 59 60 60 60 61 61 61 63 66 66
20 18 18 20 21 22 25 24 25 24 24 24 27 28 30 34 36 40 41 40 36 37 37 36 38 42 46 45 43 44 47 48 49 51 53 56 58 61 62 63 62 61 60 62 64 62 62 65 68
17 17 15 15 18 21 22 21 22 25 24 26 29 30 34 35 36 36 36 35 36 40 44 44 47 43 39 44 47 48 50 52 55 59 60 62 65 64 65 66 65 68 70 70 71 73 76 76 83
15 16 15 16 17 19 21 24 26 28 29 29 30 33 35 36 33 33 33 36 42 46 48 42 41 47 48 49 50 52 56 61 64 66 67 69 71 71 72 75 75 75 77 79 78 82 84 86 90
16 16 18 19 18 21 25 26 29 32 33 32 32 33 35 32 33 32 36 41 45 43 39 46 48 50 50 52 55 58 62 65 66 67 69 70 71 73 76 79 80 83 84 85 88 91 95 96 99
19 21 22 23 21 22 26 30 32 31 32 32 32 33 33 32 32 36 41 43 42 43 49 50 52 52 54 57 60 62 64 66 67 68 72 77 79 81 85 89 91 91 94 95 96 100 102 107 108
24 25 25 25 27 27 28 32 24 33 34 34 31 32 33 35 37 42 46 45 45 50 52 52 53 56 60 63 65 66 70 73 76 77 80 83 87 91 94 97 97 100 103 105 108 110 113 116 119
28 28 29 31 33 33 31 35 26 31 30 29 32 35 36 39 43 46 48 46 50 55 55 56 58 62 65 67 67 71 77 78 82 86 90 93 97 101 105 107 110 112 115 116 118 121 125 125 128
26 30 31 32 32 32 34 36 31 34 33 32 32 35 38 41 45 48 48 51 55 55 57 61 65 67 68 68 72 79 83 87 91 94 98 101 104 107 111 115 118 121 123 126 129 129 130 131 131
20 24 29 33 34 35 36 37 35 33 34 34 36 40 43 46 47 49 51 55 55 58 61 66 69 72 73 76 79 86 90 93 97 100 104 108 113 116 119 123 127 130 133 136 136 134 134 126 121
15 17 19 26 31 34 37 37 33 36 38 40 42 44 43 46 48 53 55 57 61 62 66 70 73 76 79 82 86 92 95 98 102 106 110 116 119 123 128 134 137 139 140 134 132 127 115 106 100
12 13 16 19 23 27 32 39 32 36 36 40 39 42 44 47 52 56 60 64 67 69 72 74 76 81 85 89 92 96 102 105 109 115 119 125 128 133 138 140 138 132 130 123 118 112 105 102 100
18 19 19 19 21 23 28 37 32 33 36 40 43 45 49 54 57 58 64 68 72 74 76 79 84 88 92 95 99 104 107 113 118 122 128 132 138 140 140 134 127 120 113 110 108 105 103 99 95
21 22 23 25 29 33 34 40 40 39 38 41 45 49 53 56 57 63 67 69 71 75 80 85 88 93 98 101 105 111 116 120 127 131 134 137 139 136 128 119 113 111 109 107 105 100 96 90 85

GFSSGP_250_spd_018.txt.gz
Wind_Speed
78 73 75 77 80 80 82 80 77 76 75 75 75 77 78 78 80 81 83 86 89 92 92 95 97 99 104 105 109 112 113 115 119 120 113 98 107 112 113 99 88 76 68 63 64 62 60 58 58
78 82 75 73 74 76 80 77 81 78 80 81 80 79 76 82 82 84 85 90 91 94 96 100 106 109 108 110 112 114 121 122 117 101 95 104 104 93 82 64 53 47 39 34 29 31 32 34 34
77 79 84 84 83 86 80 76 79 82 83 85 88 87 85 87 87 89 90 91 90 99 103 104 110 110 111 115 116 119 120 100 94 99 96 87 72 55 47 28 17 15 13 14 18 18 18 19 20
78 80 81 85 84 87 87 86 83 85 87 89 86 86 88 89 94 93 97 97 100 105 106 109 111 112 116 116 110 102 97 95 93 86 75 56 45 33 25 19 12 15 17 20 22 23 22 21 22
81 80 80 81 85 88 89 84 86 86 86 89 91 88 91 93 94 94 95 100 105 106 109 109 111 113 113 108 97 97 90 85 73 57 41 35 20 14 14 15 19 23 25 28 29 29 28 25 25
85 94 83 82 81 85 86 87 88 91 91 87 90 92 95 97 97 99 100 103 108 106 106 107 102 99 102 98 85 85 76 65 37 31 21 18 20 19 19 22 25 26 30 30 31 31 30 30 30
84 86 88 85 79 85 84 86 89 89 89 90 92 95 96 100 101 100 104 106 106 106 97 99 108 96 87 82 78 64 49 38 27 19 20 22 23 24 25 28 31 32 34 34 33 30 29 28 27
83 84 76 77 69 85 91 89 88 87 89 91 92 94 97 95 93 102 103 109 106 107 109 107 95 80 79 65 57 41 30 25 21 18 19 23 26 29 31 31 33 34 34 34 32 30 29 29 29
86 81 92 90 91 89 89 87 91 90 86 88 89 91 95 100 104 105 106 104 101 95 84 81 74 63 58 48 37 32 29 27 25 25 26 28 30 32 36 33 34 35 34 32 33 32 30 28 25
86 89 87 86 91 89 92 93 93 89 90 94 95 93 100 103 102 99 96 91 87 83 73 66 64 49 41 34 32 30 29 29 28 28 31 33 38 38 38 38 36 36 36 35 35 33 30 30 27
99 91 91 93 89 92 93 92 91 93 91 90 92 95 94 93 94 95 87 79 69 63 62 50 40 34 33 33 36 35 35 35 36 39 40 43 42 42 42 41 40 41 38 35 34 34 34 32 32
91 91 94 88 90 88 86 90 90 90 89 87 88 89 88 88 87 79 69 64 60 49 41 36 32 32 36 37 37 40 41 44 48 49 47 46 46 45 46 46 45 44 42 43 43 42 40 40 40
86 91 83 91 88 85 83 86 90 87 83 83 84 84 83 76 83 71 59 52 40 36 32 32 34 38 41 41 41 43 46 47 44 45 46 49 50 50 49 49 47 47 47 46 46 45 45 45 45
79 81 86 84 85 87 87 85 88 87 84 84 81 78 77 73 62 54 47 34 32 29 30 29 35 43 46 46 47 49 49 48 46 47 48 49 49 47 47 47 47 48 49 50 52 53 53 54 53
64 68 75 80 84 83 80 77 76 76 80 77 70 65 59 51 40 34 32 28 31 31 32 32 22 50 50 51 52 49 46 46 47 50 49 46 47 49 51 51 51 52 55 56 58 59 59 57 56
52 55 57 59 61 66 74 72 71 68 54 47 48 43 42 30 30 26 29 31 34 37 39 37 41 46 52 46 43 44 46 50 50 47 47 50 52 51 54 56 57 56 57 58 58 58 58 58 59
41 44 48 51 52 52 55 50 44 46 41 37 33 28 28 25 25 27 32 35 37 40 41 41 41 43 45 46 48 48 49 48 48 52 51 52 53 56 59 59 61 62 60 59 60 62 62 65 64
34 40 41 43 44 40 38 35 32 29 26 28 26 25 26 26 24 33 33 38 39 39 39 38 44 45 49 44 46 47 50 52 53 54 54 58 58 60 61 62 63 61 62 64 64 66 68 72 71
32 31 30 29 31 30 28 26 23 23 24 24 26 26 28 25 30 34 37 36 35 35 39 43 48 48 45 47 52 52 52 51 55 58 60 64 64 66 67 66 68 68 70 72 74 76 78 80 83
22 21 22 24 25 26 25 23 24 24 24 26 27 31 32 32 33 37 37 37 37 39 44 45 48 48 51 56 55 56 55 58 62 64 65 64 65 69 71 74 76 78 80 81 83 85 86 87 90
21 22 22 24 25 26 27 27 24 26 26 27 31 35 36 35 36 40 39 39 40 43 48 49 51 51 57 57 57 60 63 66 68 69 72 71 71 78 81 84 86 87 89 90 93 97 98 96 98
20 21 23 25 27 25 28 29 24 30 31 30 33 35 38 38 42 42 42 43 45 50 53 54 55 56 62 64 64 66 68 73 74 76 75 77 81 86 89 93 95 97 99 100 101 104 107 109 108
22 23 25 26 26 27 29 34 21 28 35 35 35 38 40 41 41 41 42 46 49 52 57 58 58 61 64 66 68 69 71 73 75 78 81 84 88 93 98 99 101 105 107 108 111 114 116 118 120
25 26 27 28 29 31 34 39 31 34 33 32 37 38 39 41 42 43 45 46 50 56 58 59 64 68 69 66 71 77 77 81 84 88 90 94 97 102 105 108 112 115 115 120 122 124 126 127 130
20 25 26 29 30 34 38 42 30 37 36 29 32 38 41 42 43 46 49 53 51 53 59 64 69 72 74 75 76 77 81 85 88 93 96 99 104 109 112 114 120 125 127 129 131 133 133 133 131
10 11 15 21 26 30 38 42 34 35 41 35 34 35 39 44 48 50 52 51 54 57 60 60 68 72 75 76 80 82 85 89 94 99 104 108 113 118 123 126 129 133 135 136 134 132 127 123 115
13 13 13 13 15 20 27 29 29 34 39 40 40 42 43 45 46 48 51 55 59 63 62 66 71 75 80 81 85 90 94 98 101 109 114 117 122 128 134 138 139 136 132 132 128 123 117 112 108
16 18 19 21 23 25 27 29 26 27 29 32 39 43 46 47 48 51 54 58 60 64 67 73 79 80 83 88 92 96 99 104 109 116 123 129 133 136 137 138 137 132 127 120 118 113 111 107 104
19 21 22 23 25 26 30 39 32 36 34 35 38 42 44 49 51 53 56 60 66 69 74 79 83 85 89 93 96 102 109 116 122 127 131 133 131 133 135 129 125 120 115 111 107 104 104 101 98
20 21 23 27 30 30 34 41 40 40 41 41 44 48 49 54 54 57 63 65 68 73 79 83 84 89 95 99 106 111 120 127 131 134 132 134 133 130 124 120 119 118 116 111 106 105 100 94 88

GFSSGP_250_spd_021.txt.gz
Wind_Speed
79 82 79 79 79 80 77 79 78 73 78 79 73 76 80 78 79 78 78 80 82 83 85 89 92 94 95 98 102 106 107 108 107 109 110 110 112 99 101 97 96 86 70 50 47 45 42 41 37
82 82 82 81 81 81 77 76 74 71 80 81 79 75 81 83 86 84 81 88 88 89 94 97 96 98 98 104 108 114 113 110 113 106 104 101 99 92 90 79 68 54 37 24 21 18 19 17 14
83 76 79 82 85 87 77 72 66 72 75 75 73 70 75 80 82 80 82 89 90 93 95 96 99 99 102 111 111 114 117 116 113 105 107 89 89 81 69 48 40 29 12 12 18 23 23 22 22
77 86 83 80 80 85 80 74 74 80 82 77 78 78 81 84 84 84 85 88 91 94 97 100 103 106 110 107 112 114 113 113 115 105 83 80 70 56 40 23 18 13 13 14 22 23 20 20 19
88 81 84 76 78 82 82 86 84 85 87 81 76 85 85 86 88 90 93 93 96 94 97 101 100 102 104 107 111 111 109 98 81 79 72 58 45 32 25 22 22 21 20 22 25 30 28 25 23
89 83 86 80 81 82 80 84 87 83 88 78 79 83 88 88 89 90 94 93 93 98 100 101 104 104 105 108 105 101 83 78 72 65 54 40 32 26 23 24 26 28 30 32 32 31 28 27 27
96 89 88 85 82 81 82 82 79 76 80 81 79 81 84 87 90 90 89 91 95 96 96 97 100 104 103 98 92 80 70 61 52 43 37 30 29 27 26 28 30 30 33 34 34 31 30 28 27
95 92 88 91 81 80 85 82 80 74 75 69 67 77 82 85 88 90 90 94 94 94 96 100 100 101 99 88 70 67 54 47 40 35 35 31 32 31 31 34 36 35 36 37 36 34 32 32 30
101 92 84 80 84 84 85 84 83 89 90 77 71 85 91 92 97 95 94 93 96 97 94 94 96 90 78 71 60 53 48 40 36 34 38 39 39 38 41 42 43 43 43 41 37 36 36 35 32
85 89 85 83 77 83 81 82 81 74 78 79 83 82 87 91 90 89 90 93 94 91 94 93 83 70 65 57 50 45 40 39 40 41 42 45 46 46 50 50 50 49 47 44 41 39 37 36 35
74 85 86 93 84 88 90 83 81 78 82 81 87 90 91 92 93 91 91 91 91 93 92 79 63 54 50 44 41 40 42 42 43 46 46 49 51 51 53 52 48 48 47 45 43 41 39 40 39
83 80 82 87 88 82 93 90 83 86 90 91 89 91 93 95 90 92 90 89 87 85 71 62 46 37 34 40 42 47 47 45 48 52 52 54 54 53 52 51 47 44 43 44 45 47 46 45 44
78 75 76 79 82 82 84 87 85 88 85 85 85 86 89 90 89 87 87 87 78 68 52 41 36 37 34 47 44 38 46 48 51 54 55 54 54 52 53 51 46 45 48 50 49 49 50 51 51
75 75 78 77 78 81 86 87 90 92 89 84 81 84 84 84 75 77 78 65 62 49 33 29 33 46 37 36 38 53 59 53 51 51 50 52 56 52 49 47 49 48 48 50 52 53 53 53 51
78 80 83 81 79 82 80 81 85 86 87 86 87 86 85 74 75 69 63 54 39 31 29 26 13 46 38 37 49 51 54 49 49 51 54 55 54 50 54 52 51 53 55 55 55 55 54 53 52
66 73 77 82 80 79 84 85 84 83 83 82 81 78 78 70 66 52 45 32 32 33 30 32 34 39 41 50 50 51 52 56 53 48 49 52 56 59 56 58 58 59 59 58 58 59 58 58 55
51 56 59 60 65 65 64 62 59 56 57 59 61 58 47 51 34 32 33 30 36 36 33 32 33 35 39 47 50 53 54 52 51 56 55 54 54 56 60 63 64 65 65 64 65 65 66 64 65
43 44 42 45 46 46 46 47 45 48 47 47 47 47 39 32 33 35 37 35 39 38 36 30 30 33 42 48 53 53 51 54 60 60 60 60 60 64 67 69 69 72 71 69 71 73 73 75 76
31 31 30 34 33 36 37 36 36 40 42 43 38 37 31 30 32 33 36 38 38 36 38 39 38 41 44 49 55 56 56 59 63 63 63 62 63 66 71 72 73 72 73 76 80 82 82 84 88
29 27 26 31 31 31 34 34 36 39 34 37 34 33 31 33 34 36 37 37 39 40 41 43 45 48 51 56 59 59 62 65 68 68 65 67 68 72 74 75 76 78 80 82 85 89 92 93 97
24 26 26 29 29 30 32 29 29 36 34 33 33 32 32 32 34 38 37 38 42 43 45 48 51 54 56 58 60 61 66 69 69 72 73 76 78 79 81 84 86 87 90 92 95 96 99 102 106
23 18 22 23 27 29 33 30 28 32 33 32 31 33 34 34 37 44 43 43 42 45 50 52 53 56 61 61 61 63 66 69 72 75 77 81 84 86 90 92 93 97 100 103 106 108 110 114 114
21 20 22 24 26 29 34 33 25 29 30 30 35 35 38 39 40 41 42 45 47 51 53 56 58 60 59 60 66 68 70 74 79 82 85 87 90 95 99 100 103 106 110 116 120 123 124 124 123
16 20 23 24 26 30 33 35 29 29 28 28 35 39 43 43 42 39 39 44 49 54 58 61 63 62 62 64 66 67 72 79 85 88 90 94 98 103 106 110 111 114 120 125 127 128 129 127 123
11 13 15 15 21 25 28 33 27 27 26 27 29 35 37 38 39 40 42 45 48 52 55 58 63 67 68 71 73 75 80 85 89 92 96 100 105 109 112 116 122 127 131 133 132 131 127 125 120
6 6 8 9 13 19 21 24 28 30 28 25 27 30 35 38 40 42 45 48 50 50 52 56 59 65 71 75 79 84 89 93 96 99 105 110 114 116 121 128 133 132 133 132 128 126 123 116 110
10 11 13 15 18 21 18 21 22 26 29 30 30 31 34 40 41 43 46 49 53 56 58 60 64 70 76 81 86 92 95 100 103 107 114 119 122 125 129 137 135 130 127 125 121 117 112 109 108
12 15 17 19 23 28 29 25 29 31 32 34 34 36 39 43 44 47 49 53 56 58 61 66 70 76 81 86 90 96 100 104 106 112 118 124 127 128 135 137 132 127 122 118 112 109 107 104 100
12 15 17 17 21 25 35 33 32 33 35 38 41 41 43 45 48 52 55 56 59 63 67 72 76 81 85 90 95 100 105 109 114 120 127 131 132 133 134 126 124 120 115 110 107 103 99 94 88
15 16 22 26 26 28 31 42 39 37 38 39 40 43 45 48 52 56 57 59 61 65 70 74 79 85 90 95 99 105 112 118 122 128 135 134 133 133 128 122 118 113 110 107 103 99 95 88 82

GFSSGP_250_spd_027.txt.gz
Wind_Speed
97 96 91 84 86 86 85 86 86 81 76 77 79 79 81 80 83 82 80 82 81 81 80 81 83 83 87 84 84 85 88 92 94 97 98 101 102 100 102 106 104 103 98 88 79 74 64 53 46
96 97 94 88 88 84 82 80 82 80 78 81 81 81 84 84 82 83 81 81 81 82 81 84 85 84 84 86 86 92 93 93 96 96 103 102 102 103 102 103 102 97 85 75 65 59 49 41 37
92 98 96 90 89 88 85 79 80 79 81 81 81 81 81 83 78 80 78 80 81 80 81 84 84 86 88 91 93 92 93 97 99 99 101 101 103 102 102 101 96 83 72 60 53 46 46 41 42
90 90 94 93 84 90 85 79 79 75 75 73 78 83 80 81 78 80 81 81 78 80 83 84 88 90 89 88 91 94 97 100 99 100 97 102 100 103 102 91 73 64 57 51 47 43 46 43 39
91 87 91 95 92 79 83 81 79 79 73 72 74 68 74 77 79 78 78 83 85 88 88 84 83 88 88 92 98 95 99 102 96 97 102 100 100 96 84 70 62 55 47 44 41 40 41 45 46
79 85 87 93 91 84 76 77 79 79 78 73 77 74 72 76 78 78 74 74 77 78 80 82 90 93 98 94 97 98 99 96 95 102 100 102 94 79 65 55 50 46 42 41 43 46 48 50 51
67 79 83 89 92 78 75 76 78 79 81 82 85 78 75 76 74 77 79 81 84 88 86 89 91 89 91 93 89 94 91 93 102 100 93 88 72 63 51 48 43 43 45 47 48 50 52 52 54
61 68 76 82 82 89 89 78 82 77 77 77 76 78 78 79 81 82 81 83 84 84 87 86 87 87 93 93 94 93 96 99 95 89 74 64 62 54 50 45 44 44 46 49 51 55 53 51 52
51 57 63 69 72 78 82 83 83 80 81 81 80 78 82 82 84 87 87 86 81 81 84 87 88 87 86 91 92 96 96 91 81 72 65 58 52 50 50 47 45 45 49 53 53 53 51 50 47
55 58 57 58 58 66 68 84 91 81 82 83 82 84 84 83 84 85 83 81 81 77 77 84 84 84 88 89 90 87 82 78 63 61 56 56 53 53 46 45 49 48 49 46 44 45 48 48 41
53 51 53 55 56 58 62 72 91 86 80 77 76 78 73 83 78 81 90 87 79 70 76 83 86 89 90 90 85 84 78 64 58 54 56 54 55 56 51 48 51 51 53 50 49 49 46 44 47
48 49 54 59 68 69 63 62 65 67 68 71 73 72 73 78 70 71 70 71 74 79 84 88 92 91 90 81 83 73 61 60 53 53 52 51 52 56 56 52 55 55 53 46 48 49 51 51 49
54 62 61 55 58 61 68 67 63 66 69 67 69 70 70 73 73 70 81 84 82 84 86 90 94 92 88 78 73 63 59 56 56 53 56 56 60 60 54 58 57 60 55 53 51 50 53 54 53
66 56 60 59 57 55 60 62 60 57 59 63 64 64 68 67 78 75 85 84 80 82 87 85 84 77 70 69 60 53 51 49 55 58 60 61 65 61 64 61 59 58 55 56 55 55 56 56 55
59 63 62 69 63 63 62 61 68 69 67 68 69 70 72 74 76 80 79 80 81 84 83 74 81 65 55 55 52 53 51 56 60 63 64 62 63 62 63 63 62 61 59 60 60 60 59 57 57
50 59 59 69 63 64 71 64 70 69 69 70 71 75 77 79 82 81 83 83 85 77 69 61 56 53 51 52 52 51 55 61 63 62 65 62 58 61 64 68 71 69 64 63 64 64 63 63 63
44 49 56 61 65 67 71 75 73 67 65 68 70 72 75 78 81 80 79 77 69 59 49 40 40 44 50 57 59 62 65 62 61 65 62 62 62 65 68 70 71 73 69 70 70 71 70 69 69
34 38 44 51 57 60 61 68 66 69 70 71 76 68 70 69 56 56 57 54 48 45 42 36 44 45 54 59 64 66 63 67 69 67 65 66 68 69 71 72 74 72 72 75 76 76 77 77 76
33 35 34 36 35 37 39 44 48 54 58 52 53 48 44 41 43 46 47 47 46 48 48 44 45 49 57 58 64 71 69 70 70 66 67 70 72 74 75 74 74 75 76 77 80 81 82 85 87
30 30 31 33 31 33 36 39 37 32 33 36 39 41 42 42 42 43 44 47 50 47 46 51 54 56 55 60 65 66 66 67 67 68 71 73 75 75 76 76 76 78 81 85 87 88 90 92 94
24 25 26 27 27 28 27 29 31 32 33 36 38 38 35 33 34 37 42 46 50 53 53 52 53 54 57 60 63 64 65 67 69 72 73 75 78 79 79 81 84 87 89 93 96 98 101 103 104
21 23 25 25 24 25 24 26 27 25 27 31 34 32 32 34 37 40 42 46 50 51 50 51 50 53 56 59 62 64 66 67 69 72 75 78 80 82 85 88 92 96 100 104 108 110 112 112 113
22 22 23 25 23 20 20 21 23 26 30 30 32 35 38 41 43 44 48 51 52 52 50 50 53 55 58 61 64 66 68 71 75 77 79 82 86 89 92 97 102 106 108 113 115 117 119 119 122
20 21 21 20 18 15 16 18 22 23 25 28 31 33 35 37 38 42 47 49 48 45 43 51 53 55 58 60 63 67 71 74 76 78 81 85 89 95 99 104 107 111 115 118 119 121 123 125 123
13 11 9 5 3 1 2 4 7 11 16 20 24 28 32 35 38 40 43 45 45 45 46 51 56 58 61 64 67 71 73 76 79 83 87 92 96 101 105 110 114 118 123 124 124 122 122 121 121
6 5 2 3 5 7 8 10 11 14 18 22 26 29 32 36 40 45 47 48 50 52 53 56 59 63 66 69 71 74 76 78 82 87 91 96 103 107 113 116 120 121 126 125 122 121 121 121 122
6 4 3 5 8 11 14 17 19 20 22 25 28 30 31 34 37 41 45 48 50 52 54 56 59 62 66 69 72 74 77 81 87 92 97 103 109 113 118 121 124 127 127 123 121 120 120 121 118
3 4 7 10 10 14 16 17 20 22 25 28 30 32 34 36 39 41 43 45 49 52 56 59 62 63 65 67 71 75 80 85 90 96 102 108 114 120 123 125 127 127 128 124 119 119 117 110 105
7 10 12 13 15 18 21 23 26 29 32 34 36 38 40 42 43 45 47 50 52 54 57 60 62 65 68 72 76 80 84 90 95 102 109 113 119 124 127 130 133 128 120 118 117 111 105 100 95
12 12 14 17 19 22 25 27 31 33 35 38 40 42 44 46 47 48 50 52 54 57 60 62 64 68 71 75 79 85 90 96 104 109 115 121 127 128 127 126 121 115 114 113 109 102 95 89 84

GFSSGP_250_spd_030.txt.gz
Wind_Speed
95 90 87 88 88 88 86 86 82 82 81 81 82 82 82 78 80 79 82 83 82 81 83 83 84 86 88 85 87 91 88 90 89 90 94 93 95 99 97 98 98 98 101 100 100 96 86 76 64
98 91 88 88 89 90 89 88 85 82 79 80 82 82 86 84 87 85 86 86 83 83 85 88 91 90 89 91 92 89 90 91 93 94 92 96 101 97 100 97 95 103 99 100 97 85 81 71 57
97 93 88 87 86 91 91 90 83 82 81 81 82 81 75 75 79 83 85 86 86 87 90 90 89 91 89 92 91 89 93 92 95 93 97 101 96 100 92 95 101 100 97 93 84 75 64 55 49
89 90 89 87 85 84 91 88 83 84 83 82 81 79 81 81 87 84 85 86 84 85 84 85 85 86 91 91 92 91 93 95 93 98 98 98 92 94 96 102 97 93 92 86 71 64 53 52 46
79 83 88 88 81 82 85 89 86 74 82 79 82 82 78 81 84 84 84 81 82 85 84 86 85 90 92 90 86 86 90 93 95 97 96 91 94 100 99 97 91 89 79 71 64 53 48 45 46
72 74 75 82 81 78 83 84 90 75 63 72 78 81 78 73 77 77 76 77 81 83 85 85 86 85 86 82 84 90 91 94 96 96 90 94 98 94 97 91 86 76 68 59 52 49 49 48 51
68 66 66 73 76 79 78 80 86 87 76 74 77 78 80 81 79 80 80 81 83 82 81 80 82 80 84 87 88 90 89 90 89 89 91 93 97 93 86 82 79 68 63 55 54 48 49 52 52
59 60 61 66 68 73 75 74 83 91 89 83 82 76 73 78 74 76 76 74 73 71 76 81 83 86 86 86 86 88 87 85 85 94 96 95 91 83 77 73 69 57 51 47 46 49 50 49 49
51 51 50 56 61 66 71 74 76 86 93 83 77 72 75 80 83 82 79 79 80 81 84 85 86 84 86 88 90 85 83 84 96 94 94 87 80 72 67 68 59 55 51 50 53 52 51 52 50
44 46 44 51 54 53 57 68 75 71 80 87 83 83 79 81 83 85 88 82 80 82 87 85 85 86 88 91 84 90 93 95 94 89 76 77 79 72 66 61 60 55 52 53 51 54 54 52 48
39 39 38 42 43 49 48 50 58 57 60 68 59 65 71 78 77 81 84 74 88 90 83 84 82 85 78 83 85 86 89 87 86 79 75 72 72 67 64 55 55 60 58 51 52 56 55 52 50
35 38 36 42 45 45 45 45 44 50 62 61 58 60 62 64 69 68 70 76 79 81 79 81 78 79 83 85 88 86 85 80 77 71 72 61 61 62 58 62 62 61 61 57 58 57 53 52 53
36 40 40 50 49 55 53 53 48 51 55 58 57 59 60 70 65 71 69 74 75 76 78 77 74 78 81 86 84 76 74 67 66 64 61 61 62 63 64 67 68 68 64 60 61 61 61 59 58
42 42 43 48 49 41 45 52 51 48 47 51 53 53 56 58 62 68 72 74 77 71 74 81 81 85 84 82 77 73 69 67 66 62 59 63 64 65 70 71 68 68 62 60 63 67 68 66 64
40 44 44 46 52 53 57 55 53 61 61 66 67 64 65 64 67 68 72 71 73 79 79 81 84 87 79 76 65 66 65 65 62 56 57 61 65 68 69 66 69 69 67 68 67 68 70 70 71
33 35 39 48 54 56 58 62 60 59 56 59 61 62 64 71 70 74 75 75 76 81 82 79 73 67 59 58 57 58 63 61 58 60 64 65 67 68 71 74 72 70 69 69 71 72 74 74 72
34 34 37 38 42 53 55 59 62 64 59 59 64 65 67 70 73 75 77 79 80 69 66 57 52 43 50 51 53 62 65 65 65 67 68 70 72 76 77 75 72 71 72 74 76 78 78 75 73
32 36 38 42 44 45 47 55 54 57 66 64 63 65 70 75 77 73 66 65 58 53 51 44 38 41 50 51 64 64 66 67 69 70 72 75 79 77 74 72 72 75 77 79 80 79 79 78 76
30 30 32 38 40 42 46 49 49 49 55 56 53 52 50 52 54 55 52 49 46 45 44 36 32 49 54 64 67 70 72 74 75 75 75 78 77 76 75 75 76 78 79 78 79 81 82 84 85
28 28 26 29 30 31 32 34 36 37 40 41 41 40 39 41 41 42 44 43 42 32 33 37 45 50 56 60 67 74 74 73 75 75 76 77 76 76 76 77 78 80 83 84 84 85 87 89 90
23 23 23 25 25 26 28 30 31 33 34 35 36 36 35 34 35 38 39 40 38 43 50 52 55 58 61 63 67 71 70 71 72 74 74 75 77 78 80 82 83 85 88 89 90 93 95 96 101
20 20 18 17 18 21 23 25 27 29 32 34 34 32 32 34 36 37 39 42 46 50 53 55 57 59 61 65 69 67 69 70 71 73 75 77 80 83 84 86 88 90 92 95 98 101 105 108 112
18 18 17 16 17 18 21 22 26 27 30 29 29 31 34 37 36 36 39 40 40 41 42 45 48 51 57 62 63 65 69 71 73 75 78 79 81 84 87 88 91 95 98 103 107 111 115 118 120
14 14 13 13 14 17 20 22 27 27 26 26 25 24 24 26 29 31 34 37 41 44 47 48 51 53 58 61 64 67 69 71 73 76 79 82 84 87 91 94 97 102 105 108 114 119 122 125 126
14 13 12 13 11 9 8 9 9 12 15 19 21 24 27 30 33 35 38 41 42 45 50 53 54 57 59 62 65 67 69 72 75 77 80 84 88 91 95 99 103 108 113 119 123 125 126 124 123
13 11 10 9 9 8 7 10 12 15 18 21 24 27 30 32 35 37 40 42 46 49 52 53 56 58 60 62 65 68 72 74 76 78 82 87 91 95 100 105 110 116 119 122 127 127 124 121 121
11 10 8 6 6 6 8 12 14 18 20 24 27 31 34 37 39 41 44 46 49 51 54 56 59 61 63 66 69 72 74 76 78 82 85 89 96 102 107 112 115 117 121 122 122 121 118 117 117
10 8 6 5 8 10 12 15 19 21 24 26 29 32 35 39 42 46 48 50 53 55 58 61 63 64 67 69 71 72 73 75 79 84 90 96 104 108 110 111 114 117 119 118 117 117 114 112 109
7 5 7 9 11 12 16 18 20 23 26 30 34 37 41 45 47 49 51 53 56 57 59 60 61 63 65 67 69 71 74 80 85 91 97 101 105 109 113 115 115 117 116 115 111 107 105 103 98
7 9 12 14 15 17 20 22 24 28 31 33 38 41 44 46 47 49 51 52 54 57 58 59 60 61 64 66 68 73 79 86 92 98 103 109 112 116 117 116 117 117 113 108 102 99 94 91 89

GFSSGP_250_spd_033.txt.gz
Wind_Speed
103 100 98 97 92 90 88 87 85 83 83 82 82 77 78 78 78 78 80 83 84 83 82 83 79 80 80 85 83 86 87 88 92 91 93 90 90 89 91 90 90 92 91 95 85 91 89 83 87
99 99 96 96 94 89 89 86 83 84 83 83 83 81 79 81 79 78 80 81 86 86 86 85 82 82 84 87 90 89 90 93 95 90 90 91 89 88 89 92 91 92 97 83 91 87 84 84 79
90 95 93 91 95 89 86 85 81 82 82 82 81 81 80 81 80 82 86 85 86 86 88 89 91 92 89 91 90 91 92 92 88 90 90 90 86 88 91 92 92 90 92 90 93 85 83 79 74
86 89 91 91 90 88 86 84 83 80 82 82 82 82 82 81 80 85 86 88 89 89 87 84 90 90 92 90 89 89 85 93 91 91 89 85 89 90 90 93 83 89 96 95 86 82 78 73 58
79 81 84 84 84 88 88 86 80 79 79 80 85 84 78 83 83 79 77 80 81 80 84 86 82 80 80 79 80 85 95 94 91 86 87 89 88 89 92 89 87 96 88 84 81 80 73 60 54
70 72 76 78 78 75 77 76 76 77 77 79 81 84 78 74 76 75 74 73 70 73 69 74 75 83 83 83 87 88 89 86 85 89 89 89 90 94 91 90 93 86 82 84 78 69 63 57 51
62 60 65 65 70 66 64 67 70 76 76 80 78 79 75 64 65 69 75 80 79 80 82 85 83 80 82 86 83 88 85 85 88 90 92 88 88 94 90 90 92 89 82 75 71 64 55 54 47
55 53 59 60 57 54 57 61 70 74 78 79 76 74 81 74 71 66 69 72 75 80 82 81 88 89 84 82 79 80 85 84 87 91 89 88 91 93 91 94 83 79 75 74 65 58 54 52 52
44 44 48 50 51 54 56 64 70 73 76 76 76 75 74 74 77 74 72 70 72 75 75 72 73 71 73 78 88 86 84 86 90 88 92 93 87 88 86 84 75 74 67 68 60 55 58 55 51
40 41 44 47 47 52 58 64 68 72 74 74 72 71 75 73 63 68 74 75 75 74 76 77 74 79 80 75 73 79 87 83 89 87 85 89 86 82 81 75 71 67 67 61 59 59 62 63 57
36 35 35 37 39 45 53 56 60 65 66 67 66 67 68 68 68 65 67 67 76 77 73 80 73 80 76 78 80 83 87 86 86 86 85 88 76 72 72 71 66 64 64 62 59 63 62 59 57
27 26 30 33 37 39 43 48 52 51 55 49 47 63 53 60 62 64 63 60 58 64 63 70 70 68 69 76 81 83 82 85 81 86 81 85 75 71 68 65 64 62 64 62 65 64 60 60 56
24 29 31 31 32 35 39 40 37 38 42 47 46 52 59 56 56 53 54 57 57 66 65 68 72 79 78 75 81 82 82 83 81 76 78 72 69 68 68 66 68 65 64 65 65 64 69 69 67
26 26 29 30 32 35 39 35 35 38 38 44 48 48 52 59 62 61 63 60 56 58 60 64 71 73 75 77 84 82 77 72 69 70 69 71 67 65 66 64 66 68 70 72 72 74 73 70 69
24 23 26 28 29 31 35 33 33 42 44 43 44 42 47 50 51 54 53 58 59 61 70 69 73 74 78 81 81 73 63 66 70 76 73 73 68 65 64 67 71 74 76 77 78 77 74 71 71
27 25 25 28 32 33 36 38 44 42 44 43 48 51 58 60 62 63 65 67 68 65 69 72 70 76 73 63 55 54 58 66 69 70 74 71 70 69 72 74 73 77 80 81 82 78 76 74 74
24 25 26 26 36 38 40 44 45 46 51 54 54 60 62 60 57 60 62 65 68 69 67 60 57 55 53 44 37 47 53 57 57 57 60 71 75 79 80 83 83 84 82 84 82 79 76 75 76
24 29 31 31 34 39 38 39 47 48 46 48 52 58 62 65 69 69 62 61 59 58 60 56 52 42 42 34 50 51 62 63 62 70 77 81 83 83 86 83 83 83 83 80 78 78 79 79 80
28 28 30 31 34 36 40 41 45 48 45 48 48 50 54 57 56 57 54 50 48 44 39 42 43 34 32 59 51 55 66 77 82 85 88 87 86 85 85 84 83 81 79 80 81 82 84 86 86
29 31 31 31 31 32 33 34 36 38 38 41 43 44 43 42 41 43 42 41 40 38 37 21 52 37 41 62 57 62 68 72 78 81 81 82 84 83 81 80 82 83 85 86 86 87 88 89 89
23 23 26 27 27 28 29 31 33 34 34 34 34 36 36 36 37 36 38 38 38 38 39 39 45 50 53 56 60 65 71 74 74 75 75 74 76 79 81 82 83 84 85 87 88 88 89 91 93
23 23 24 25 25 26 27 29 30 30 29 29 30 30 30 30 30 30 30 30 33 36 37 39 42 45 48 52 55 60 63 67 70 72 74 75 77 79 81 82 83 83 85 88 90 93 96 99 103
19 22 23 23 20 23 24 24 25 24 24 25 26 26 25 24 24 25 27 31 34 37 39 42 45 48 49 52 55 58 61 63 65 68 71 73 76 79 81 82 83 84 87 91 96 101 106 109 112
22 22 19 18 23 23 20 19 18 18 18 16 14 15 18 22 25 28 32 34 37 39 42 45 48 52 55 57 59 61 64 66 68 70 72 75 78 78 79 80 85 90 95 100 104 108 110 112 116
19 19 20 21 17 14 11 8 6 8 9 11 13 16 19 23 27 31 34 37 40 44 48 51 54 56 59 61 63 65 67 68 70 71 73 75 75 78 82 87 92 98 102 106 106 109 111 112 114
11 12 12 10 9 6 5 5 7 8 11 13 16 19 23 27 29 32 36 40 44 47 50 53 55 58 59 61 62 63 64 65 66 68 71 73 78 83 88 94 97 101 105 105 108 111 110 111 112
13 14 12 12 9 6 7 9 10 12 14 17 20 22 25 29 32 36 40 43 45 48 51 53 55 57 58 60 61 63 64 65 67 70 74 78 84 89 97 100 104 105 106 109 108 109 110 109 107
16 15 12 9 9 9 10 11 13 14 17 20 22 25 28 32 37 41 43 45 47 50 52 53 55 57 58 59 60 62 65 67 71 75 82 87 94 98 102 106 109 110 110 110 112 111 107 101 100
13 10 8 8 7 10 13 14 16 19 21 23 25 29 33 37 41 43 45 48 50 54 55 55 56 56 56 57 60 64 68 73 77 81 89 96 100 104 105 106 109 111 115 118 115 107 101 97 93
10 8 7 8 10 12 16 19 21 24 25 26 30 33 36 42 46 47 49 51 53 56 57 55 55 56 56 59 64 70 76 80 86 92 98 102 105 107 108 112 115 118 120 117 108 102 94 88 85

GFSSGP_250_spd_036.txt.gz
Wind_Speed
101 105 103 101 99 98 95 91 91 90 89 84 80 80 83 79 79 77 79 79 80 83 86 85 82 83 81 81 79 79 80 82 83 82 87 89 90 87 86 89 88 85 81 81 88 86 86 95 85
99 102 104 102 98 97 99 95 92 91 87 85 82 80 80 81 79 79 81 79 82 83 84 85 82 83 80 78 80 79 80 82 87 90 91 90 86 87 91 93 91 82 85 87 82 88 87 88 86
95 96 99 100 102 99 97 93 90 89 87 86 85 83 80 80 80 83 83 79 79 83 86 85 85 84 81 81 84 85 88 90 90 92 88 88 91 93 90 89 84 86 83 86 88 83 84 82 83
84 91 94 92 95 96 89 90 87 89 87 86 83 80 79 80 82 83 84 84 79 83 82 86 84 85 87 89 88 87 88 90 91 89 92 91 88 90 90 86 83 84 86 91 83 85 82 86 76
75 83 81 85 86 87 87 86 83 76 78 81 80 81 73 80 78 81 82 79 83 78 85 88 88 90 87 83 87 91 90 86 87 90 89 89 92 86 84 86 88 90 90 87 82 78 82 75 66
64 69 72 74 77 80 80 77 75 72 72 75 77 79 78 76 71 73 71 75 75 80 84 80 69 72 83 76 77 76 79 83 87 88 85 89 83 85 88 88 88 84 79 77 81 77 78 66 63
57 59 60 64 67 71 70 70 70 67 65 69 73 76 78 77 76 70 79 81 67 62 60 60 66 69 69 71 81 84 79 83 82 88 86 81 87 82 86 80 82 79 82 82 80 74 68 66 64
49 53 50 51 60 65 62 63 63 63 61 66 70 75 74 74 72 71 76 74 71 71 74 75 74 82 80 83 82 79 80 81 80 84 83 78 80 81 82 85 82 80 81 79 71 67 64 65 58
41 41 42 46 52 56 56 56 57 56 58 64 69 71 70 71 67 71 63 67 67 68 71 68 75 80 70 70 74 70 72 75 79 76 77 82 83 81 79 79 79 81 80 73 69 63 67 61 61
35 37 37 41 45 48 51 50 53 57 59 65 68 72 71 70 68 66 67 64 68 68 62 62 65 62 65 63 72 76 75 76 74 76 77 80 81 78 78 82 84 82 72 69 65 60 63 64 59
32 33 35 39 40 42 46 47 51 55 59 64 67 70 69 65 62 65 62 58 60 60 58 58 57 57 58 64 63 67 71 76 72 74 74 77 80 83 81 83 78 70 68 65 63 62 66 65 62
26 26 26 30 35 37 37 40 44 50 50 57 60 63 66 69 69 67 63 63 65 62 60 62 62 64 61 62 69 67 71 75 77 77 76 81 84 79 83 82 76 70 66 67 68 65 64 64 68
22 22 26 32 28 31 29 31 31 37 42 46 49 54 50 57 62 70 66 69 65 60 59 53 57 56 59 62 65 68 76 79 83 80 79 83 86 82 76 75 72 68 68 66 65 66 67 71 69
24 28 27 25 25 27 28 27 28 31 34 35 35 35 38 44 41 45 49 53 55 57 60 60 61 64 68 69 70 75 80 83 81 78 78 81 78 75 73 74 68 64 66 69 71 74 77 79 77
27 24 24 25 25 24 21 21 28 33 34 35 39 42 43 44 45 45 49 52 52 52 55 59 62 65 68 74 77 76 78 71 69 68 70 72 77 78 76 76 77 75 79 82 83 85 86 81 78
26 24 22 21 23 21 25 22 33 35 38 40 40 40 40 41 43 42 44 49 54 55 58 61 68 67 69 73 76 71 63 56 58 61 63 66 66 66 67 75 75 85 86 90 95 93 89 83 81
24 24 19 13 13 16 19 23 26 36 34 37 37 38 38 37 39 49 51 56 57 58 63 59 60 61 62 59 54 51 47 52 57 64 62 62 70 74 81 78 84 90 95 99 98 92 88 84 82
26 23 20 21 23 24 25 25 30 39 43 47 48 49 52 52 51 53 59 61 62 66 66 65 62 57 51 40 33 43 50 58 62 59 65 72 77 80 86 89 93 97 98 93 87 85 85 83 83
23 23 25 25 24 25 31 33 37 36 40 41 44 46 47 51 52 47 47 47 48 49 52 48 43 39 26 36 34 50 55 53 60 69 76 82 83 88 91 95 96 96 86 87 87 86 85 86 85
25 25 25 26 27 30 32 34 38 42 46 45 42 41 47 51 43 41 44 46 41 38 36 35 31 33 37 41 47 58 61 65 66 73 82 85 89 92 91 89 85 86 85 84 85 85 86 85 81
27 28 29 32 32 33 35 36 37 37 36 35 35 35 36 36 36 35 34 33 33 35 37 37 36 37 44 47 52 60 62 66 66 70 72 74 76 78 79 81 83 83 84 85 84 83 83 85 89
31 30 30 29 29 30 30 30 31 29 29 30 31 30 28 29 29 28 30 30 28 27 29 32 34 36 40 45 49 54 58 61 65 68 71 74 77 79 80 80 80 80 79 79 82 86 90 94 97
27 27 27 28 28 28 27 27 26 24 24 25 25 25 26 25 21 18 20 24 26 29 33 36 39 43 47 51 55 59 63 66 68 71 71 71 71 71 70 71 73 75 80 85 89 94 97 101 102
23 24 24 24 25 27 25 22 19 21 21 19 16 14 12 14 17 20 24 27 31 34 37 40 43 46 50 53 56 59 62 64 65 66 67 67 67 67 70 74 79 83 88 92 96 100 103 103 106
21 21 21 25 23 19 17 18 16 10 8 10 10 11 14 17 21 24 26 29 32 36 39 41 45 48 51 54 57 60 62 63 64 63 63 62 66 71 77 80 84 90 95 98 100 99 102 106 109
18 20 21 19 18 18 17 12 9 9 10 11 11 14 17 19 21 24 27 32 35 38 41 44 47 51 54 55 57 59 60 60 59 59 62 66 71 76 80 84 92 96 97 98 99 101 105 108 109
22 21 20 19 17 15 12 9 9 10 11 13 14 16 18 20 22 26 29 33 38 41 45 47 49 53 55 56 57 60 61 61 62 64 68 72 77 83 86 93 98 99 99 100 104 108 112 113 109
18 15 14 14 15 12 10 10 12 14 15 16 19 20 22 24 27 30 33 39 42 44 47 51 53 55 57 59 60 61 61 61 65 68 72 78 82 88 94 99 101 101 101 104 108 113 113 111 110
14 15 16 15 13 12 13 14 16 17 18 20 23 24 25 28 31 34 40 45 47 49 53 57 59 61 61 63 64 64 65 67 71 75 80 84 90 95 100 103 105 104 104 107 112 113 111 109 105
19 19 15 14 14 15 16 17 20 22 23 25 27 27 28 33 34 39 44 48 52 56 60 64 66 66 66 68 69 69 70 70 74 80 86 92 96 102 107 108 107 106 107 111 113 113 110 105 97

GFSSGP_250_spd_039.txt.gz
Wind_Speed
97 100 98 102 101 102 102 101 104 95 89 85 80 81 82 79 77 73 76 76 79 78 77 79 81 85 84 82 82 86 85 87 84 83 79 77 80 82 84 88 89 90 90 91 90 89 86 86 83
94 94 99 99 101 98 99 105 106 94 88 87 84 83 83 84 80 76 75 73 75 77 79 77 80 82 83 81 82 82 82 82 84 86 86 85 86 87 88 87 91 88 88 88 89 85 84 85 86
89 92 94 97 101 100 102 102 96 94 91 88 87 86 84 85 80 78 74 68 67 78 69 71 75 77 82 79 79 79 81 85 85 85 88 89 89 92 93 92 89 90 89 87 84 84 88 86 82
81 86 90 91 93 103 100 97 91 88 89 89 88 84 85 84 82 80 76 70 71 67 67 78 77 77 79 81 74 79 80 79 82 88 89 87 90 87 86 86 86 86 87 82 85 84 78 75 76
77 77 79 83 90 90 88 89 87 85 86 88 90 83 82 78 79 73 73 71 75 72 80 83 78 80 82 81 84 78 80 86 90 83 83 78 74 77 81 88 85 83 83 82 77 78 80 76 73
67 70 71 71 81 71 77 73 73 79 82 79 80 82 79 75 69 66 70 68 61 58 66 63 71 79 82 73 74 79 79 70 66 66 76 82 86 87 84 82 81 83 80 78 75 77 75 75 71
55 58 64 66 63 61 66 63 68 77 74 73 72 72 72 58 55 52 49 46 42 39 46 55 60 59 58 66 65 58 63 68 70 84 86 87 81 86 81 79 85 80 75 75 75 70 76 72 68
50 49 50 54 58 52 53 55 56 64 65 64 65 61 63 55 54 59 59 56 55 47 52 53 62 59 67 64 64 69 77 84 90 83 79 87 81 77 79 71 75 75 76 74 75 70 70 67 64
41 44 44 41 44 42 48 55 56 58 58 60 59 58 62 58 61 59 59 51 63 64 70 74 71 74 73 79 80 79 78 73 78 75 72 76 77 72 74 74 73 77 75 74 73 69 67 65 63
36 38 41 37 30 27 39 44 52 54 54 55 57 58 61 61 63 67 69 70 71 73 75 75 76 80 74 70 66 67 71 70 73 75 77 72 69 73 73 77 82 80 77 77 76 71 67 63 57
32 35 32 37 40 48 44 46 47 47 48 50 54 55 57 60 61 62 65 66 70 73 76 74 69 67 68 61 64 65 68 74 69 70 71 77 74 78 83 83 85 81 80 74 75 68 64 62 57
27 26 30 33 39 46 52 48 37 37 40 45 47 50 53 57 59 62 65 64 66 68 78 80 79 80 78 78 69 73 77 66 67 71 75 78 82 85 84 82 77 72 71 73 70 64 60 61 60
23 28 27 31 31 39 40 35 29 34 41 37 39 40 44 47 52 56 64 64 70 72 75 72 70 69 70 71 72 65 67 63 69 76 77 81 84 86 89 83 79 80 77 70 66 69 67 72 73
27 26 29 30 33 30 26 23 23 28 24 24 27 28 30 35 38 41 46 52 57 66 76 76 78 77 80 76 66 68 72 71 74 77 78 81 85 84 75 74 72 70 73 74 74 72 78 78 84
24 30 33 28 27 23 23 26 28 28 29 33 29 28 24 26 28 34 38 44 44 47 50 55 56 56 60 63 67 69 72 76 80 81 78 74 70 68 69 70 69 73 78 79 79 74 80 86 89
30 32 30 26 25 22 21 22 26 29 32 34 32 37 31 36 35 40 41 44 46 48 53 55 58 62 63 66 67 68 69 68 69 67 63 62 64 68 67 71 72 75 75 83 83 85 91 96 99
30 29 28 19 18 21 18 21 23 24 25 28 27 31 37 40 43 40 41 44 46 50 53 54 59 60 65 68 69 66 68 58 58 55 63 62 66 70 71 70 72 79 79 83 92 96 101 104 104
31 30 24 17 19 20 24 20 21 21 26 32 37 37 38 41 42 48 50 48 52 54 55 53 60 62 63 62 60 58 47 44 51 56 58 66 70 72 76 79 82 86 91 96 98 102 105 96 95
27 23 21 20 21 21 21 22 26 30 34 36 36 41 47 47 50 52 53 59 61 58 56 57 57 56 58 57 52 50 49 51 59 60 65 74 81 77 84 88 89 92 93 97 102 94 91 92 90
26 24 25 25 25 22 30 32 36 39 40 41 45 45 46 47 49 50 49 50 49 51 52 49 47 45 45 44 46 47 51 51 55 61 69 72 77 88 86 89 90 87 87 85 87 87 82 79 80
24 25 25 24 23 24 27 32 40 44 47 46 46 47 49 49 46 44 43 43 43 42 40 38 35 35 34 35 37 47 52 54 61 64 67 72 75 79 82 84 86 87 86 81 77 76 79 83 86
26 27 25 25 25 27 29 31 36 39 39 38 37 38 38 38 38 39 36 34 33 30 27 27 28 31 35 38 43 46 50 55 61 65 69 71 77 79 80 80 78 75 71 73 77 81 86 89 94
27 27 28 31 32 36 36 36 35 32 32 33 35 35 34 34 33 28 25 22 22 23 25 29 32 36 40 43 46 49 54 57 60 64 66 68 69 70 71 69 67 69 74 80 82 89 94 98 100
32 32 32 32 32 32 31 30 29 27 29 29 28 29 28 24 19 18 18 19 22 25 29 32 36 39 42 45 48 51 53 54 56 60 64 66 65 63 61 65 70 75 79 85 90 94 99 103 104
28 29 30 32 31 28 24 24 23 27 24 24 21 17 17 18 17 17 19 21 24 27 30 34 35 38 42 45 48 53 57 59 60 62 62 62 65 67 69 72 75 78 85 91 96 100 103 108 107
31 28 25 23 22 20 22 23 23 20 21 20 16 17 17 17 17 19 21 23 26 30 35 37 39 43 47 51 55 58 59 60 63 64 66 65 67 70 71 73 77 85 90 96 101 104 106 107 107
25 22 20 19 21 21 19 20 20 20 17 15 15 16 17 19 21 21 24 27 31 34 38 41 44 48 51 56 58 60 64 67 68 69 68 70 74 74 75 79 83 91 96 102 106 108 108 107 109
21 21 19 20 20 20 20 21 19 17 15 16 18 19 22 24 25 26 29 33 35 38 42 46 48 52 56 61 65 67 71 73 73 73 74 75 78 80 81 84 91 97 103 106 110 110 108 110 112
20 22 24 24 21 21 21 19 18 18 18 20 22 24 26 28 30 31 34 37 38 41 45 50 53 58 62 68 71 74 76 78 76 77 78 80 82 83 86 91 97 102 106 111 112 112 112 112 114
25 25 24 22 22 21 20 19 20 21 23 26 28 30 31 32 35 36 39 43 44 47 50 57 61 65 70 76 77 79 82 82 80 81 82 83 85 88 93 97 102 107 111 114 113 113 114 115 113

GFSSGP_250_spd_042.txt.gz
Wind_Speed
95 97 98 97 99 96 95 96 100 98 96 98 87 90 85 77 76 72 64 66 61 69 70 67 68 70 74 77 78 78 77 78 79 82 82 80 82 84 86 86 85 87 88 90 90 87 88 87 90
90 95 97 96 95 95 96 100 97 93 100 98 96 89 89 82 84 81 75 71 71 72 74 73 75 79 80 77 76 79 79 79 73 75 75 79 80 79 81 87 86 87 89 85 82 80 86 87 83
84 88 94 91 90 90 97 98 95 91 95 96 92 87 85 85 85 81 72 69 70 67 70 73 75 76 70 74 78 71 68 71 70 73 77 79 77 79 84 82 83 83 81 74 78 82 85 79 81
75 82 87 83 83 82 95 94 82 86 92 90 81 81 83 82 82 80 71 61 52 57 63 70 73 68 73 59 63 65 68 71 77 78 75 74 72 81 83 76 72 71 76 84 85 88 77 78 81
73 76 76 77 74 77 87 77 80 75 81 74 75 75 78 79 79 77 67 57 63 60 60 62 69 73 73 77 78 76 75 73 71 72 72 75 77 66 64 69 77 85 81 87 78 73 72 74 75
64 68 67 68 68 75 73 64 69 63 69 66 66 70 73 75 73 73 72 68 54 54 54 57 60 70 71 68 71 72 55 62 58 59 64 69 61 66 76 83 85 80 81 76 77 77 80 74 71
59 61 60 64 62 65 53 61 49 42 56 48 63 64 55 55 62 66 66 65 58 55 50 63 68 66 63 58 50 55 61 60 59 65 64 63 65 81 84 79 78 84 75 79 77 75 68 71 74
51 53 53 54 55 50 38 40 47 55 62 56 65 66 63 54 54 55 56 51 41 31 44 54 66 50 44 51 57 57 56 61 64 65 70 82 78 80 76 80 79 76 79 74 68 66 73 78 76
49 45 44 50 48 34 31 27 40 52 54 55 56 55 53 51 51 52 37 25 32 48 55 63 60 46 52 57 58 60 62 62 69 77 81 78 77 78 77 76 80 82 78 76 78 81 80 79 76
40 39 45 40 38 30 23 29 48 44 48 50 52 54 49 47 49 47 37 39 39 50 64 59 53 54 56 60 63 71 79 79 76 74 73 72 75 75 81 80 82 76 84 83 82 80 82 82 83
36 40 39 34 29 36 34 50 54 50 50 45 46 49 50 48 47 47 43 55 55 61 66 67 68 71 72 73 81 75 70 68 67 67 66 72 76 81 83 82 81 83 78 81 87 84 82 84 81
30 33 33 32 32 50 50 51 46 50 46 18 25 35 44 46 48 50 50 50 62 72 73 75 74 80 81 80 83 80 84 82 82 75 81 85 85 83 82 84 85 84 88 88 85 85 86 81 70
27 28 27 21 30 44 53 47 45 48 40 30 21 36 28 36 38 42 43 54 67 71 74 76 82 87 84 83 79 82 77 83 81 79 77 80 79 83 82 87 89 91 90 90 88 85 72 71 70
19 21 19 29 28 33 41 47 51 46 41 36 34 27 26 27 25 29 37 45 57 63 72 78 81 81 81 83 80 78 80 78 80 80 78 79 83 86 87 88 87 88 92 89 83 71 73 74 74
25 25 27 25 25 27 32 41 47 40 28 27 36 36 27 23 21 20 20 30 39 40 41 48 56 67 83 88 87 90 80 75 79 82 81 81 84 85 86 89 90 90 85 76 74 73 72 72 73
26 26 29 25 28 30 29 29 28 28 30 26 31 26 21 21 24 31 27 33 33 50 52 51 51 58 59 61 61 61 64 67 73 76 83 86 88 89 89 89 80 77 76 76 80 80 79 82 88
30 30 28 29 28 27 28 23 20 23 21 24 24 23 25 29 33 34 41 38 46 44 47 54 57 60 64 64 66 66 68 73 76 81 79 81 82 83 75 74 76 75 76 79 83 90 92 90 95
32 37 31 26 26 20 19 17 19 20 21 26 32 27 36 37 30 41 43 44 43 43 44 48 54 57 57 63 68 68 67 69 67 71 69 71 71 67 67 72 76 81 81 87 91 93 94 99 95
30 33 29 23 19 21 25 24 20 23 25 24 23 30 38 41 40 38 45 48 53 52 53 54 57 59 63 62 62 64 64 61 59 60 59 62 65 67 70 74 79 85 88 90 90 91 89 88 83
31 30 25 22 21 23 23 25 26 26 26 27 29 32 39 40 43 49 52 55 54 55 55 58 60 58 52 51 51 51 50 48 47 51 57 62 67 72 76 80 82 83 84 84 82 80 75 72 70
30 27 24 26 25 25 25 27 28 31 29 35 38 40 43 46 47 50 49 49 51 56 49 46 44 43 42 40 38 39 41 43 47 51 52 56 64 68 70 71 71 71 70 70 72 70 69 72 75
26 21 20 20 24 22 31 34 30 31 33 37 43 47 48 51 50 53 55 54 45 41 38 39 33 31 33 35 37 40 42 45 47 48 51 57 62 65 66 67 68 70 71 73 76 77 78 79 81
22 19 16 20 21 25 27 28 26 27 33 36 40 40 41 38 36 37 37 37 37 32 27 27 28 32 33 35 37 38 39 40 45 48 51 56 58 62 66 68 71 71 72 75 77 79 81 83 85
26 23 22 24 26 26 31 34 29 35 33 31 38 33 32 30 31 33 30 27 23 24 26 28 28 29 34 35 36 38 42 45 50 56 59 65 65 68 66 66 68 71 74 76 78 81 84 88 93
22 22 23 24 33 34 33 35 37 24 35 27 31 29 29 27 22 20 20 24 25 26 27 28 29 33 36 38 39 44 49 54 58 63 67 70 73 75 72 71 72 75 77 79 82 85 89 94 101
28 29 31 31 36 31 34 33 29 27 27 25 26 25 23 20 20 21 22 24 25 27 30 32 33 37 43 44 47 50 55 61 68 70 75 78 80 80 74 75 76 77 79 82 88 93 98 102 108
26 29 33 35 37 30 28 24 25 24 25 26 26 26 24 23 22 23 25 27 29 31 34 36 37 42 48 49 54 58 62 68 72 75 77 81 85 81 78 78 79 81 85 89 95 100 104 107 110
31 31 33 29 28 27 21 27 23 25 24 26 26 25 25 25 26 28 29 30 34 37 41 43 43 48 54 57 60 64 68 73 77 80 84 87 86 82 81 82 84 87 92 98 103 107 110 111 113
32 32 28 28 27 26 25 21 24 23 26 26 24 25 26 27 31 33 34 36 37 41 44 49 53 53 57 62 66 69 73 78 82 85 88 89 87 84 84 86 90 95 100 106 108 110 112 115 112
29 30 28 27 25 24 25 24 25 27 26 25 27 28 29 33 36 38 39 41 45 44 48 53 59 60 65 68 72 76 80 84 86 89 91 91 87 87 88 92 96 101 105 110 112 113 114 113 113

GFSSGP_250_spd_045.txt.gz
Wind_Speed
86 89 93 92 91 90 95 100 93 90 93 88 89 91 89 87 87 80 75 73 69 66 68 70 70 65 61 64 64 66 68 68 71 72 75 78 77 80 82 81 78 77 80 81 82 81 84 80 78
78 82 90 88 87 88 94 94 95 94 95 91 88 88 86 89 88 79 72 73 71 71 67 68 69 67 67 72 71 71 71 74 73 70 73 73 73 73 74 73 74 78 79 80 75 76 76 71 71
71 78 83 81 82 84 92 90 91 93 92 89 85 89 92 90 84 77 73 73 71 72 71 70 68 72 70 72 74 71 71 72 71 69 70 63 68 71 72 74 74 75 74 72 72 68 71 76 78
67 72 74 73 73 85 85 87 87 83 83 76 79 85 91 87 77 71 72 63 59 64 67 69 65 66 66 69 72 68 69 72 70 67 63 72 75 73 72 66 64 63 64 64 62 67 83 84 83
59 62 65 66 72 79 83 82 79 72 72 73 73 73 76 75 65 63 55 54 59 53 60 63 67 66 67 65 66 66 64 61 63 67 71 75 70 62 63 61 65 65 61 66 66 77 80 81 84
51 53 57 66 68 74 68 51 48 64 62 62 56 60 59 61 59 58 43 18 56 44 58 63 62 71 71 72 64 60 54 56 62 63 57 59 58 60 65 66 68 65 68 71 78 75 82 78 76
47 50 57 58 62 68 65 53 42 46 48 49 54 56 53 54 54 55 48 52 61 62 64 58 64 63 67 69 63 52 55 62 55 54 57 59 60 59 63 70 72 73 75 81 79 83 81 76 78
44 46 49 54 61 57 51 41 38 40 44 45 53 45 48 50 47 45 49 55 57 57 51 58 58 65 52 46 52 55 61 48 51 53 55 58 60 65 64 66 74 78 76 81 81 77 75 77 83
41 38 50 52 48 45 38 34 34 11 33 38 40 41 37 44 40 40 43 46 51 56 63 68 70 52 59 51 57 56 59 55 50 52 59 65 69 73 78 82 84 86 87 78 77 81 82 82 82
39 40 44 37 33 32 32 41 32 34 42 24 36 28 28 32 37 47 39 40 42 41 51 59 50 54 63 59 60 60 55 57 56 62 66 70 78 82 82 80 80 73 73 77 82 84 83 84 87
37 42 34 30 28 31 40 45 50 40 41 30 28 14 26 29 37 36 37 43 29 33 32 42 46 60 63 61 64 59 62 64 68 68 68 72 68 71 76 84 85 91 87 84 86 88 91 89 87
33 34 31 29 25 34 49 54 47 41 40 41 36 28 16 34 26 41 41 42 45 47 44 48 57 59 57 56 59 67 66 70 73 77 81 82 88 90 87 82 88 85 88 84 83 87 89 89 88
29 29 25 26 35 44 44 54 48 43 29 25 22 25 20 29 18 24 37 42 53 58 55 55 59 67 64 70 71 72 74 76 81 83 87 92 91 90 90 88 83 81 83 86 91 94 94 95 93
21 24 25 28 33 38 49 46 46 38 35 28 24 24 30 28 23 27 30 39 46 59 61 64 68 66 68 74 75 78 80 85 87 90 92 92 93 92 91 91 87 87 92 93 92 92 90 83 78
18 20 29 26 27 31 39 46 48 44 39 39 29 30 25 37 27 31 35 45 41 47 62 67 72 74 77 77 79 84 84 84 80 84 88 92 93 92 82 79 79 87 91 89 86 80 76 74 74
27 29 28 24 24 25 25 43 39 41 38 38 33 32 34 39 36 34 32 32 31 28 33 45 57 63 73 67 60 69 75 76 79 77 71 71 75 79 83 84 82 85 82 78 74 74 74 76 79
26 29 31 22 20 23 23 24 29 30 37 40 39 32 38 34 32 33 36 35 31 36 43 38 44 48 55 60 61 62 64 66 70 73 74 77 81 81 81 81 80 77 75 72 74 79 83 85 88
34 35 25 22 24 22 20 20 21 20 24 25 27 27 29 30 28 28 37 34 33 42 42 49 58 56 58 58 60 64 68 70 73 76 76 77 74 71 70 70 69 70 74 77 80 82 87 88 84
33 25 23 25 23 21 19 21 24 23 22 25 23 25 31 34 30 26 33 39 36 46 49 47 50 54 57 61 65 64 67 70 72 69 66 64 58 57 61 65 67 68 70 72 75 78 75 75 76
27 21 23 25 20 19 23 26 28 26 25 28 28 24 25 27 32 34 35 42 40 43 46 49 52 54 56 59 63 67 65 60 57 53 51 51 51 52 52 52 55 60 64 67 71 73 75 76 79
27 25 26 25 23 23 24 27 29 31 30 29 31 27 30 33 34 36 35 42 47 48 50 53 53 54 57 58 59 53 51 47 45 46 44 43 41 45 52 58 63 65 69 73 75 75 75 76 78
26 20 24 24 20 26 25 25 28 30 32 33 35 31 33 39 40 44 44 44 48 50 51 49 52 53 49 51 48 41 41 42 40 40 42 44 47 52 57 62 67 73 76 80 80 77 78 78 77
23 21 19 20 22 24 28 28 27 25 25 27 29 33 35 35 36 40 44 42 43 42 40 41 42 44 42 40 40 41 41 38 38 42 46 50 55 60 64 68 72 76 81 83 80 80 79 79 77
22 21 16 17 19 24 29 26 21 24 27 30 34 34 27 29 30 34 37 33 33 35 34 31 33 39 39 39 41 41 40 41 45 47 51 56 59 62 66 72 76 81 84 88 82 79 79 79 83
25 24 22 25 26 28 28 27 25 27 31 31 34 35 28 25 25 29 32 31 26 26 29 32 35 38 42 40 43 45 45 47 50 53 57 62 66 70 77 79 82 86 92 90 83 80 83 87 92
26 25 22 24 29 27 25 30 29 32 34 32 31 30 29 27 26 23 23 25 26 28 32 34 36 39 43 45 46 50 52 56 58 60 64 68 74 78 85 86 89 93 96 89 86 88 91 95 102
30 26 25 23 28 27 31 27 30 32 28 29 27 27 28 28 24 24 25 28 31 34 36 36 35 42 47 51 55 56 58 62 62 66 70 76 82 86 88 90 93 99 94 90 90 94 98 104 110
30 29 28 26 28 32 34 34 27 29 30 25 27 28 26 26 27 28 30 32 34 36 38 41 42 46 50 54 58 60 63 66 69 74 79 83 87 87 89 92 97 98 93 94 95 99 105 111 116
31 33 32 31 31 35 30 26 28 31 28 27 27 25 26 28 30 31 32 34 37 39 43 45 47 50 54 58 61 63 66 70 74 80 83 85 85 87 91 97 99 96 96 97 102 107 111 114 114
33 36 37 32 30 29 32 28 30 30 29 29 25 27 29 31 32 35 36 38 39 42 45 49 51 53 55 59 64 66 70 73 76 80 81 83 88 90 98 101 99 97 98 102 109 114 114 114 113

GFSSGP_250_spd_048.txt.gz
Wind_Speed
61 67 71 76 81 84 88 88 90 89 87 85 87 88 89 87 83 84 83 79 76 75 73 72 73 73 73 74 71 69 70 67 63 64 67 68 70 71 75 76 77 75 74 74 72 71 73 72 72
57 62 66 70 74 79 85 88 91 88 87 87 89 88 88 88 87 84 85 77 73 70 67 69 71 74 75 75 73 70 67 67 66 67 71 74 75 75 75 74 76 74 67 71 71 75 69 64 58
56 58 63 68 70 76 84 85 89 85 84 86 88 91 89 87 88 86 85 79 71 66 61 65 68 74 75 77 76 75 70 66 68 70 75 75 75 72 72 72 70 69 75 73 69 65 60 64 61
50 53 55 63 71 81 77 77 77 80 81 80 83 85 85 86 89 89 85 76 62 59 58 61 64 72 76 77 73 69 70 68 70 67 68 68 70 68 66 67 68 72 73 62 62 64 64 67 65
42 50 51 59 71 68 68 70 73 76 65 67 72 73 76 80 82 81 69 56 49 38 42 46 56 60 63 67 68 74 72 67 60 61 65 65 59 62 65 62 63 64 62 64 64 68 72 73 71
34 42 48 55 59 57 62 58 58 51 58 63 64 59 62 66 64 61 42 29 22 30 49 41 52 58 61 65 66 70 64 61 64 70 62 57 59 60 62 65 67 64 65 67 64 68 69 73 75
30 35 41 48 51 49 52 54 39 52 42 49 55 55 51 54 48 42 34 30 20 35 43 35 48 49 51 56 60 62 62 63 60 65 56 55 59 66 62 62 63 63 62 67 63 75 77 80 76
27 34 38 45 45 45 39 31 38 48 47 59 48 47 50 48 44 39 35 47 48 49 63 52 55 59 62 61 46 57 58 56 50 49 55 57 62 58 59 60 59 63 62 73 77 72 71 77 75
28 36 44 47 34 29 21 29 44 51 53 49 37 42 42 39 36 35 33 45 58 65 64 58 48 57 56 39 51 42 42 40 52 56 58 60 60 54 52 61 65 68 65 67 75 78 80 77 85
32 38 42 32 26 27 29 34 44 45 43 36 17 18 28 29 28 30 32 38 47 75 74 66 53 59 60 62 61 54 47 51 56 67 60 62 61 64 67 67 73 74 79 82 90 90 91 93 88
35 40 33 31 22 21 29 35 42 45 44 31 22 14 20 27 26 21 28 38 42 51 76 66 66 65 64 65 66 56 54 60 61 69 66 66 71 73 69 73 78 83 89 93 90 92 89 82 86
38 34 31 23 17 22 30 38 42 50 39 41 41 27 27 25 21 18 26 36 42 43 46 66 53 51 51 63 65 63 57 61 63 60 65 69 72 70 74 82 84 88 91 88 89 85 89 87 85
37 34 28 23 23 26 34 44 46 42 40 34 38 28 25 22 12 26 26 29 41 39 43 38 38 36 39 49 53 56 64 61 67 63 70 73 77 79 82 83 82 87 82 78 81 79 82 84 87
21 20 24 24 28 33 36 52 44 42 42 31 30 34 32 25 28 25 26 28 38 40 38 38 46 54 52 58 61 61 64 69 73 76 73 77 80 84 87 84 83 84 78 81 80 85 83 82 84
23 21 21 22 28 28 35 52 46 43 36 30 24 36 43 39 33 34 30 28 37 49 53 56 64 65 64 62 63 64 65 68 71 76 75 68 70 80 81 79 79 84 86 85 90 91 86 78 75
18 19 24 30 29 32 32 47 56 44 49 37 36 33 30 38 38 31 31 31 38 47 57 54 50 55 61 65 63 69 75 75 76 66 75 75 75 76 77 74 81 86 93 88 83 78 70 72 75
23 26 29 32 32 28 28 43 43 44 40 42 35 41 35 38 40 35 36 36 38 43 51 49 46 50 57 60 61 56 58 65 69 68 72 74 73 75 80 83 80 80 78 70 67 65 63 64 66
30 26 30 31 26 22 21 22 28 33 36 37 39 38 35 36 42 42 43 39 41 42 46 50 43 37 42 52 54 59 61 65 65 71 71 71 74 77 76 76 74 65 62 59 58 60 65 68 71
28 25 25 21 16 16 16 20 23 29 31 36 41 38 34 37 44 45 37 34 35 39 40 40 38 43 47 54 53 55 58 59 62 68 71 76 76 73 72 65 61 60 55 56 58 63 67 72 76
22 25 24 17 18 18 16 19 25 31 35 38 38 34 35 32 30 39 41 40 30 35 35 43 45 50 51 49 53 57 57 58 61 66 67 65 65 63 61 59 58 56 59 62 65 68 72 76 80
18 21 21 19 19 16 17 24 25 29 30 29 31 31 31 29 25 28 31 35 38 41 39 42 49 55 55 52 52 54 59 58 57 59 60 58 58 58 55 56 57 59 63 68 70 74 78 80 85
21 24 21 18 19 20 21 21 24 26 28 30 31 31 34 34 31 32 34 37 36 37 38 43 46 47 49 51 48 52 54 54 52 54 54 56 56 55 58 58 62 65 71 75 78 82 83 86 90
25 22 18 16 21 23 26 27 23 26 29 34 31 33 34 37 34 35 35 38 42 42 42 44 45 46 47 49 48 48 47 47 50 54 56 56 56 58 62 64 67 70 74 79 84 84 86 91 94
24 23 23 22 28 30 23 25 25 27 28 31 31 30 31 34 37 39 40 42 40 40 40 36 40 42 42 42 42 44 46 50 53 55 58 60 62 66 68 70 72 76 80 83 85 86 90 94 98
25 21 20 23 26 26 26 26 23 25 28 26 27 27 33 36 37 34 33 31 32 34 35 35 32 36 38 42 44 48 50 53 57 59 62 63 65 68 71 71 74 78 82 84 86 90 92 98 98
22 24 25 26 24 23 24 22 21 25 28 32 31 27 27 28 31 31 30 30 29 29 29 29 34 39 42 46 48 50 51 53 57 61 64 66 70 72 71 74 75 78 82 87 91 94 98 102 97
23 25 23 25 28 25 19 24 28 28 28 31 32 26 21 25 29 29 29 28 29 29 29 33 38 43 46 48 51 52 54 56 60 63 65 66 68 70 73 77 79 82 88 93 95 97 104 103 100
26 25 24 25 30 29 27 28 31 29 30 30 27 29 27 27 28 29 29 31 31 31 31 38 42 44 46 49 51 54 57 60 62 65 67 70 73 74 75 80 84 91 95 98 101 102 108 105 104
26 29 30 29 33 36 31 31 32 31 26 25 28 30 30 29 27 28 31 33 35 36 38 39 41 44 47 51 54 57 60 64 67 71 75 76 75 77 81 87 90 95 97 101 105 108 107 106 109
22 28 29 29 32 36 36 35 32 29 27 26 30 32 30 28 27 29 32 34 37 40 42 42 45 48 52 56 58 61 65 68 70 75 77 76 78 83 89 93 96 97 100 107 110 107 107 112 116

GFSSGP_250_spd_051.txt.gz
Wind_Speed
51 56 58 60 62 64 71 84 90 90 88 87 90 86 85 85 84 82 80 78 79 79 78 75 75 73 72 71 71 71 72 72 73 73 70 71 72 73 68 73 73 76 75 75 73 73 70 72 70
45 53 55 59 61 63 71 78 83 89 88 86 88 87 86 85 87 86 83 79 79 76 76 72 70 68 66 69 71 73 73 73 74 71 71 71 73 72 72 75 77 79 77 76 73 71 69 68 66
39 47 53 57 63 67 70 70 71 76 76 80 83 86 85 85 87 86 83 81 79 76 73 67 60 62 62 67 71 73 75 74 75 73 72 72 73 72 74 76 77 75 70 72 72 69 68 67 66
34 40 49 57 62 64 64 64 66 72 70 72 74 79 82 83 84 82 83 78 73 62 51 50 51 55 62 67 66 65 70 76 78 75 76 72 68 72 73 74 68 70 75 70 65 62 60 58 61
33 34 39 50 57 55 56 58 62 67 65 64 69 74 75 76 74 77 72 65 43 34 38 41 46 51 49 52 58 63 64 67 66 66 68 68 70 65 65 68 70 75 68 64 61 64 65 64 63
31 31 34 43 43 46 47 50 53 57 52 56 61 66 69 69 70 66 65 54 40 37 39 39 37 41 52 56 55 53 55 62 67 65 62 64 61 63 62 64 68 63 61 63 67 60 60 60 59
27 28 31 32 36 37 39 43 44 40 44 52 58 62 63 59 63 61 54 41 33 16 24 37 44 44 50 53 59 51 48 48 54 56 54 48 54 53 58 59 60 65 66 62 58 63 61 62 62
27 27 31 27 29 29 30 26 29 36 42 41 51 54 47 53 57 54 45 33 35 22 44 51 57 49 50 45 43 44 52 50 54 50 53 48 54 60 58 60 64 69 66 69 57 65 67 70 72
26 28 29 31 23 24 23 27 32 38 40 38 31 36 34 33 41 37 42 42 41 52 66 67 58 65 59 49 39 49 45 51 45 50 48 49 52 51 49 58 65 63 61 63 65 69 74 77 80
24 27 28 27 22 22 25 31 38 44 44 44 37 36 30 33 30 31 36 46 55 61 69 64 74 63 58 59 52 51 52 57 60 50 50 52 55 58 56 60 61 65 68 72 76 79 79 79 84
21 24 21 19 23 24 26 28 35 43 50 50 47 36 24 25 25 33 34 42 51 65 66 67 71 64 59 58 58 59 49 58 57 61 63 63 60 58 62 70 75 74 73 76 78 79 85 87 91
23 21 21 20 24 23 26 27 29 48 55 55 47 38 22 18 25 32 34 33 46 57 71 74 70 68 65 61 59 55 59 64 67 68 68 62 67 65 64 73 70 75 75 80 80 86 87 88 83
16 22 22 19 24 23 20 25 32 45 47 53 43 34 26 25 28 37 38 36 38 47 66 70 69 73 73 67 59 54 59 55 56 52 57 61 66 69 76 74 78 83 84 81 84 89 89 83 85
9 18 24 20 21 26 28 24 31 36 47 45 44 41 27 23 32 33 37 32 27 34 47 49 51 51 57 52 61 50 57 57 55 61 55 63 66 72 77 79 79 86 84 85 89 85 81 85 83
7 22 28 23 25 27 20 25 29 39 45 45 53 44 34 28 21 29 31 31 29 28 42 49 48 52 53 50 56 57 55 55 54 59 66 71 74 75 74 83 82 81 82 87 86 87 81 73 64
11 13 14 26 23 20 22 26 30 45 46 44 41 44 38 38 33 30 32 33 28 31 30 45 59 56 55 54 55 59 62 57 61 65 68 65 70 77 79 79 84 86 86 80 76 73 67 69 67
15 17 16 18 20 19 21 26 27 41 41 44 39 39 43 42 43 38 38 34 33 32 32 38 44 53 56 58 63 62 62 62 66 67 65 61 64 69 74 77 80 79 80 79 79 75 71 67 65
15 15 13 18 22 21 20 23 29 35 39 35 38 40 44 45 46 41 37 37 41 35 35 38 44 52 55 58 58 55 48 56 53 56 65 64 70 74 73 76 78 78 75 69 67 67 68 67 66
11 13 16 22 23 18 13 15 23 27 31 43 39 37 40 47 45 38 39 45 39 40 43 41 45 47 48 51 50 56 55 60 56 61 61 67 67 71 70 70 67 67 65 66 68 70 68 69 71
18 17 15 19 16 13 12 13 15 21 33 34 42 50 49 48 45 41 41 42 45 43 43 40 36 40 45 50 50 49 50 54 56 61 62 66 67 65 63 63 64 64 67 69 71 72 73 75 79
20 16 18 15 14 15 15 17 19 22 23 30 33 35 39 39 36 28 24 22 30 39 40 43 43 44 45 45 50 52 55 60 62 57 58 60 57 58 60 63 65 68 72 73 74 75 79 80 82
16 15 16 17 16 18 19 18 20 21 24 28 31 31 32 32 36 39 39 37 32 31 33 37 41 41 43 47 48 51 52 53 53 52 52 51 55 58 62 67 70 73 75 77 77 79 80 82 83
19 16 17 19 16 20 19 17 17 22 24 28 31 33 36 39 42 43 42 43 42 41 43 46 47 48 49 51 49 50 47 45 45 47 51 54 59 63 67 71 74 75 76 79 80 80 79 80 82
17 18 19 19 19 19 19 22 21 24 24 24 27 31 33 33 40 43 44 46 45 45 47 48 46 43 38 37 41 42 42 43 47 51 54 58 63 66 69 71 70 71 71 74 77 80 79 82 87
15 19 20 23 23 19 22 22 20 22 26 24 25 29 32 32 35 38 38 39 46 46 44 38 32 29 31 33 37 43 45 48 52 55 58 62 66 67 68 70 71 75 77 80 77 78 82 85 91
16 19 21 24 23 21 21 24 23 26 27 26 28 29 31 32 36 37 36 37 35 36 33 29 26 27 30 38 45 48 51 54 57 59 60 63 65 68 70 74 76 77 77 78 82 85 87 92 94
15 18 18 22 20 17 18 22 27 27 26 25 25 32 38 38 38 35 34 31 31 32 28 26 25 33 36 45 49 52 55 57 57 59 61 64 67 71 75 76 76 76 78 82 86 90 92 95 101
13 14 19 20 24 22 18 25 26 26 28 30 28 31 35 33 29 31 31 31 29 27 26 29 34 39 44 50 53 56 54 54 58 61 63 67 72 74 73 75 76 80 84 89 92 94 99 104 103
20 18 19 21 24 24 23 26 29 30 29 32 33 29 29 28 29 30 31 31 29 25 30 37 40 42 46 49 50 51 54 58 60 62 65 69 72 70 76 81 83 87 90 94 98 104 104 101 104
21 19 21 23 24 25 25 27 29 32 34 32 30 29 29 28 31 34 33 30 27 33 36 38 41 45 45 44 49 55 57 60 62 66 66 67 73 79 83 85 88 90 94 101 105 103 103 106 112

GFSSGP_250_spd_054.txt.gz
Wind_Speed
57 51 52 53 52 58 63 68 75 85 83 79 84 83 84 85 83 81 80 80 78 77 75 74 71 69 69 69 70 71 70 68 68 67 68 70 71 72 73 75 75 76 76 76 78 77 76 74 77
55 47 45 50 48 55 62 66 71 72 77 73 73 60 68 63 80 85 73 81 82 78 76 75 72 68 66 65 68 68 65 67 66 66 68 69 72 73 75 74 74 75 74 77 77 78 76 72 70
52 44 40 45 50 52 54 59 64 66 65 66 76 71 62 67 67 70 71 75 78 77 75 72 69 64 65 66 66 64 62 60 64 67 66 68 72 73 75 76 76 76 77 76 74 74 74 71 70
45 40 38 40 44 47 51 55 60 65 68 66 66 69 70 77 77 68 67 68 72 70 63 60 58 57 58 61 59 62 59 63 69 70 68 70 72 74 75 74 75 77 75 72 71 67 67 65 60
42 39 35 36 35 42 46 49 53 56 63 65 65 55 66 75 77 75 74 66 47 39 31 31 38 56 57 61 56 58 65 71 67 60 62 66 68 66 67 69 71 67 69 66 61 61 56 59 61
42 37 34 32 31 35 40 44 49 50 53 56 53 59 56 67 64 66 62 52 46 23 25 18 40 46 44 45 47 47 46 51 57 58 59 61 62 63 65 64 66 66 55 53 53 55 60 59 64
43 36 32 29 25 31 34 37 41 45 44 45 50 53 52 55 58 59 64 59 43 33 27 27 37 52 44 45 45 50 52 54 59 56 57 56 55 57 62 62 54 47 49 57 61 63 64 69 70
42 33 27 23 20 22 28 31 35 38 39 44 47 46 48 51 53 52 54 48 47 41 44 56 42 49 44 45 55 47 50 53 50 54 57 53 61 54 46 47 50 57 61 60 65 63 63 62 60
37 27 23 19 19 21 24 28 31 34 38 42 41 38 43 39 48 48 46 40 38 41 46 54 55 53 56 54 56 56 53 58 56 49 50 54 58 57 57 56 63 54 62 63 58 65 68 72 71
31 21 12 15 17 16 24 26 26 35 38 41 38 39 33 38 40 37 36 32 38 46 57 49 51 63 69 69 68 71 73 68 64 52 48 50 51 54 58 61 60 57 63 66 61 68 69 75 75
30 16 13 11 15 18 23 21 23 32 36 42 44 37 24 32 28 26 26 31 46 60 57 57 64 71 76 69 70 71 68 71 65 61 56 60 59 59 62 66 66 68 55 64 66 76 72 78 75
28 16 14 9 15 21 22 23 23 36 41 45 43 33 31 28 21 22 22 40 53 64 59 63 70 68 71 73 73 68 65 66 67 65 51 56 64 64 66 60 61 63 69 68 71 75 78 83 82
18 14 14 13 12 21 22 19 23 39 44 47 42 31 34 24 26 21 30 39 48 61 71 64 72 70 65 66 73 69 61 62 62 66 64 66 61 49 55 58 59 61 66 70 75 78 80 83 86
12 12 12 15 12 20 17 16 21 28 42 50 45 34 33 28 24 22 28 37 40 57 71 70 68 73 70 72 68 67 62 64 61 61 63 63 58 60 65 65 68 68 74 78 78 82 85 84 87
10 4 18 17 12 16 15 19 17 25 42 49 38 46 34 40 29 23 27 35 38 46 55 65 69 68 69 71 68 71 74 71 63 59 58 66 61 61 65 68 71 74 74 75 78 77 78 83 80
4 2 15 13 11 10 11 16 18 24 44 53 50 48 38 35 32 30 30 33 40 41 41 44 36 57 74 66 71 67 60 71 67 61 63 64 64 70 71 70 75 78 76 78 77 77 78 78 75
4 4 6 2 5 9 11 13 15 23 35 57 55 48 48 35 31 27 26 36 34 34 37 34 36 37 39 45 62 71 65 68 66 67 65 66 70 66 69 66 69 72 72 76 75 74 76 72 71
2 4 5 7 8 9 10 13 14 17 31 39 48 47 47 44 35 36 32 30 31 31 35 35 31 36 35 36 38 44 50 57 60 64 65 68 70 67 65 71 70 72 72 72 72 71 69 71 73
8 9 7 6 10 12 9 13 16 16 31 33 33 35 42 47 43 37 37 35 32 29 31 31 37 36 36 40 45 47 47 57 61 64 60 60 63 70 67 66 68 67 66 66 65 67 70 73 76
8 7 5 5 8 8 11 10 15 19 30 34 30 31 35 36 39 41 38 37 39 36 39 42 46 46 44 44 45 47 47 49 54 59 59 61 65 64 65 68 65 64 62 64 68 70 74 76 78
7 8 7 6 7 6 10 13 18 21 23 26 27 31 31 31 36 39 40 44 39 35 30 35 38 35 43 43 44 47 49 52 53 53 55 58 60 59 60 61 60 60 64 67 71 74 75 75 76
6 10 7 8 10 11 13 11 10 14 18 21 21 25 30 40 44 41 42 45 43 42 39 35 30 31 39 40 39 42 47 49 48 50 54 53 53 55 55 59 62 65 68 69 72 75 77 80 80
6 8 10 13 14 14 12 12 11 16 18 18 20 25 29 30 31 34 36 36 38 44 41 42 46 42 43 46 48 53 58 58 56 53 50 50 50 54 59 63 67 69 70 72 73 75 79 80 79
4 11 14 16 16 15 14 12 14 13 15 17 18 22 28 33 33 34 36 37 44 47 48 48 48 53 52 53 55 53 45 49 49 46 48 51 54 59 66 69 69 69 72 73 75 76 76 78 81
5 10 15 19 17 14 15 14 15 17 16 17 21 25 27 30 31 32 34 36 37 40 42 44 43 47 52 49 43 37 39 45 45 50 52 56 61 66 68 69 68 69 71 73 73 77 80 83 84
11 7 12 17 15 14 19 19 15 18 17 20 22 24 28 31 33 34 35 36 37 41 44 43 42 39 34 28 30 34 42 44 49 54 58 61 67 65 67 68 67 68 69 72 76 82 84 86 87
16 11 13 14 15 15 18 22 19 19 20 21 23 25 27 30 34 36 40 42 38 37 35 35 33 32 26 25 32 39 45 49 57 62 62 63 63 65 66 67 68 70 74 79 85 86 88 89 93
15 12 12 15 13 14 17 20 23 21 21 22 26 30 32 35 40 42 42 40 34 32 32 33 32 29 24 29 37 46 53 59 61 62 58 62 64 65 66 68 71 76 82 86 88 89 92 95 99
16 17 16 14 17 16 19 24 24 25 23 27 31 34 34 37 39 35 32 31 31 31 32 33 32 28 28 34 41 48 55 59 57 58 62 64 66 69 70 71 78 84 88 90 91 94 96 100 105
22 17 17 19 18 19 20 25 26 26 28 31 33 36 38 32 31 33 34 34 32 31 31 31 30 31 31 39 43 49 56 58 60 66 67 69 72 74 75 78 83 87 90 92 95 97 101 106 109

GFSSGP_250_spd_057.txt.gz
Wind_Speed
81 77 69 61 55 50 52 53 55 61 65 72 75 74 82 77 78 81 80 79 80 77 74 75 75 76 72 70 68 67 67 69 68 69 70 69 70 72 71 72 74 73 74 75 76 77 77 76 78
83 75 67 60 51 47 48 50 49 51 60 69 75 70 71 70 65 73 75 80 79 79 76 76 76 73 70 69 67 66 67 69 66 67 67 68 69 70 70 71 73 74 75 76 77 76 77 77 75
79 69 64 54 45 44 46 47 47 48 54 65 68 59 62 51 71 50 50 65 76 71 74 75 72 71 68 67 68 66 67 66 65 65 65 67 66 67 67 68 71 72 73 76 77 76 77 76 75
74 66 55 47 42 42 44 45 46 45 52 59 66 65 49 55 56 72 62 53 56 59 51 56 59 62 62 62 64 64 64 64 64 66 64 66 66 68 68 71 74 73 73 76 74 73 67 66 68
70 60 48 43 37 36 36 39 43 44 50 55 63 64 53 40 50 51 47 44 29 16 36 42 47 55 47 45 47 48 48 55 62 63 66 66 67 69 69 69 69 69 67 68 67 64 62 62 59
67 52 45 41 35 30 29 30 38 43 49 55 63 67 65 66 57 50 46 38 43 41 28 26 26 18 29 34 40 42 38 46 51 55 58 60 54 56 58 63 65 66 64 63 61 60 60 54 56
60 50 43 36 27 26 24 26 33 41 46 53 54 58 58 55 65 64 58 53 40 51 42 37 20 16 29 39 44 38 37 45 49 51 56 53 56 58 60 59 60 63 60 64 63 57 55 59 60
56 47 37 27 21 20 20 24 31 40 45 53 53 56 58 58 54 50 54 59 57 41 41 37 32 44 37 51 55 46 38 48 51 49 56 62 64 65 66 65 63 56 49 46 52 58 59 60 62
52 41 31 22 17 14 17 22 29 33 41 47 50 52 53 58 55 52 48 48 56 49 42 47 57 52 53 65 65 56 52 54 55 53 56 52 53 56 61 60 54 58 59 53 58 56 60 69 67
49 36 28 20 17 12 15 21 26 31 36 40 46 47 48 46 50 54 48 40 40 49 49 54 62 64 63 68 73 65 63 63 60 54 57 58 57 58 59 62 56 55 59 60 63 62 63 67 65
48 31 24 21 14 12 18 18 25 26 34 40 42 39 42 43 45 42 43 45 42 45 52 59 66 70 68 71 77 70 70 73 68 60 65 63 59 57 57 64 67 67 58 62 63 54 56 63 70
43 29 17 17 13 15 15 18 21 24 34 40 42 41 36 35 48 40 30 32 34 35 52 68 70 73 72 77 80 75 74 72 75 71 68 71 70 67 67 63 65 64 72 65 61 61 63 66 70
36 22 17 12 10 14 15 19 22 21 34 42 46 46 38 28 30 31 31 35 33 43 56 64 74 76 75 74 73 74 75 75 74 71 71 63 66 65 69 73 72 66 59 63 67 71 76 77 77
32 21 16 10 11 12 17 19 21 24 30 42 44 42 31 24 22 27 31 38 40 50 58 62 77 75 73 77 76 75 69 70 66 66 71 72 68 72 60 62 60 60 61 67 71 76 76 77 76
30 20 9 13 9 11 13 15 16 17 30 40 47 40 32 31 24 22 26 23 26 39 51 56 69 73 75 68 69 71 67 73 67 69 69 65 58 53 54 56 59 63 69 69 74 74 76 76 74
26 18 11 3 7 3 6 12 13 18 22 38 43 39 32 29 26 26 29 26 28 36 48 64 66 65 66 70 72 75 73 72 71 69 72 70 75 70 73 68 73 67 73 71 71 67 74 75 77
21 11 6 3 2 1 3 6 11 16 19 32 42 44 40 32 30 31 32 29 27 36 45 48 56 56 67 68 55 69 79 79 73 66 65 63 65 67 68 64 68 72 73 76 73 75 75 78 75
18 10 3 3 4 3 1 5 11 15 22 27 41 46 40 41 38 28 27 35 36 32 32 36 41 50 51 61 64 52 61 59 48 48 49 55 55 62 66 65 68 67 67 70 72 73 69 70 67
12 11 8 3 2 6 4 7 11 11 13 20 35 49 44 40 39 36 28 29 31 30 28 25 30 28 36 37 45 44 45 43 45 49 50 56 56 58 60 64 68 71 72 72 73 68 66 65 68
7 7 4 5 5 2 7 13 12 10 12 16 21 35 42 45 41 44 38 34 33 29 28 26 30 31 31 36 40 44 48 49 49 48 49 53 53 56 60 64 66 67 69 67 66 63 65 69 72
11 6 7 5 2 10 9 8 12 14 12 15 22 28 32 34 34 34 41 38 37 36 34 37 38 41 38 44 41 45 49 46 48 48 50 53 57 58 59 61 62 64 62 61 61 65 69 72 73
20 5 10 6 7 6 8 8 10 11 13 15 18 20 20 23 24 23 29 33 38 39 40 42 38 39 39 35 31 32 34 42 43 45 46 53 57 57 61 58 56 56 59 62 67 70 71 74 76
23 12 11 9 8 9 11 11 11 9 9 13 19 21 20 23 25 30 36 36 39 39 38 38 40 42 43 44 45 48 53 53 54 51 55 60 59 56 51 53 56 60 65 69 73 73 73 74 75
20 17 14 11 11 14 13 13 13 13 10 12 14 16 18 20 23 25 26 28 31 34 35 35 42 43 45 49 52 53 52 53 53 53 54 49 49 49 53 57 62 67 73 76 75 75 75 73 72
22 19 13 14 13 16 16 14 11 13 13 12 13 15 18 19 18 21 24 27 33 38 39 38 37 40 42 44 46 46 45 41 38 41 43 46 49 53 57 62 68 73 74 74 75 74 74 75 77
22 16 13 12 14 18 17 16 12 15 17 17 17 20 21 22 23 24 24 27 29 32 35 37 39 42 44 42 40 36 33 37 38 38 44 52 54 58 64 68 68 71 74 74 73 75 78 82 86
32 16 14 14 15 17 19 22 20 18 17 17 19 21 22 23 23 22 25 28 30 34 39 41 44 42 36 34 33 35 34 37 39 44 53 58 62 64 66 66 73 75 73 73 77 77 82 87 90
36 19 15 14 17 19 18 22 22 17 19 22 24 26 26 28 29 29 32 35 35 37 39 38 37 35 33 33 34 33 34 37 44 52 57 64 63 65 65 74 77 78 77 76 80 81 87 90 93
37 33 19 16 20 19 20 20 20 19 21 23 25 27 27 30 33 36 38 37 38 35 33 32 33 33 34 34 32 33 36 39 45 53 60 66 65 68 73 78 79 82 83 83 84 86 90 93 96
40 35 28 20 21 23 25 27 21 18 21 27 30 31 32 35 38 39 41 41 35 31 31 32 33 35 35 33 32 35 35 43 48 56 64 63 66 73 79 79 83 86 87 90 91 91 93 97 100

GFSSGP_250_spd_060.txt.gz
Wind_Speed
65 62 65 74 73 66 62 54 48 47 49 52 58 60 64 73 77 74 75 79 79 76 77 76 77 76 77 77 79 76 73 70 68 68 68 71 71 73 73 74 74 76 77 77 76 76 74 74 75
69 64 71 72 71 65 60 50 45 45 48 50 54 57 62 71 72 69 73 75 74 72 74 76 78 77 79 78 76 74 72 71 69 69 72 71 72 74 75 73 73 74 75 77 76 73 73 74 76
71 68 74 72 67 61 55 47 43 45 46 50 52 57 63 68 62 62 68 63 67 71 61 63 75 75 76 75 75 74 72 71 70 73 71 74 74 75 74 74 73 72 73 74 72 71 74 73 75
71 76 75 72 62 56 49 43 43 43 44 49 50 52 60 59 64 63 64 60 53 41 56 41 46 60 75 75 75 73 72 71 71 71 71 69 69 71 72 72 74 73 75 74 69 69 73 73 73
76 78 79 66 57 52 45 39 39 39 40 46 50 52 52 55 58 52 59 64 20 12 21 41 48 57 62 64 68 69 64 59 60 61 61 64 68 67 66 67 68 68 70 68 69 69 72 71 68
76 77 75 59 53 46 39 35 33 35 35 43 49 50 52 57 54 43 52 48 36 39 47 27 38 36 37 41 44 39 34 32 34 43 49 50 54 53 57 58 54 57 61 62 64 66 67 66 67
77 77 65 54 50 40 35 31 30 31 32 39 47 49 50 51 52 48 38 56 54 58 58 49 41 28 14 17 23 23 29 32 37 42 45 49 51 54 52 49 53 54 57 61 62 65 65 65 60
78 76 61 52 47 37 31 28 26 28 34 39 44 46 50 51 50 47 39 54 64 72 60 49 51 32 28 37 29 37 30 45 50 49 48 52 52 52 54 55 58 61 63 65 66 68 64 62 59
78 69 56 47 42 33 28 24 20 26 29 36 46 49 57 53 53 49 45 55 80 78 62 60 54 45 48 48 51 49 55 55 66 54 52 56 55 53 51 55 59 64 63 58 57 54 55 55 62
72 60 51 41 33 26 22 19 20 23 28 40 52 55 62 53 59 61 60 64 70 72 64 62 62 53 53 51 58 68 60 52 62 58 57 55 59 58 54 54 51 51 56 55 55 52 55 60 64
69 55 48 33 23 23 20 19 21 29 32 37 44 47 56 59 60 65 60 69 71 69 62 54 54 55 56 61 68 67 64 61 60 62 66 64 61 58 58 61 61 60 61 57 59 60 72 71 75
63 53 45 27 23 22 16 18 20 27 31 34 41 53 54 55 59 53 56 57 57 71 66 70 51 56 62 68 69 69 70 67 68 66 64 67 69 69 66 60 64 64 65 72 66 65 68 69 63
55 51 40 26 21 15 16 19 20 27 33 37 38 41 47 49 55 60 62 53 48 53 56 54 62 64 64 70 72 67 73 69 71 71 68 66 63 63 65 69 67 69 63 68 71 64 58 64 62
52 47 34 20 14 11 16 16 18 22 27 37 41 43 50 51 50 52 52 52 52 49 47 53 67 67 66 71 71 66 72 70 66 63 70 71 73 67 70 67 69 73 72 54 65 59 67 67 70
48 43 29 12 6 4 13 13 18 21 29 38 44 47 45 41 42 41 39 33 33 42 47 55 64 71 70 70 73 71 71 71 75 78 71 69 71 73 69 75 71 75 71 70 72 70 73 74 73
44 36 24 3 7 8 7 10 14 18 33 38 44 49 44 34 26 31 33 38 45 48 50 54 64 68 73 75 78 72 78 80 76 73 71 70 71 71 72 65 64 69 68 67 72 77 70 74 71
41 30 17 3 4 4 7 15 18 21 27 30 40 44 41 31 28 29 23 22 23 30 38 48 55 55 65 73 82 78 76 72 73 73 71 75 72 70 66 69 70 65 74 67 71 73 71 71 75
36 28 11 5 2 2 4 9 11 17 28 32 40 43 41 34 33 26 25 27 26 28 27 35 44 45 41 42 53 65 78 77 72 73 75 72 68 63 66 74 67 68 62 65 66 67 68 72 71
32 27 9 6 2 5 4 7 10 11 17 23 30 41 42 37 31 31 26 30 33 30 27 28 28 37 48 46 44 52 53 67 55 72 68 59 61 62 66 66 60 66 68 70 65 67 68 69 70
32 27 16 3 6 4 9 9 10 11 11 17 21 35 43 43 37 34 34 26 29 32 32 32 31 31 30 32 35 42 48 47 43 50 51 53 57 62 62 60 62 64 63 63 68 70 70 65 64
34 27 17 6 4 7 11 11 11 10 10 10 14 24 38 42 43 39 42 39 30 32 34 33 32 32 30 34 34 36 39 42 47 49 49 51 50 52 58 59 59 60 63 66 69 67 62 62 66
34 25 21 5 7 9 11 11 12 15 12 7 7 10 20 37 42 30 34 39 42 42 37 38 38 36 36 39 40 42 42 46 48 44 44 46 48 54 59 56 60 64 66 64 64 60 64 67 70
41 22 22 12 10 13 12 11 10 9 9 11 12 13 14 17 22 27 29 30 35 36 36 39 43 42 43 43 43 46 48 46 46 51 53 54 55 58 59 60 63 64 62 60 59 65 68 73 77
39 27 19 16 14 15 13 12 12 12 10 9 13 16 18 20 21 23 26 28 30 32 36 37 39 42 40 40 41 44 45 47 50 53 52 52 54 56 57 58 60 59 58 61 65 69 73 75 79
35 31 17 16 17 17 15 13 13 14 14 14 14 16 15 16 19 20 22 25 27 30 34 36 37 36 37 41 44 44 44 46 47 47 47 48 49 49 49 55 57 60 64 69 73 73 72 81 85
30 35 21 16 14 20 20 19 18 16 15 15 19 19 20 22 23 23 26 31 32 33 35 36 37 38 41 41 42 45 46 45 42 39 39 48 49 46 48 55 61 63 69 74 74 77 80 84 88
31 33 25 19 19 21 23 22 17 20 19 19 20 21 22 20 22 25 27 30 32 33 34 36 37 38 41 45 45 44 36 39 42 40 44 48 48 48 58 64 66 68 71 74 76 80 85 89 88
32 31 31 22 20 22 25 27 23 23 20 19 21 22 23 23 23 25 28 29 31 32 35 37 38 40 42 40 39 38 38 40 42 45 46 43 49 57 62 65 69 72 74 78 80 86 89 89 91
33 31 30 30 23 20 26 30 26 25 22 21 22 22 24 25 26 28 29 32 34 35 36 38 40 38 37 37 37 39 40 42 43 46 44 47 53 59 65 69 73 76 80 80 84 90 91 93 95
32 31 30 34 32 21 27 31 30 27 26 27 28 28 28 29 31 33 36 37 37 40 41 38 34 35 36 38 39 42 43 44 46 46 47 49 57 62 64 75 72 74 78 85 92 94 94 95 98

GFSSGP_250_spd_063.txt.gz
Wind_Speed
68 65 66 66 61 62 69 71 67 65 59 50 51 56 53 55 48 28 22 71 64 74 80 82 79 80 80 78 80 79 78 77 77 78 76 76 75 76 76 76 76 75 75 76 77 79 78 78 79
66 63 68 67 63 68 73 70 63 59 51 43 58 52 48 50 49 58 62 77 68 72 69 73 76 76 74 76 79 78 77 76 77 77 78 78 77 78 77 79 78 77 78 77 79 79 80 79 78
65 66 73 63 66 70 72 65 60 51 48 45 45 46 44 50 57 66 66 67 52 54 54 58 68 69 69 73 74 75 75 76 78 79 79 80 78 77 79 80 79 80 79 79 79 81 78 78 74
65 65 72 71 71 75 68 62 56 49 43 44 43 42 41 48 55 63 72 61 40 40 25 23 35 55 56 56 66 71 76 78 77 78 79 78 77 77 78 79 79 78 80 75 74 78 76 71 66
63 69 70 69 72 69 65 57 51 46 37 46 37 22 41 45 48 56 68 74 56 35 21 36 33 34 40 54 50 55 61 69 72 70 70 68 70 74 74 74 74 74 75 74 67 68 67 62 65
65 70 71 69 70 67 61 54 46 42 37 33 28 31 39 43 48 49 49 55 40 46 40 38 39 38 40 43 47 48 55 58 63 61 58 57 54 55 57 59 58 57 57 55 56 58 56 59 61
67 73 67 68 67 62 57 50 41 36 33 24 26 34 37 44 47 33 42 35 49 56 49 42 53 52 52 41 26 27 31 33 37 40 39 39 44 46 45 52 50 52 51 53 53 57 59 59 62
69 67 67 68 60 57 49 40 35 32 30 28 28 31 40 43 31 41 40 46 65 60 57 47 51 52 50 52 28 34 31 26 26 26 29 44 46 51 52 54 56 56 54 53 59 58 59 61 65
68 65 69 62 56 51 39 32 31 29 25 23 25 34 43 29 38 45 44 46 64 61 62 58 56 60 66 54 45 48 55 53 43 34 35 43 39 42 48 54 54 61 58 63 60 63 66 65 58
64 66 69 58 55 41 31 29 26 22 17 19 23 38 53 36 41 47 46 56 68 70 70 60 65 64 63 56 50 50 52 54 48 42 43 47 37 43 42 46 51 55 54 57 63 59 64 57 60
61 69 68 57 51 35 26 27 24 4 33 23 26 41 51 44 48 50 52 57 68 72 69 63 67 63 62 53 54 52 55 54 55 58 51 53 54 52 60 59 54 52 59 68 67 62 60 68 68
62 67 64 55 44 31 26 23 18 14 31 34 37 44 55 51 52 55 54 63 69 74 70 65 66 62 59 59 58 55 53 61 60 61 62 55 58 63 64 65 68 63 64 64 63 61 63 67 70
62 64 57 49 37 27 17 13 11 12 25 40 42 47 54 60 54 59 59 67 78 78 77 68 67 63 57 62 58 58 58 62 62 65 63 65 62 65 58 59 57 53 54 60 63 62 68 68 70
61 62 52 43 29 18 5 9 6 11 21 31 42 46 59 59 55 61 65 66 82 83 81 77 72 69 66 63 59 60 62 64 66 66 71 68 67 66 63 67 60 59 58 64 68 67 63 67 70
58 59 45 36 21 9 15 15 21 7 11 25 30 41 61 60 58 59 67 68 68 80 78 74 79 69 62 66 63 60 67 68 65 72 67 69 71 68 71 67 60 64 65 62 62 76 71 68 68
54 55 39 26 13 7 26 19 25 27 15 23 31 37 52 64 63 60 61 66 67 64 63 70 73 70 69 65 69 72 68 67 65 73 67 69 74 69 64 64 65 70 69 70 74 71 70 73 73
51 50 35 25 10 4 12 24 26 20 22 26 33 40 42 49 55 54 52 51 49 53 58 66 72 68 68 65 73 74 76 77 71 74 67 72 73 75 73 72 71 70 77 75 76 64 71 69 80
48 44 32 26 7 2 6 11 21 15 22 31 31 39 46 39 49 38 32 29 40 42 45 48 54 63 69 68 67 74 75 82 77 74 73 72 75 81 84 80 79 79 76 71 69 79 79 74 76
43 43 26 21 9 8 7 11 20 19 26 35 39 45 41 40 32 31 30 26 32 37 35 39 43 45 48 51 47 42 38 45 61 55 63 55 64 67 73 70 70 63 61 66 72 74 75 69 64
41 42 26 17 11 11 14 14 13 12 14 27 37 41 40 41 38 34 31 27 32 32 34 32 37 33 34 38 50 52 47 46 42 46 45 46 43 51 56 63 64 69 58 62 67 65 66 66 67
40 41 29 17 12 13 16 15 12 13 8 11 15 22 33 39 44 35 36 33 30 30 31 32 33 34 31 31 31 35 36 39 40 42 43 46 52 52 56 60 58 57 59 65 66 65 68 71 72
36 38 30 18 13 14 11 13 19 14 13 10 9 12 22 36 44 40 41 39 39 31 37 35 35 32 34 33 36 35 38 41 43 44 48 49 51 53 56 59 65 67 64 67 69 69 70 71 67
31 31 36 15 12 16 13 13 11 10 7 6 7 7 12 35 45 40 47 46 43 43 45 43 41 40 38 42 44 41 38 43 46 49 49 53 57 57 59 59 61 64 65 68 70 68 68 69 70
29 31 33 24 13 14 17 15 10 10 9 9 10 12 13 16 21 26 31 36 39 39 43 45 45 44 44 42 45 47 47 47 49 50 49 51 54 54 56 58 60 62 64 64 64 65 67 71 73
27 28 33 31 15 13 17 18 15 13 15 15 13 17 18 20 22 23 24 26 32 35 34 34 37 38 40 41 42 44 45 45 46 48 49 50 51 53 57 59 60 58 61 62 63 67 71 75 77
27 30 30 32 20 16 14 21 21 19 16 16 17 19 19 21 22 24 25 28 30 32 34 35 36 39 42 43 42 43 45 46 48 48 50 53 55 53 56 56 54 59 58 65 70 72 78 80 81
26 28 28 28 28 19 15 15 23 24 21 20 21 21 23 25 26 28 29 31 33 35 37 39 39 39 40 41 42 45 47 48 49 52 54 52 52 54 58 58 59 59 48 62 72 78 81 82 83
24 27 27 26 27 28 16 13 17 28 25 25 25 26 28 29 29 29 28 31 33 36 36 37 38 38 39 41 45 47 49 48 46 47 50 51 54 56 58 58 61 62 64 71 78 80 81 85 88
25 27 28 28 28 32 22 16 17 22 28 30 30 29 29 29 30 30 30 29 30 32 33 35 38 41 42 45 46 50 44 43 43 46 48 51 56 60 61 63 63 66 70 75 77 81 86 88 90
27 27 30 30 30 31 26 26 16 15 25 31 32 30 32 34 33 35 34 35 35 36 37 39 41 44 47 45 43 44 46 48 47 48 50 55 59 63 65 65 67 67 70 76 80 83 87 91 94

GFSSGP_250_spd_066.txt.gz
Wind_Speed
65 67 66 68 68 67 61 63 66 61 65 62 60 58 54 46 38 33 22 30 21 18 55 62 64 74 80 85 86 86 84 83 83 84 82 82 81 79 79 78 78 78 77 77 78 79 80 80 81
66 64 64 66 64 60 63 65 67 58 62 53 45 47 42 30 23 19 52 49 48 29 54 61 55 63 71 77 80 78 78 80 80 80 80 80 79 79 79 81 80 80 80 80 81 81 83 83 82
61 61 60 61 61 59 60 67 62 59 59 43 34 33 28 26 17 46 68 58 51 40 36 38 50 47 59 68 72 72 70 74 79 80 79 79 81 81 81 81 81 80 80 81 80 81 83 83 83
60 59 63 65 60 66 65 62 58 54 49 36 20 8 14 18 17 56 77 66 55 27 22 21 32 28 23 32 53 68 66 68 70 76 78 79 80 78 80 80 81 80 79 81 81 81 83 83 81
58 59 62 61 63 66 64 61 51 48 32 13 9 12 12 21 19 60 64 63 41 31 21 19 11 13 28 20 27 41 48 57 62 66 68 70 75 73 76 76 77 78 78 76 77 80 80 79 77
55 54 61 60 66 68 65 61 46 37 20 10 14 11 17 29 31 41 70 72 50 37 34 35 30 25 32 38 40 40 42 41 46 55 58 58 63 63 62 67 71 69 61 59 60 64 67 69 68
57 59 58 61 63 66 63 53 43 28 17 28 26 31 10 26 33 28 64 77 59 43 54 41 43 50 36 30 48 51 47 49 39 44 42 43 52 46 49 51 52 55 54 52 50 55 57 60 60
55 57 58 59 62 58 55 45 33 16 6 25 29 42 36 49 41 44 57 78 67 54 56 51 51 47 58 52 60 47 56 37 21 26 32 27 32 35 40 44 45 44 48 51 53 54 58 59 62
56 57 58 59 59 55 51 36 15 10 7 12 10 30 40 38 25 32 49 60 73 73 58 55 48 63 62 62 58 66 56 51 40 44 33 29 23 30 39 39 44 49 48 48 51 50 54 57 60
52 56 55 60 60 55 49 33 21 23 23 24 14 10 42 36 34 37 38 45 64 79 71 62 55 59 68 67 70 60 63 55 51 52 36 30 32 41 44 49 45 42 49 48 52 57 60 67 66
51 54 55 59 62 53 44 27 12 18 21 9 12 18 39 42 45 47 48 50 62 74 78 68 57 53 58 60 63 67 67 67 58 50 44 42 38 37 45 49 45 46 50 50 54 63 65 63 60
53 52 57 60 57 49 33 16 5 19 11 5 17 24 20 46 41 49 44 56 58 71 76 69 61 56 53 57 64 63 64 62 56 55 51 48 47 46 46 50 55 59 60 58 61 59 56 57 59
51 50 56 62 53 36 12 14 34 28 30 21 28 42 36 48 46 47 51 56 63 71 74 65 64 56 55 56 55 63 62 57 56 56 53 53 51 52 51 59 60 62 66 64 64 64 64 64 62
47 49 54 59 48 30 13 33 32 40 23 58 35 41 54 49 49 57 60 59 62 67 74 66 64 58 60 59 60 61 60 60 57 56 50 49 54 58 60 62 62 65 69 75 73 71 70 68 66
43 48 51 54 39 14 9 22 3 10 19 30 34 30 33 57 55 61 55 58 64 67 74 64 63 58 58 60 62 61 56 60 58 56 56 54 57 62 65 69 70 70 69 68 63 64 65 65 64
42 45 48 54 34 9 4 14 8 5 7 26 34 24 33 57 55 59 59 59 65 69 74 70 69 62 62 65 61 60 60 60 58 62 59 57 61 61 61 64 63 67 70 72 65 61 68 71 74
41 45 50 51 36 16 11 15 4 7 16 24 30 29 31 60 59 58 57 59 60 63 69 69 67 66 63 65 69 63 65 64 64 62 62 61 61 67 66 67 66 68 68 74 77 78 69 73 83
39 42 49 45 30 15 12 12 14 9 14 29 25 28 32 42 58 57 56 59 60 59 60 67 68 68 70 67 68 70 64 64 69 71 69 69 70 69 76 76 71 69 74 75 75 74 81 85 74
39 42 46 42 25 16 15 16 25 19 29 25 25 26 29 41 52 51 55 57 56 58 61 60 59 65 63 66 68 67 66 68 62 69 65 65 68 69 65 67 60 64 63 62 63 70 74 79 79
37 38 43 40 30 14 17 20 23 20 22 26 24 29 24 32 38 58 55 57 50 54 63 61 61 63 65 64 66 63 57 64 58 43 47 47 51 50 52 54 55 53 55 63 62 64 68 72 71
35 38 37 34 33 18 15 18 24 17 12 9 13 28 30 25 36 32 33 36 41 33 37 54 54 51 53 56 51 46 45 45 44 52 54 52 51 56 54 52 53 54 57 58 60 67 67 66 65
35 37 34 33 32 19 16 15 15 16 15 11 12 10 18 30 36 36 31 36 33 33 37 35 40 47 45 42 42 43 41 42 41 41 46 47 46 50 53 56 57 61 60 59 63 64 64 69 71
33 35 35 33 33 20 16 15 13 12 16 18 11 7 8 16 15 30 42 42 39 37 34 38 38 37 36 36 37 38 39 41 45 43 45 50 52 56 59 64 62 63 62 65 65 65 67 70 71
32 33 33 29 28 25 18 15 11 13 12 12 11 10 9 11 24 32 35 51 44 43 45 44 41 40 43 43 44 46 47 48 49 50 50 53 55 57 60 62 61 62 63 63 66 68 64 64 61
32 34 32 24 25 25 22 15 15 17 16 18 17 13 16 16 19 21 23 39 39 43 50 51 50 44 43 44 45 45 46 48 50 49 49 52 53 56 58 64 68 61 64 67 68 67 67 67 65
34 35 30 23 26 27 27 18 11 17 19 21 22 22 21 18 21 24 25 26 27 33 38 39 40 42 45 43 41 42 43 46 50 52 53 53 55 58 61 59 63 67 70 67 65 64 63 61 68
32 34 30 21 21 24 29 23 19 16 20 24 23 19 18 21 22 26 29 30 31 33 35 37 39 41 42 43 44 46 48 48 48 49 49 53 57 57 60 63 64 67 67 65 66 67 69 72 76
34 36 31 24 22 22 25 19 19 19 22 20 24 26 27 26 28 29 32 34 35 36 37 39 40 41 42 44 45 43 44 43 46 47 47 44 47 53 56 57 61 63 64 67 69 72 74 79 80
38 38 33 27 22 20 23 26 24 22 18 23 22 28 30 31 35 33 33 32 36 35 35 37 37 38 39 40 41 43 47 43 43 42 42 49 55 56 60 62 63 65 68 70 72 74 78 81 86
41 39 35 30 24 20 22 24 25 25 20 18 21 26 28 30 32 35 34 34 33 38 38 37 40 40 40 42 41 40 45 34 42 56 57 58 58 60 62 63 64 65 67 73 77 79 81 86 90

GFSSGP_250_spd_069.txt.gz
Wind_Speed
66 69 70 67 68 64 63 57 57 61 65 63 61 55 51 48 44 41 31 30 28 36 24 18 31 48 49 49 53 50 59 76 85 86 84 84 84 84 83 82 80 79 77 77 77 77 77 77 78
69 68 69 67 63 62 57 59 58 64 63 59 55 49 45 29 29 20 14 27 40 49 40 47 34 41 44 44 51 55 62 65 77 79 79 80 80 81 82 82 81 80 80 79 79 79 80 80 81
63 62 60 57 55 52 54 54 59 61 62 53 47 39 24 22 16 21 7 27 42 52 53 55 47 30 36 41 52 53 48 56 64 71 73 74 77 78 80 81 81 81 81 80 80 81 81 82 83
57 52 52 51 50 53 50 58 59 57 55 49 41 30 27 34 31 22 16 41 52 54 58 56 33 23 23 14 20 24 26 36 46 56 63 66 68 68 74 77 79 80 78 80 82 82 82 82 81
51 48 51 49 48 48 54 58 57 56 50 39 34 23 32 36 34 30 37 48 57 52 46 47 30 9 34 25 28 31 22 20 24 36 49 58 64 61 66 68 73 74 75 77 77 81 80 79 77
47 48 47 47 46 52 56 59 57 52 38 30 23 27 31 31 35 31 38 46 60 52 40 56 51 55 48 39 53 43 36 38 40 32 32 42 49 54 60 62 58 60 67 70 73 74 75 75 72
46 46 46 47 48 52 55 57 51 45 25 27 17 16 24 34 36 38 58 48 65 52 42 56 54 34 35 51 40 44 41 42 39 40 37 45 44 44 44 53 58 52 51 59 61 62 64 61 61
41 46 49 47 47 55 56 54 43 32 20 31 24 22 19 25 39 35 40 58 66 55 55 59 56 48 53 60 47 34 45 38 41 45 45 49 35 45 39 44 43 41 42 47 52 53 59 58 55
39 45 49 48 52 53 53 48 30 22 21 41 36 32 37 35 40 33 33 48 62 54 55 62 58 55 62 65 61 51 52 48 46 50 47 45 28 29 36 33 35 39 43 49 50 51 49 50 52
41 46 46 50 50 52 52 41 20 22 23 34 46 43 45 46 40 36 36 40 67 61 66 60 60 55 62 64 68 66 58 49 50 51 56 53 33 31 34 31 37 35 39 49 46 48 49 51 51
41 44 47 52 49 50 48 30 17 22 27 38 37 44 45 49 38 38 40 39 61 67 64 61 64 57 68 73 73 64 59 60 59 64 67 55 44 34 34 41 44 41 47 42 44 47 43 50 52
41 41 47 48 49 49 32 12 20 27 7 2 13 13 17 30 45 43 43 40 49 65 65 62 63 64 72 64 57 64 64 54 61 60 60 61 57 44 49 41 44 47 47 49 48 49 55 57 60
39 42 47 45 48 47 19 9 35 13 12 4 13 19 11 19 26 38 44 43 67 71 74 71 65 62 73 73 61 63 61 69 60 65 64 61 64 57 55 52 50 52 53 51 53 56 61 62 64
39 41 43 42 45 45 15 10 29 18 6 10 15 23 33 26 27 37 41 39 51 64 80 80 74 67 64 76 71 67 68 63 61 59 59 61 61 64 64 57 53 51 57 57 57 62 64 67 68
38 42 40 41 46 45 21 21 33 20 12 12 10 18 26 25 33 35 43 46 48 58 70 83 81 78 70 74 76 74 73 64 60 60 61 59 59 61 58 56 57 57 56 58 59 61 61 66 68
37 39 38 39 46 46 23 21 31 15 12 16 5 21 25 32 23 32 45 54 56 57 58 70 74 65 67 72 75 74 70 66 63 61 62 63 61 59 57 60 59 61 62 63 64 63 68 69 68
38 37 35 43 44 41 25 17 36 21 12 12 14 19 34 29 18 38 43 55 59 60 61 62 67 63 62 66 66 64 62 60 66 60 65 64 63 61 61 60 59 62 62 63 68 68 68 66 63
34 32 34 35 43 39 25 22 11 24 22 15 13 19 32 29 24 32 48 50 56 56 59 63 64 71 64 65 66 63 63 63 68 67 61 66 65 65 65 65 70 68 71 68 66 66 68 73 72
33 29 37 36 41 41 30 19 21 17 27 14 20 19 28 41 28 31 48 48 54 58 60 63 64 62 67 67 65 64 64 60 64 69 67 65 65 69 70 73 72 73 67 70 67 63 62 70 72
33 32 35 36 38 38 33 18 19 17 12 24 23 22 32 29 30 38 48 54 57 55 55 56 57 59 61 69 67 66 66 68 65 68 69 72 64 67 56 53 58 61 56 57 58 58 60 61 63
30 30 35 34 38 34 30 24 14 14 13 20 25 19 20 28 27 25 47 51 55 55 52 52 54 55 57 58 64 64 65 68 68 68 63 62 60 61 59 63 61 58 62 58 60 62 65 68 71
28 30 35 33 35 35 31 23 10 9 12 9 14 10 8 18 30 18 20 30 53 55 56 54 56 53 54 55 58 65 57 57 57 53 55 51 46 41 47 51 54 57 60 65 66 72 72 74 74
27 28 34 28 33 33 27 26 17 11 10 7 11 13 8 12 17 26 20 25 30 49 55 59 58 54 47 46 47 50 52 46 45 44 46 42 42 48 53 54 54 60 61 63 66 68 73 74 75
26 28 33 33 31 32 27 28 19 11 10 12 8 10 8 8 15 20 22 25 30 33 36 36 39 41 44 43 45 45 40 44 46 50 52 51 53 56 55 59 59 62 64 68 69 70 74 78 75
29 27 31 34 30 32 28 24 22 14 10 14 17 13 14 12 14 19 22 25 28 38 41 40 39 39 41 40 42 41 44 48 50 53 58 56 57 59 61 63 64 65 68 70 72 74 72 72 71
28 30 30 32 29 32 27 21 23 22 16 15 16 18 19 18 16 16 21 23 22 28 35 40 45 47 48 46 45 48 49 48 49 52 57 60 58 59 59 61 63 64 66 69 71 72 71 69 69
30 34 31 31 32 32 27 20 21 23 22 15 14 19 18 20 16 16 20 22 24 27 28 30 36 42 44 46 48 49 50 52 51 48 51 49 51 57 61 61 60 62 62 63 64 66 68 70 75
30 33 33 34 32 32 27 21 20 22 21 20 17 19 22 19 24 23 20 21 26 29 32 30 29 31 32 35 37 40 40 36 39 40 43 41 38 41 44 49 56 60 63 66 70 72 75 74 75
34 36 34 35 33 32 28 22 18 23 26 21 23 20 21 25 26 27 27 26 27 26 24 27 31 29 26 24 28 27 27 28 20 18 23 36 33 49 53 58 62 66 73 76 75 76 76 77 78
44 34 37 35 35 31 29 24 18 19 25 26 20 22 21 24 28 29 31 31 29 26 23 27 25 24 30 32 29 32 28 20 26 31 25 61 59 59 64 72 73 78 78 78 74 74 75 77 75

GFSSGP_250_spd_072.txt.gz
Wind_Speed
62 61 64 65 67 67 66 64 63 63 66 66 66 64 65 59 57 56 43 41 37 38 41 46 37 34 31 22 19 25 39 47 51 51 53 59 73 75 76 82 82 84 81 80 78 78 79 79 79
64 66 67 66 66 64 60 57 56 59 61 64 63 66 56 50 48 45 42 36 37 28 28 33 36 36 27 17 25 27 32 39 42 46 46 49 56 65 73 75 79 81 82 84 84 83 81 80 81
64 67 60 56 55 53 53 53 54 53 57 62 59 57 53 46 38 42 35 34 35 37 42 43 39 34 31 35 23 28 27 32 36 42 50 51 48 56 62 71 74 75 78 80 82 82 81 81 81
50 49 51 51 50 48 50 51 50 53 58 60 56 50 47 40 32 36 35 36 36 46 43 42 31 20 26 26 20 24 18 20 24 31 34 36 45 47 53 64 72 72 74 77 77 75 76 77 79
43 46 45 45 46 47 47 48 50 55 60 53 53 48 41 31 34 41 44 40 46 52 52 42 33 26 14 16 19 22 33 33 31 29 29 22 36 43 51 61 65 66 66 66 68 71 72 78 77
42 44 43 44 46 44 52 48 51 55 59 53 47 40 27 32 42 46 43 43 51 59 56 53 48 30 26 17 38 31 55 36 44 40 36 38 35 28 33 39 46 51 58 61 55 61 57 63 68
37 39 43 46 39 46 49 51 54 57 57 48 38 24 33 44 46 48 42 48 52 58 58 68 58 53 47 45 37 38 57 47 47 37 37 41 34 34 33 35 36 40 43 48 52 54 52 54 60
40 42 42 37 43 45 50 54 56 56 55 40 30 31 44 43 48 50 45 44 53 62 66 70 62 60 58 48 54 52 41 60 56 48 44 38 37 40 40 42 41 41 36 40 46 48 49 42 46
39 41 37 38 42 45 51 54 54 49 44 33 32 41 40 45 50 49 44 53 58 69 67 67 66 58 57 57 58 48 45 55 54 51 40 41 44 43 38 30 29 39 38 36 41 39 38 32 36
39 43 37 39 41 48 47 53 52 42 38 28 38 43 45 46 52 49 41 57 65 70 73 61 64 58 52 46 50 55 65 61 56 46 41 37 35 33 27 31 31 31 36 38 39 41 41 41 41
40 37 38 39 43 45 44 55 47 36 32 29 41 43 43 39 44 49 42 53 61 72 63 64 71 59 56 52 55 68 62 62 56 54 49 42 46 54 43 36 31 33 38 43 42 41 42 45 40
37 35 39 42 42 42 42 52 41 25 19 29 36 56 45 38 42 45 41 54 68 74 64 60 64 65 65 57 55 63 58 57 60 49 49 53 53 57 51 47 43 40 42 49 50 48 45 47 49
39 35 38 41 40 38 43 49 37 19 27 36 26 32 31 27 44 42 43 49 68 75 59 60 67 69 68 62 53 56 48 55 60 58 54 56 61 59 52 57 59 54 52 51 52 54 53 51 53
35 36 39 41 41 36 44 46 36 22 33 35 33 26 40 26 37 52 46 45 69 67 65 64 68 69 65 63 63 60 52 57 53 58 58 56 44 51 56 57 55 60 63 65 61 62 58 55 52
39 38 40 42 37 38 41 45 25 33 36 33 40 41 40 31 31 34 52 50 52 56 64 71 67 70 67 66 68 67 62 56 53 57 58 58 59 64 63 60 58 61 60 64 65 66 65 61 61
41 41 41 40 32 37 40 42 33 32 44 34 32 26 36 26 21 25 35 55 55 46 71 66 72 69 67 67 66 66 64 62 58 57 57 54 56 52 55 54 66 66 67 68 70 67 67 68 67
37 40 37 33 32 35 41 45 36 29 34 36 23 23 26 34 32 14 29 39 47 47 40 72 78 78 72 70 66 68 65 64 64 61 66 66 65 57 56 54 56 61 62 64 67 70 73 72 75
37 35 32 33 32 34 40 44 37 24 35 41 34 28 31 35 28 24 19 38 38 41 39 60 81 82 81 74 71 71 69 67 64 67 63 62 70 57 58 61 62 64 65 68 70 75 78 77 80
33 30 30 28 31 35 37 43 37 24 26 27 32 34 24 24 32 35 21 31 40 42 45 49 56 82 81 81 72 71 71 71 71 67 67 66 66 64 59 68 67 66 66 69 73 74 66 65 68
28 28 27 26 27 33 37 39 37 25 24 25 22 21 22 26 26 31 23 21 41 46 50 52 56 55 56 71 72 78 69 62 65 70 72 70 68 64 65 69 72 72 70 63 70 64 63 63 63
26 25 28 24 28 34 34 37 33 24 21 23 22 25 23 25 24 21 19 11 32 46 48 56 59 58 55 55 60 66 72 66 64 61 69 70 69 75 78 71 68 64 68 63 64 67 67 69 71
28 24 27 23 26 32 34 34 33 27 16 19 13 17 14 17 16 21 19 12 16 37 47 45 46 52 48 50 53 53 58 59 57 61 58 65 62 65 58 69 71 64 64 66 62 61 63 65 67
34 25 26 24 23 28 34 31 28 25 17 15 10 14 16 15 11 12 15 17 18 20 28 33 43 46 50 52 48 48 49 52 55 57 54 57 52 57 52 58 57 61 63 64 65 62 64 66 67
37 26 27 24 23 23 31 28 26 22 19 15 12 14 14 14 12 10 12 17 20 25 29 33 32 37 41 40 38 43 43 41 44 46 48 53 51 52 55 60 61 63 67 65 64 65 65 65 65
37 31 29 27 24 23 28 25 25 19 22 13 13 15 16 18 11 11 15 13 12 15 21 29 33 36 38 41 46 45 43 44 46 45 47 49 51 52 56 59 60 62 63 63 63 64 65 64 65
42 35 32 29 26 25 27 24 25 18 18 19 13 12 16 17 17 16 12 15 16 19 19 25 28 31 37 35 36 38 42 44 45 46 48 51 55 54 53 54 57 59 63 66 65 66 61 56 57
46 37 40 32 25 27 28 25 23 18 15 16 17 13 14 17 15 17 19 13 14 15 16 16 17 28 37 37 36 41 45 44 45 47 47 51 42 43 46 50 55 53 59 66 64 56 57 62 65
47 44 39 34 29 25 28 27 21 21 14 16 16 15 11 10 19 22 21 20 18 17 18 20 23 22 20 22 26 24 23 24 27 26 30 31 28 33 39 37 45 56 61 66 67 68 70 74 78
51 48 44 40 31 27 28 27 22 19 18 16 18 12 12 16 9 12 22 27 27 28 27 26 22 20 22 22 22 15 15 16 22 25 23 31 33 33 40 42 51 65 66 67 72 77 77 80 84
55 51 50 42 41 29 30 30 27 19 21 18 20 20 18 17 18 13 12 16 23 28 30 25 22 16 17 23 23 22 20 19 13 19 34 38 44 44 48 59 60 61 69 74 74 81 82 87 87

GFSSGP_250_spd_075.txt.gz
Wind_Speed
65 67 66 70 68 66 68 69 70 66 63 61 60 61 65 67 70 70 64 57 54 51 55 51 48 40 48 56 61 61 61 51 46 49 45 44 42 44 48 60 74 79 76 78 82 82 82 82 82
66 66 69 71 66 68 69 61 58 58 58 59 58 61 61 64 65 63 58 52 49 48 47 37 29 21 31 44 47 34 39 32 25 28 37 40 37 35 41 48 47 57 70 75 79 78 80 82 82
67 65 62 58 60 56 53 54 48 52 55 58 60 62 60 59 58 58 57 49 45 47 32 37 29 36 40 33 32 31 38 24 14 19 26 31 38 42 46 47 48 53 56 63 70 78 79 81 80
50 52 51 54 49 47 49 48 49 51 53 58 63 63 57 56 55 51 48 42 46 41 39 50 45 56 45 39 43 44 29 16 15 15 17 24 19 32 38 41 47 49 54 61 63 70 72 71 72
38 38 40 43 45 48 48 49 47 50 52 57 62 62 56 53 49 38 36 36 43 39 48 61 58 49 40 43 40 42 36 25 19 23 20 20 24 25 28 26 31 39 47 50 54 59 63 68 68
36 39 39 43 42 47 48 44 47 50 55 58 62 54 52 49 42 33 28 35 42 39 51 63 51 36 48 44 36 22 28 27 31 30 28 25 28 30 30 31 30 28 30 33 40 43 50 54 55
34 39 40 40 45 46 41 45 47 50 54 60 57 52 47 44 33 29 27 39 39 40 54 56 49 46 46 42 33 24 26 36 38 39 29 31 34 32 25 31 27 21 24 25 30 36 42 46 46
38 40 41 39 40 45 45 47 47 49 54 61 55 51 40 34 30 28 31 42 40 45 57 57 60 57 56 46 38 39 32 49 57 46 36 33 40 37 35 37 28 29 34 33 32 34 35 36 39
45 41 36 40 42 43 44 43 47 49 56 55 53 38 31 32 33 33 38 45 46 52 64 64 66 59 54 48 47 44 40 49 49 55 43 47 44 44 41 33 32 35 37 35 35 40 38 36 35
39 36 36 37 39 40 43 43 46 51 55 52 44 31 26 28 36 34 36 49 52 53 65 63 67 61 56 53 48 50 49 49 54 45 38 45 43 43 37 34 28 18 34 26 27 33 37 33 31
47 37 39 39 40 40 41 43 43 51 54 48 40 37 26 30 37 37 38 45 54 55 68 63 67 63 61 53 49 57 50 51 52 52 47 49 49 41 36 37 35 35 27 27 27 32 38 37 39
49 45 37 38 39 41 40 42 42 49 54 47 44 43 31 32 37 36 37 43 53 51 63 63 66 65 59 61 47 48 47 49 57 58 49 58 50 48 47 43 43 41 39 32 36 38 44 45 45
44 41 38 36 40 39 41 39 41 46 47 42 40 37 34 34 34 30 38 46 54 58 62 63 67 63 59 58 52 53 55 49 53 52 56 47 47 48 51 53 53 49 46 47 48 48 55 58 57
42 40 36 36 38 36 37 34 40 43 46 37 38 28 31 31 43 36 37 48 46 65 66 62 57 62 61 59 53 53 53 53 50 40 41 50 55 51 46 42 43 44 49 50 50 50 52 59 60
40 35 34 35 37 38 33 31 38 45 47 39 31 37 31 32 35 41 49 44 45 59 63 62 57 54 58 59 57 56 54 54 53 45 45 42 47 44 52 51 51 54 51 49 51 51 55 57 60
42 40 35 33 39 33 30 30 37 43 45 38 28 30 37 40 38 40 35 33 46 56 64 66 55 57 54 60 61 63 58 53 53 50 46 48 52 48 50 50 57 56 57 51 61 52 56 62 67
40 42 36 32 37 35 26 31 35 40 45 38 27 29 35 30 33 35 38 33 43 48 61 65 64 58 59 59 66 67 57 59 56 61 56 52 48 53 57 53 56 51 56 54 54 52 57 60 64
38 38 33 31 37 29 28 32 35 39 43 40 28 24 29 36 36 25 36 25 38 43 52 65 62 68 64 61 63 66 61 59 62 64 64 65 63 63 60 57 51 53 46 50 53 58 59 60 64
42 37 30 32 34 31 26 32 32 40 43 42 28 23 28 32 34 40 32 37 41 41 52 59 62 76 63 64 62 65 66 63 64 65 68 72 70 71 68 65 62 60 67 68 66 65 68 71 77
39 35 36 31 30 29 24 28 32 39 42 40 26 22 30 29 19 24 23 22 24 28 42 52 54 67 64 68 68 67 67 65 62 67 68 67 67 64 60 70 66 65 68 68 68 72 70 68 67
41 37 39 31 27 29 24 27 30 38 43 38 26 24 26 22 19 25 20 12 13 20 42 45 47 42 55 62 69 71 76 72 72 70 67 69 69 71 71 64 59 62 67 71 64 70 65 59 58
41 43 38 33 28 29 25 26 30 35 39 34 21 19 18 13 13 13 11 7 12 19 25 43 50 50 46 53 63 72 71 65 59 62 66 68 63 63 55 64 62 62 59 65 59 56 57 58 57
44 43 38 33 29 28 23 24 26 33 36 32 19 17 13 12 11 9 10 13 16 20 25 30 38 49 50 52 56 59 60 61 64 59 52 60 65 60 63 62 60 57 65 62 60 68 61 65 65
52 46 39 35 30 27 23 22 21 31 34 33 21 12 11 9 7 10 4 11 21 22 24 30 29 39 44 49 52 54 58 57 58 59 61 56 57 55 53 58 60 56 60 60 62 69 67 63 60
54 54 38 35 31 30 23 22 23 27 29 29 24 18 12 13 10 11 8 7 12 20 24 28 34 40 44 42 42 41 47 47 47 48 48 52 53 53 53 52 54 58 60 59 61 62 65 63 58
61 56 48 37 33 28 24 24 21 26 25 27 24 21 11 10 15 16 13 11 14 16 17 22 30 35 39 40 40 40 39 40 41 45 45 45 45 50 50 51 50 51 50 49 54 55 58 58 52
70 58 54 46 34 30 26 26 22 23 25 20 20 22 21 11 6 14 15 15 18 17 17 18 19 24 31 36 37 42 40 40 43 41 42 44 49 49 48 43 38 41 46 46 51 54 59 67 64
61 63 59 47 39 37 33 30 23 23 26 20 19 17 18 19 12 4 9 13 16 16 16 16 18 18 18 20 22 26 30 31 31 33 30 29 33 36 41 39 38 39 43 46 55 63 69 73 74
66 63 62 55 45 42 40 31 25 23 28 22 21 17 15 17 16 13 9 6 13 19 22 22 22 20 19 22 23 25 27 28 28 25 23 24 26 31 38 40 36 40 48 57 60 63 70 77 75
69 66 61 56 49 46 42 36 28 25 28 28 21 19 15 18 19 18 17 16 13 10 11 14 21 20 19 23 25 26 28 30 28 30 31 28 27 42 38 42 42 46 52 57 67 71 77 79 84

GFSSGP_250_spd_078.txt.gz
Wind_Speed
67 69 69 67 66 65 65 65 66 66 64 66 64 61 62 64 63 66 70 70 68 60 58 55 51 50 45 40 43 56 65 69 71 70 72 70 64 56 53 51 62 69 68 71 74 73 78 80 81
60 58 61 60 59 58 59 61 59 55 53 53 55 56 57 60 64 66 69 68 65 57 49 48 48 48 44 32 32 37 53 55 65 73 69 66 54 49 41 46 48 52 51 53 60 64 70 75 79
56 51 53 53 51 51 49 48 48 50 49 50 53 54 57 60 63 68 67 63 61 54 49 45 50 50 45 32 43 23 35 40 43 49 49 46 40 38 34 40 47 48 47 47 50 56 62 69 77
41 42 42 42 40 40 41 43 43 45 49 52 52 55 60 60 57 63 65 61 53 47 44 43 48 42 41 40 50 35 26 29 38 36 39 39 34 28 25 28 36 42 45 48 49 53 52 50 56
41 41 40 38 37 37 39 41 42 48 49 50 54 60 59 53 58 59 59 56 49 40 41 37 39 40 51 54 39 32 37 34 32 35 31 30 27 26 14 16 17 19 21 31 39 42 42 44 42
39 37 34 37 39 42 37 39 43 47 48 52 55 58 53 53 58 51 48 43 39 36 34 33 41 46 54 51 41 45 38 42 39 39 30 24 21 19 16 20 21 19 23 21 25 27 21 26 26
36 40 40 45 47 43 41 40 44 46 47 52 53 54 50 52 49 43 34 29 24 28 32 38 47 53 59 49 52 43 41 50 42 42 33 26 22 19 23 24 26 25 25 23 17 17 16 17 21
44 45 39 36 39 43 43 44 43 46 49 53 52 54 52 39 34 26 20 16 19 26 31 44 55 64 62 55 54 45 52 48 45 39 37 34 16 20 24 26 27 30 30 21 24 27 28 29 25
46 48 45 43 39 42 46 42 42 44 49 48 51 52 39 27 24 17 13 14 24 31 34 42 56 53 61 52 52 50 46 48 44 40 38 28 23 28 24 27 30 28 25 20 24 32 38 28 21
47 52 51 46 42 40 40 37 41 44 45 45 51 51 37 24 27 18 12 15 27 32 35 40 48 54 54 55 56 49 44 49 47 40 39 36 26 30 27 31 35 29 27 17 23 36 37 29 20
48 52 51 44 42 36 38 38 39 41 42 43 49 49 41 35 36 19 12 20 26 37 37 43 52 61 56 61 59 50 49 44 44 42 38 37 36 38 40 33 24 23 18 30 32 28 30 29 25
49 49 47 47 41 36 33 35 37 38 39 41 46 48 39 35 36 25 14 20 24 40 39 41 52 60 59 62 56 53 49 40 41 34 42 41 33 35 38 43 39 29 34 39 37 32 31 32 36
52 51 47 43 40 31 32 32 36 36 38 42 45 45 38 28 32 28 18 23 26 35 40 38 54 60 61 61 53 50 44 48 42 41 40 39 41 45 40 44 47 39 42 45 46 47 44 41 45
50 48 45 42 38 36 33 33 35 34 37 43 46 43 38 21 24 29 20 20 26 30 42 44 45 62 64 61 51 49 43 42 47 40 39 43 42 50 55 56 51 48 46 51 51 53 49 47 51
49 44 42 40 40 34 31 33 34 34 33 40 45 44 40 23 20 22 24 27 30 31 45 43 44 56 66 57 56 51 45 44 49 39 43 53 51 54 52 51 55 55 46 43 43 44 46 49 51
45 41 41 35 35 33 27 30 32 32 32 40 42 43 39 26 22 23 20 25 23 26 36 43 47 48 65 61 55 51 50 47 50 53 49 44 51 48 52 50 46 42 45 46 50 53 58 54 51
42 37 41 37 36 32 24 30 28 31 30 39 41 45 40 24 22 25 26 20 32 29 29 41 50 45 62 64 60 57 50 52 50 54 60 53 51 50 45 58 54 57 55 54 53 54 47 49 51
43 36 41 35 34 28 25 29 29 31 30 38 41 45 37 27 24 25 28 29 23 35 28 35 45 56 63 60 56 58 61 55 55 55 58 58 55 50 57 54 57 56 55 57 55 51 50 51 55
45 36 38 40 31 27 27 28 29 30 31 34 40 42 34 27 27 30 32 22 32 29 34 28 39 53 60 56 57 53 57 59 58 54 59 60 58 58 57 56 60 65 66 61 60 62 59 59 65
41 40 46 41 36 31 30 28 30 28 32 34 40 42 32 26 29 26 23 17 18 22 32 27 35 48 56 59 53 54 55 57 58 54 60 59 58 64 64 66 66 63 64 67 72 74 73 62 57
48 45 44 38 34 32 30 27 28 27 31 31 38 41 31 26 26 21 20 21 17 20 21 22 28 40 50 50 49 51 54 62 60 62 59 61 63 66 66 62 62 66 73 72 66 57 55 53 59
51 50 43 40 36 36 33 27 27 25 27 28 36 37 30 23 21 19 15 14 11 14 18 25 25 31 39 38 43 47 46 51 57 63 63 62 61 63 62 62 64 65 61 60 57 55 52 52 52
50 48 43 40 33 34 36 24 26 24 23 27 31 37 30 21 18 17 10 12 13 14 16 21 24 27 30 33 40 39 36 43 52 56 57 57 58 62 62 56 56 53 55 53 57 55 53 57 57
55 48 46 42 37 29 35 27 28 24 24 25 28 34 31 21 17 14 11 10 15 15 19 23 23 25 29 36 38 36 34 37 47 55 56 58 60 58 54 56 54 57 52 51 58 58 57 59 62
58 54 50 44 32 35 35 27 27 23 24 23 23 29 28 21 15 15 16 10 9 17 19 20 22 25 26 30 35 38 37 39 39 42 47 47 50 48 47 45 45 48 51 55 56 59 61 59 62
63 59 52 49 48 41 34 25 30 24 24 22 21 23 27 20 16 14 15 14 12 10 12 15 21 26 29 29 30 32 33 34 35 38 39 39 40 42 43 48 50 50 51 52 57 56 62 63 61
62 57 57 55 48 42 37 35 34 25 26 24 22 20 24 20 16 14 15 14 14 13 14 17 18 20 24 29 32 33 34 36 37 39 41 41 43 46 52 47 46 44 44 45 50 54 59 56 56
72 69 67 62 55 52 44 40 39 28 29 26 23 23 20 19 17 14 11 14 17 14 13 13 17 20 22 22 25 29 34 36 38 41 43 44 33 31 38 36 36 37 40 43 49 54 53 58 57
78 74 70 64 59 54 40 39 43 35 33 29 26 24 26 20 17 16 12 11 9 11 17 22 23 21 21 22 23 25 26 29 32 34 37 37 42 40 42 41 40 41 44 42 45 51 52 56 60
78 73 73 70 66 57 41 41 51 40 39 31 30 27 23 20 19 17 14 7 8 10 9 15 21 28 31 31 29 31 34 34 36 36 39 36 38 41 42 44 47 47 51 50 53 58 55 57 59

GFSSGP_250_spd_081.txt.gz
Wind_Speed
55 55 55 56 53 54 55 54 54 54 54 55 56 58 57 55 55 59 62 64 65 64 65 64 61 56 52 51 53 51 53 56 58 63 66 62 67 69 69 70 71 64 59 60 60 61 68 70 72
54 55 53 48 45 44 42 43 46 48 51 51 49 47 48 52 55 59 61 64 64 63 60 60 57 52 50 50 47 42 41 37 45 56 61 59 63 67 69 65 58 47 47 47 51 57 65 67 73
49 43 43 39 38 40 38 39 42 43 44 44 43 43 47 49 53 56 60 62 62 57 54 51 52 46 50 49 47 40 34 15 47 40 54 57 60 67 61 56 44 41 39 44 50 53 58 67 71
40 37 37 37 36 33 32 35 36 37 39 40 40 43 45 48 54 55 62 62 62 55 50 51 55 52 47 46 47 44 42 25 34 49 46 51 55 65 59 54 42 39 40 43 48 51 48 57 56
37 38 39 39 35 34 35 37 35 36 38 38 40 43 45 51 54 56 61 60 61 54 47 39 46 47 46 46 44 50 43 47 51 49 33 40 40 49 52 43 41 36 39 38 39 42 42 43 44
39 40 40 36 38 32 33 39 41 41 40 41 41 43 47 51 55 60 58 51 50 45 36 36 46 38 34 41 44 50 64 58 48 34 20 27 29 34 37 38 34 25 16 17 16 20 21 23 32
41 42 42 41 41 33 35 38 42 42 40 38 37 42 47 48 52 49 48 40 30 29 25 28 39 37 35 41 50 51 60 67 50 36 25 24 26 35 39 29 22 21 15 18 17 17 14 13 13
42 45 44 43 45 44 44 40 39 39 39 39 39 41 43 46 44 36 34 27 11 15 17 21 35 37 39 49 54 55 66 62 48 41 33 32 35 31 38 27 20 20 16 19 21 21 15 19 19
42 47 47 46 45 48 45 42 42 37 40 44 40 38 42 43 42 21 22 16 9 13 18 22 33 38 52 56 56 54 51 55 45 44 45 40 33 35 27 16 14 20 15 22 23 23 20 20 23
43 48 45 46 45 47 46 43 41 36 42 40 36 37 42 42 40 19 14 12 8 14 23 22 35 42 55 59 58 60 52 46 42 48 51 42 40 40 31 19 18 21 20 25 26 20 20 24 29
44 46 43 45 43 48 46 42 37 33 37 37 34 35 41 40 37 25 16 13 11 13 26 26 33 42 44 47 58 52 48 40 42 50 48 44 40 39 23 25 27 25 25 31 26 26 33 26 29
46 48 45 42 44 44 42 42 35 35 36 37 34 34 38 38 33 25 12 9 15 11 22 26 29 38 43 45 56 50 47 44 44 53 51 47 46 44 34 28 28 32 36 38 32 31 31 39 29
48 49 46 41 43 37 38 37 39 37 34 35 33 34 39 38 33 21 20 14 11 12 16 27 29 34 45 51 52 54 53 53 54 55 53 51 51 47 31 34 36 43 44 41 43 45 42 41 41
47 45 44 41 41 33 35 37 35 34 31 31 32 32 37 38 35 20 18 18 14 15 18 18 31 36 39 49 53 52 52 52 47 50 49 42 52 38 35 34 42 44 46 47 47 46 45 46 49
45 41 42 42 38 30 34 33 33 32 26 30 30 32 36 38 35 20 18 20 20 18 16 24 30 30 34 43 54 46 51 54 49 50 40 41 41 42 43 45 41 45 51 47 49 50 46 38 41
44 39 42 39 33 27 34 36 30 30 27 30 30 33 37 36 32 21 14 15 24 22 17 14 22 28 34 42 50 52 53 55 50 38 43 44 46 47 48 45 50 52 54 55 55 54 58 55 55
41 40 40 39 27 29 29 39 26 29 29 33 31 33 36 34 30 20 16 18 21 23 26 21 15 20 32 36 42 50 51 54 46 41 41 45 47 53 49 49 50 52 55 54 56 57 55 58 60
42 41 39 40 26 22 26 36 31 30 30 33 32 32 36 35 30 20 17 20 19 25 26 23 22 19 31 31 41 54 51 53 52 46 42 46 46 48 53 50 47 54 59 60 56 59 64 66 60
42 35 37 40 30 27 31 35 33 29 31 33 33 31 36 34 32 21 21 21 18 19 22 21 23 24 27 38 40 48 53 47 53 50 48 49 48 51 53 56 62 58 56 56 58 61 60 56 59
39 35 41 45 36 28 34 36 33 29 30 33 32 30 34 35 35 23 20 14 13 16 22 26 28 24 32 38 44 50 56 55 49 52 52 52 55 52 55 56 54 56 60 60 61 58 59 57 61
45 39 47 39 33 36 33 35 34 29 30 30 27 30 33 36 35 25 21 15 16 18 20 20 22 27 32 40 43 50 52 51 51 53 54 54 52 54 53 53 53 53 59 64 65 59 54 63 63
46 52 44 37 34 35 31 33 34 30 29 29 25 27 32 34 34 25 18 15 18 14 16 20 25 31 33 40 39 40 46 51 52 53 54 52 52 48 50 48 54 61 61 57 56 60 63 55 51
53 47 45 38 36 33 35 26 35 27 29 29 25 25 27 32 31 23 15 13 15 12 15 20 28 31 33 35 39 40 41 49 49 46 45 49 53 57 55 57 51 54 54 50 46 48 52 57 54
53 51 45 41 43 35 40 23 39 28 31 30 25 23 24 28 32 26 14 11 13 11 13 17 28 29 29 33 32 33 35 36 39 43 47 45 41 44 53 57 48 50 47 41 45 51 53 50 51
55 56 52 49 47 36 36 22 34 26 30 29 25 21 23 24 29 27 21 11 9 6 15 19 20 25 25 26 28 29 27 28 28 30 32 32 35 34 36 38 37 39 43 48 49 48 51 52 54
64 62 56 52 50 42 34 30 44 31 32 29 25 21 22 19 26 28 23 17 9 6 5 21 23 27 31 31 30 28 30 31 31 32 34 38 36 37 39 41 42 45 45 49 50 52 52 53 48
64 60 63 54 49 43 38 31 42 38 31 33 29 25 21 17 20 24 26 16 15 12 11 12 13 20 31 35 34 34 36 36 38 40 38 39 40 41 41 40 45 44 47 48 49 47 47 47 51
68 67 66 57 50 48 42 40 42 43 38 37 34 28 23 21 18 19 21 20 11 11 14 15 15 13 16 22 29 34 39 42 43 44 43 44 41 40 43 45 49 49 53 49 50 48 50 49 52
72 69 66 61 54 52 48 45 45 48 39 39 37 31 27 24 21 12 20 20 13 8 7 11 17 20 19 18 22 25 29 34 39 43 45 47 45 46 46 45 48 48 48 44 47 48 50 53 51
68 66 67 63 61 58 54 51 52 51 44 39 39 36 33 27 26 16 13 18 16 11 10 9 9 13 18 24 25 26 28 30 33 37 41 42 42 41 42 42 44 45 42 43 47 49 48 50 54

GFSSGP_250_spd_084.txt.gz
Wind_Speed
56 52 50 47 45 43 44 44 47 45 47 46 45 46 48 49 51 53 54 55 59 61 63 64 62 62 61 56 56 57 56 56 59 62 66 71 73 74 75 72 73 68 69 75 77 78 70 67 61
45 46 46 42 37 35 36 41 42 45 44 44 42 43 46 46 46 47 51 55 56 59 61 61 60 58 55 49 49 48 49 52 53 54 58 59 66 70 70 65 59 53 61 60 62 58 49 50 57
42 45 39 33 31 34 36 37 38 38 38 38 39 38 39 39 41 45 49 53 58 59 58 59 55 56 53 46 34 33 33 40 39 36 30 35 47 56 60 61 55 55 59 58 52 38 42 44 51
41 37 35 30 33 34 35 34 34 34 37 36 36 39 41 40 44 48 52 57 63 59 59 56 53 53 53 32 35 31 38 34 35 24 24 36 40 41 49 59 55 55 58 46 45 41 41 47 51
38 36 35 32 32 34 35 33 29 33 39 40 38 38 37 39 43 48 51 58 56 55 56 53 49 48 50 38 46 37 48 39 37 30 38 42 42 47 44 60 54 53 50 44 39 36 40 45 46
39 40 37 34 35 38 38 38 39 39 37 38 39 39 37 40 42 45 48 59 53 49 47 44 37 41 36 32 43 53 47 40 37 32 35 41 47 49 45 57 53 47 44 40 37 44 43 36 39
42 42 41 37 37 40 41 40 43 43 38 38 38 41 43 44 43 42 46 56 47 43 38 35 28 36 33 29 35 48 53 49 45 44 60 47 34 37 32 41 45 44 50 43 38 29 21 23 25
43 43 43 39 38 40 43 42 44 43 43 39 38 41 45 43 42 43 44 45 38 36 28 24 28 33 35 31 33 43 47 60 53 58 52 39 28 24 25 28 34 32 41 36 28 19 24 20 15
47 46 44 40 38 40 40 43 41 45 41 37 35 38 43 41 42 41 39 37 25 20 18 18 20 32 32 29 35 42 50 67 63 57 46 42 27 18 13 24 32 27 29 23 22 26 26 26 15
48 48 44 42 38 41 39 42 44 46 37 33 34 38 41 39 41 39 38 31 20 16 13 16 18 29 27 35 45 49 56 68 59 54 42 42 29 24 26 29 35 26 11 16 20 25 29 25 20
45 49 43 43 39 43 42 42 43 41 35 32 36 39 41 35 38 40 40 20 17 18 14 15 20 24 28 39 49 55 55 64 69 53 40 37 36 34 35 35 26 30 18 18 17 23 26 26 22
46 48 43 44 39 41 41 42 42 34 34 34 32 35 38 32 37 39 36 21 15 18 14 17 23 24 25 38 52 53 60 61 64 64 60 43 39 35 42 41 35 25 18 19 28 28 28 31 25
49 50 47 44 39 39 40 41 41 25 29 30 31 34 32 32 36 39 38 30 15 21 19 17 23 25 25 37 50 56 55 50 57 62 54 48 42 39 46 43 27 26 25 22 37 34 32 37 34
50 49 47 45 39 39 37 42 35 26 28 27 27 31 32 33 35 37 37 31 21 21 22 19 22 25 24 34 49 49 54 52 46 50 54 43 48 49 48 43 39 35 28 28 41 38 35 40 40
49 46 45 46 43 38 38 42 24 30 26 25 26 30 33 34 33 37 36 29 23 20 18 25 19 22 32 29 41 53 50 56 49 53 49 44 46 49 51 53 45 37 36 35 44 47 46 51 48
46 44 44 45 39 36 40 37 25 30 27 26 26 30 34 34 33 38 36 25 23 26 21 16 21 24 25 29 26 34 45 50 50 49 47 47 51 53 56 59 41 42 42 40 44 50 50 49 50
46 45 47 39 34 34 36 36 27 25 26 28 29 31 35 32 34 36 32 24 21 27 26 19 20 24 21 26 28 24 40 49 53 54 53 51 50 48 51 60 53 51 45 42 49 45 46 51 51
48 38 38 36 34 36 33 37 34 28 28 28 28 29 34 32 32 33 30 23 21 25 28 30 23 21 24 26 28 27 27 45 47 46 49 52 53 56 46 44 43 46 49 45 48 50 53 54 55
40 39 42 40 33 33 29 30 38 32 31 29 27 28 34 31 32 32 29 21 20 24 27 31 26 25 23 26 30 28 29 38 49 43 52 54 54 48 45 49 47 49 51 51 53 58 61 64 61
42 39 44 38 40 28 29 30 36 35 33 29 28 29 32 28 32 32 25 17 13 13 20 27 28 25 23 32 32 32 35 38 44 44 50 51 48 49 43 47 49 47 50 55 58 58 63 64 65
44 42 52 41 42 24 30 29 41 36 28 28 28 27 30 27 31 30 24 17 15 10 15 21 28 27 23 35 39 40 38 39 43 50 49 47 53 49 48 50 57 53 54 53 55 61 60 59 60
46 53 48 41 43 31 30 32 43 30 27 25 27 25 27 27 30 29 26 16 14 15 11 18 27 27 30 35 44 44 45 47 49 49 54 55 51 51 53 54 55 56 57 54 57 58 59 59 56
52 52 52 46 42 34 34 36 47 34 25 27 26 25 24 24 27 27 27 17 14 15 11 13 24 28 35 37 43 47 47 49 52 51 50 54 51 53 54 54 55 58 54 55 51 54 56 56 52
63 57 53 48 42 33 43 32 46 35 27 25 27 26 24 22 23 27 24 23 14 13 9 11 14 24 40 42 47 46 45 49 50 50 50 51 54 53 53 51 52 51 53 53 55 56 55 53 56
64 61 55 48 40 36 45 31 40 41 30 27 24 23 24 21 23 25 21 25 15 13 10 11 18 25 33 36 47 47 43 46 44 44 47 46 47 47 47 51 54 52 50 52 51 50 50 51 53
65 58 58 52 48 44 41 38 41 45 36 34 31 30 24 23 22 23 22 20 19 12 12 16 18 21 33 33 41 40 43 46 43 40 48 44 43 46 45 46 45 46 47 49 50 54 54 53 55
62 57 57 55 52 48 44 42 42 52 41 39 38 33 26 26 24 23 26 15 20 15 14 14 19 23 29 31 34 38 38 43 41 45 43 45 47 48 43 46 44 45 51 52 53 56 55 54 57
67 66 62 63 60 54 49 45 42 55 44 40 37 32 29 29 28 24 23 15 17 18 12 13 15 20 30 35 36 36 37 39 42 43 48 46 45 47 47 48 48 50 55 55 55 56 55 56 55
72 68 66 65 54 51 50 50 44 56 49 45 45 40 38 32 29 27 25 16 10 13 13 8 13 18 21 26 34 41 40 42 44 44 45 47 50 51 51 53 53 54 56 55 56 59 57 50 47
66 65 64 58 56 57 56 49 48 55 56 49 47 45 43 34 31 33 28 19 13 10 12 10 6 6 18 25 26 28 35 42 49 50 51 52 53 52 51 52 52 54 56 58 54 53 50 51 50

GFSSGP_250_spd_087.txt.gz
Wind_Speed
58 50 48 47 46 46 47 45 44 40 42 44 44 45 46 50 51 51 52 53 55 55 57 59 61 62 64 64 63 61 58 58 62 65 68 68 70 76 78 77 76 77 77 77 79 80 80 79 78
47 46 44 41 40 42 41 39 36 40 41 40 41 42 42 46 47 47 48 49 50 51 54 57 58 57 56 57 55 50 45 42 42 45 49 54 61 64 67 69 72 72 73 73 70 68 67 71 67
43 41 41 37 38 38 37 34 37 35 37 39 39 43 41 43 46 44 46 47 50 54 54 55 56 53 54 51 45 42 33 29 27 33 38 41 45 55 56 59 63 63 64 64 60 55 57 53 49
44 43 42 36 34 36 38 35 36 35 35 36 37 41 43 42 39 40 42 45 49 53 54 54 52 52 52 51 38 34 27 20 25 46 49 36 29 29 31 40 45 49 54 54 39 48 53 53 47
42 42 40 38 36 36 37 39 38 39 39 37 39 39 38 43 39 40 42 46 49 54 51 49 47 47 49 42 38 38 34 38 39 47 49 34 30 32 39 36 37 33 43 45 52 57 59 48 42
42 41 41 41 40 38 40 41 42 41 43 41 42 41 39 41 39 40 42 45 45 53 53 46 43 40 38 34 34 44 44 47 51 43 48 31 33 28 33 42 41 42 37 38 49 51 54 51 39
44 42 46 45 42 41 39 41 42 44 45 43 43 44 41 43 38 40 41 43 46 51 46 43 39 33 31 27 36 53 50 51 62 49 54 35 29 35 37 43 40 41 43 41 44 50 48 36 35
49 49 48 47 44 41 40 42 41 44 44 43 43 48 43 40 37 39 42 42 44 45 38 38 34 27 26 28 31 49 60 67 62 54 50 41 36 33 38 37 28 31 35 36 37 38 36 35 30
51 51 48 49 44 44 41 44 41 45 45 41 42 46 40 40 37 40 42 40 40 38 34 32 28 21 23 31 29 46 59 63 64 49 43 38 44 42 35 28 24 34 32 32 37 36 37 29 27
50 52 53 49 46 45 44 43 44 43 45 37 45 44 39 40 37 39 41 37 35 35 31 27 24 17 24 21 28 40 57 61 58 51 46 46 50 45 39 32 30 27 24 25 24 24 28 25 28
47 51 54 52 46 44 46 41 44 44 42 42 46 42 39 37 34 38 38 35 33 32 27 22 26 22 19 20 23 33 49 66 63 54 56 66 54 40 33 35 20 17 25 25 20 21 26 30 34
43 55 58 56 46 47 46 44 45 44 38 44 43 36 36 32 34 34 35 35 33 27 24 23 23 23 18 21 32 36 47 52 64 66 60 64 57 42 35 33 27 28 24 23 21 21 22 32 34
42 54 55 56 49 45 44 47 45 42 39 45 37 33 30 28 32 33 34 36 34 29 24 26 24 25 21 19 40 45 46 52 66 66 61 55 46 37 45 29 32 29 28 30 25 17 24 26 30
43 47 53 56 48 44 44 47 46 40 41 39 35 34 30 28 30 33 33 36 36 30 21 30 27 30 24 20 36 50 51 58 65 68 60 49 45 35 40 31 36 40 33 32 26 27 29 33 30
47 47 53 54 52 46 44 45 43 41 39 36 31 34 31 29 32 33 33 36 36 31 20 31 30 33 32 28 23 50 56 58 62 68 63 53 56 44 39 39 32 44 37 32 27 27 29 35 40
51 47 53 59 52 47 39 45 43 38 39 38 30 29 31 31 30 33 34 36 35 31 23 31 39 29 36 30 27 39 59 63 62 66 66 61 48 48 46 39 33 44 38 38 39 31 32 41 45
51 49 52 58 46 40 37 44 40 35 36 32 30 32 33 30 30 34 34 36 36 32 24 28 36 37 34 37 34 32 54 55 59 60 61 62 59 52 42 42 52 47 46 50 44 40 39 41 50
51 56 55 49 45 38 39 42 38 40 36 32 32 32 31 30 31 33 33 37 37 32 24 23 32 35 36 41 38 33 38 46 50 51 48 58 59 55 44 42 44 46 54 46 46 47 49 51 49
57 54 50 49 44 37 33 35 42 34 32 30 31 35 31 30 29 30 32 37 38 32 27 27 30 34 37 39 44 37 35 27 43 49 57 60 56 53 48 43 52 56 50 60 56 52 52 51 53
53 56 50 52 46 37 40 36 38 36 33 24 29 31 30 28 27 28 31 35 37 30 25 25 31 37 37 41 45 38 35 31 33 42 50 47 52 53 49 54 57 54 46 55 53 50 49 52 54
46 48 52 54 51 34 39 36 39 41 32 23 26 27 26 27 26 26 28 33 35 26 19 22 25 31 40 40 46 42 36 37 35 41 46 47 46 47 54 56 55 56 52 49 52 54 50 47 49
51 55 53 52 50 43 39 36 41 43 31 27 25 28 25 25 26 25 25 30 32 26 20 15 21 22 36 36 43 41 38 37 35 44 46 49 52 52 51 53 57 56 51 51 52 54 54 56 55
57 57 54 54 51 39 36 36 43 44 36 28 29 27 26 24 27 24 25 25 30 27 21 14 15 24 36 33 39 40 42 41 40 48 49 49 51 53 53 47 51 55 55 53 57 53 56 61 61
58 54 52 54 53 47 40 42 41 48 44 30 27 29 26 26 24 23 24 23 28 28 21 14 9 21 31 34 37 44 51 49 48 52 54 55 55 53 54 58 58 59 59 58 59 61 59 62 63
53 63 55 58 51 42 47 44 43 52 38 29 29 29 29 25 21 23 24 23 26 26 23 15 11 17 29 38 40 51 52 53 55 56 55 60 59 59 59 56 56 58 57 59 59 58 59 61 63
63 61 56 56 52 52 51 44 41 48 43 34 29 31 33 29 27 25 23 24 25 24 23 18 11 18 24 39 43 50 56 56 57 60 57 60 60 58 56 55 55 55 55 55 57 60 60 59 61
68 62 57 55 56 59 54 50 47 52 49 39 39 33 34 34 34 28 23 24 27 19 22 15 13 13 18 35 42 47 54 55 54 56 60 63 63 63 61 58 58 56 58 59 58 59 59 62 63
67 66 59 53 59 58 53 52 59 52 50 44 42 38 34 36 34 28 23 23 28 19 16 17 12 12 16 24 38 44 46 57 55 50 53 59 57 55 57 60 61 58 60 60 60 60 57 57 61
78 71 62 63 57 60 54 55 55 51 53 52 46 41 39 37 37 33 29 27 26 22 13 16 14 11 14 18 33 38 41 50 55 52 54 51 54 52 56 55 55 59 60 59 57 61 62 62 64
73 73 63 65 59 59 60 59 57 56 59 58 49 45 43 40 42 38 36 31 28 25 18 12 14 12 9 16 21 36 44 44 44 48 49 56 55 57 58 59 63 59 54 57 60 64 65 61 59

GFSSGP_250_spd_090.txt.gz
Wind_Speed
54 54 55 54 50 47 49 47 49 42 40 42 43 44 45 48 47 49 50 50 51 49 51 56 58 60 60 62 63 64 63 62 61 60 63 63 62 65 68 69 72 74 75 76 76 80 81 82 83
43 46 44 44 41 41 44 42 40 38 37 37 40 41 41 45 46 41 49 51 50 48 48 51 51 53 54 56 56 54 51 47 44 39 38 38 34 34 40 50 57 63 67 71 72 73 72 71 71
43 43 42 42 41 40 44 43 36 40 37 40 41 37 39 40 41 43 44 45 46 48 49 52 52 54 53 52 49 49 44 34 20 16 26 26 30 33 34 41 46 50 56 59 64 68 68 65 62
43 44 45 41 41 40 40 46 37 43 40 38 44 44 39 42 45 44 45 44 42 45 49 51 50 52 51 50 47 47 40 30 20 24 48 39 38 41 37 39 39 37 45 49 50 53 53 49 47
49 51 48 40 40 41 39 44 43 44 45 42 44 47 45 38 46 45 45 45 44 44 48 48 48 51 50 50 46 42 39 35 38 33 55 40 38 37 33 29 21 27 26 25 32 38 39 36 32
48 48 43 43 42 44 40 42 45 45 48 46 42 47 45 43 45 45 45 46 45 46 49 46 44 49 46 43 43 39 40 45 48 47 44 57 48 44 38 36 32 32 33 30 26 23 32 36 41
53 45 41 46 43 45 47 39 47 46 48 47 44 46 44 43 45 45 44 43 42 44 47 47 42 46 40 37 34 33 40 51 62 57 56 44 48 48 30 29 31 31 34 34 29 25 26 37 43
48 44 51 48 48 47 51 45 43 48 50 46 46 45 48 42 41 43 42 41 42 42 44 41 37 44 33 31 25 30 41 56 68 63 58 54 61 46 39 33 34 39 35 33 32 31 32 38 48
65 49 46 49 45 51 47 47 47 43 51 48 45 46 48 44 44 44 41 41 41 39 41 38 35 37 29 28 22 29 50 65 67 58 53 57 60 48 35 35 36 41 42 23 31 30 31 29 37
62 45 52 50 49 46 51 49 47 46 49 48 44 46 48 44 47 44 41 38 39 33 39 37 32 30 28 23 18 32 59 62 66 61 51 54 48 40 40 38 37 31 29 27 31 31 32 30 31
55 49 50 51 51 47 49 50 46 48 49 46 45 47 42 38 47 43 41 34 34 35 36 34 30 27 27 25 19 30 53 66 65 57 58 55 48 47 46 44 43 16 18 20 22 23 27 25 29
58 55 56 59 51 48 48 52 51 47 49 45 50 46 43 44 38 39 35 30 29 36 35 32 31 25 28 26 22 27 45 63 60 59 58 57 51 47 51 47 38 26 19 22 17 20 19 22 26
62 61 61 64 53 48 44 50 50 48 47 42 49 48 44 44 37 37 34 33 31 34 31 30 32 25 31 27 24 23 40 61 60 61 61 57 52 50 50 46 34 31 26 23 26 20 26 14 23
67 65 60 61 56 51 40 46 45 54 45 44 47 47 44 44 38 37 35 34 33 30 30 31 30 29 31 31 27 30 32 47 63 63 62 56 55 53 49 30 33 32 24 26 26 22 22 16 19
74 67 64 61 59 53 49 36 52 52 47 42 45 47 43 41 36 33 35 32 33 32 33 29 28 28 34 38 29 28 38 40 63 64 64 63 63 59 55 46 31 32 30 32 34 24 28 29 28
84 73 66 65 63 54 52 32 51 47 49 42 44 42 38 39 36 37 34 31 31 32 32 29 27 27 37 40 33 27 40 41 50 69 69 67 64 61 52 43 40 34 35 36 36 31 29 29 26
84 76 71 67 68 60 51 39 43 47 46 43 40 39 38 36 35 34 34 31 31 30 32 28 26 28 39 40 37 34 33 47 52 47 67 71 59 60 53 44 46 39 37 38 42 38 36 37 34
87 83 76 66 73 66 50 40 40 48 45 41 40 38 38 34 36 39 34 31 30 31 33 29 25 29 41 38 44 39 35 43 54 52 63 61 57 59 58 60 47 48 43 34 42 48 34 41 43
92 84 71 72 73 62 51 38 41 47 43 40 38 34 36 37 35 40 33 29 27 31 36 30 21 23 41 51 45 44 40 39 49 58 65 63 63 60 51 55 53 50 51 41 48 48 44 47 48
89 80 70 75 63 59 52 41 40 46 42 40 37 31 32 32 35 35 30 28 25 29 36 32 26 25 36 48 46 49 44 40 44 56 62 71 61 70 64 56 54 53 46 49 48 55 51 48 53
79 77 69 65 59 56 53 42 34 44 44 41 32 27 34 30 30 29 27 26 24 27 34 33 25 29 28 45 49 51 46 42 41 50 51 57 67 66 62 62 60 60 55 48 48 51 54 56 57
68 72 70 64 57 50 54 43 40 43 45 43 33 32 32 32 30 30 25 26 23 25 31 35 24 26 24 37 49 48 48 46 42 44 53 55 53 62 62 55 60 57 51 50 51 50 54 54 53
66 65 57 58 56 54 43 46 41 45 44 44 37 33 34 33 29 29 23 27 24 24 29 34 27 22 22 27 45 47 47 50 47 41 40 45 48 49 52 50 47 50 49 52 57 56 58 56 53
59 59 54 60 53 47 40 43 42 44 42 42 39 36 36 35 26 27 24 25 25 27 25 31 28 20 17 22 39 44 48 50 48 46 42 42 43 43 46 47 52 51 53 59 56 55 56 55 55
54 53 55 61 54 42 44 47 44 46 46 41 41 35 37 33 27 29 21 22 23 26 25 26 28 19 15 24 34 36 43 48 48 46 45 45 47 46 48 51 54 53 51 56 56 58 59 61 60
52 53 59 62 54 53 47 42 48 52 48 43 40 36 37 34 28 30 28 27 24 26 24 25 28 19 19 25 32 36 40 49 47 45 44 45 51 49 52 55 56 55 57 62 63 61 59 57 58
49 48 61 66 62 57 54 47 48 54 49 49 40 35 39 35 37 32 28 28 24 23 25 25 23 24 15 16 34 40 45 46 49 48 47 48 50 56 56 58 61 60 60 60 59 58 58 62 63
47 56 63 61 61 56 54 48 48 57 56 53 49 42 40 41 36 35 29 30 27 23 23 25 21 20 19 15 24 41 46 48 52 54 57 55 54 56 58 61 61 64 65 64 64 61 62 62 64
52 59 62 62 61 56 55 55 55 53 55 59 55 46 44 45 42 40 34 31 30 25 20 26 20 16 17 16 16 27 46 47 54 56 51 53 57 59 61 60 61 66 66 67 67 64 65 66 68
56 63 66 68 69 60 58 57 50 54 64 64 54 44 54 52 49 41 39 33 34 30 26 23 24 18 14 16 16 18 26 44 45 48 54 56 56 57 56 63 64 65 64 62 62 65 67 65 66

GFSSGP_250_spd_093.txt.gz
Wind_Speed
48 49 50 47 47 50 55 51 50 47 43 48 44 39 40 42 44 49 51 49 45 47 49 51 50 51 52 54 57 60 61 63 64 67 65 65 64 64 64 63 66 68 70 72 74 76 76 77 78
43 44 43 43 47 46 50 49 44 42 44 40 41 39 39 38 41 48 49 52 45 45 45 44 44 47 49 50 52 53 54 53 53 51 49 45 40 40 40 39 38 41 45 52 58 61 66 70 72
32 32 37 38 43 48 50 47 41 39 42 37 41 37 40 39 42 48 47 50 53 49 48 46 45 46 47 49 49 50 49 49 46 39 26 18 17 18 25 29 31 36 36 38 43 47 53 57 61
34 34 37 41 42 47 47 47 38 40 42 35 43 43 38 38 44 48 46 48 48 52 51 50 48 49 47 48 50 47 45 43 42 34 29 24 38 43 29 34 43 42 38 38 41 41 42 46 46
37 37 40 48 43 47 44 42 38 40 44 38 35 46 43 40 42 47 45 47 46 49 50 47 48 49 50 49 47 46 45 42 38 39 36 31 32 41 36 34 39 42 34 34 28 24 24 28 32
47 33 43 48 54 47 46 43 38 40 46 44 38 43 43 42 47 44 45 47 45 45 46 44 45 47 47 48 44 45 45 40 39 44 49 45 37 43 39 40 36 38 28 24 19 20 13 16 25
46 36 50 53 53 46 45 42 39 38 50 47 43 41 42 43 46 44 47 47 46 45 44 43 43 45 44 42 41 42 41 39 40 52 58 48 52 50 44 41 44 36 33 31 27 25 18 14 16
51 44 50 56 49 42 42 40 37 40 50 51 46 43 37 42 43 42 46 46 47 45 42 43 44 42 41 42 40 36 36 37 40 51 60 56 51 47 50 48 49 44 35 30 30 26 22 21 22
59 51 54 58 50 50 48 45 38 42 46 53 44 41 38 41 40 41 43 44 48 47 40 39 41 39 41 41 38 31 30 33 39 59 61 53 51 50 52 49 48 31 31 28 27 22 26 27 23
62 54 59 56 62 48 50 51 43 41 44 48 47 42 36 39 44 42 42 43 46 44 36 37 38 39 39 40 34 25 24 32 39 65 67 57 54 51 49 47 45 37 27 34 31 31 27 26 28
68 62 61 62 63 56 53 49 46 38 44 45 45 42 38 37 41 43 42 42 44 41 36 36 38 38 37 38 33 21 23 30 41 66 67 65 60 56 50 51 42 33 30 34 31 28 31 32 31
69 61 65 65 67 52 55 51 48 47 43 44 46 44 43 35 37 40 46 43 40 41 40 37 38 38 35 33 32 22 23 27 39 59 70 67 61 59 56 51 47 43 35 29 28 20 24 22 26
68 70 70 71 65 65 59 54 50 50 44 39 43 43 43 39 40 38 39 41 38 40 38 36 39 38 35 32 33 26 26 31 43 55 66 66 61 52 49 48 48 41 34 18 29 28 22 24 18
78 74 73 68 65 63 63 57 52 51 46 38 37 43 45 45 41 42 39 39 38 38 39 36 40 38 37 32 31 30 24 37 48 54 50 60 56 47 51 53 49 44 38 25 30 21 23 26 21
74 73 68 69 69 72 71 59 53 53 47 40 38 41 42 45 40 39 37 37 41 41 38 36 37 37 36 33 30 31 25 41 49 56 51 46 49 53 53 55 44 40 40 34 27 25 25 27 23
75 73 67 69 76 80 79 54 59 57 52 42 39 40 39 43 38 36 37 38 40 37 37 37 35 35 37 33 30 34 30 39 46 57 54 56 51 53 59 61 48 46 41 41 37 25 27 26 25
77 73 74 77 82 79 82 67 62 56 54 43 43 38 39 41 35 37 38 37 39 41 38 36 34 34 38 34 29 37 34 42 45 50 63 57 57 57 57 57 48 40 43 37 32 29 34 28 26
85 85 84 85 86 81 78 74 62 46 56 47 45 38 39 36 34 40 33 36 40 41 37 34 32 31 34 34 30 39 37 40 44 47 51 64 62 61 61 53 50 52 42 40 36 36 38 40 35
88 88 87 83 82 84 85 78 64 44 47 50 44 40 38 34 33 38 35 32 38 38 34 30 30 33 28 28 32 38 41 41 47 43 44 56 63 64 61 55 57 54 54 48 37 39 40 43 41
90 90 89 84 87 90 84 62 48 42 35 46 44 37 36 29 32 31 30 29 33 30 29 27 27 34 34 24 28 35 44 45 44 51 49 51 61 63 64 58 54 54 58 52 46 43 42 48 47
91 94 93 93 93 78 78 52 46 38 34 39 40 38 35 29 28 28 28 32 34 29 27 24 27 31 36 32 28 36 47 46 44 45 50 53 52 62 62 60 57 56 56 51 51 49 49 45 50
96 100 98 89 77 60 72 39 39 38 36 39 34 35 37 31 28 29 26 28 30 26 24 24 26 31 36 31 26 30 43 51 47 45 43 48 54 54 59 60 64 59 56 57 59 54 54 46 46
100 103 96 79 74 50 58 46 40 38 41 38 39 38 35 33 28 30 29 25 28 26 23 23 26 30 36 31 21 21 40 46 49 41 41 41 46 55 56 61 63 63 61 60 54 57 61 53 53
93 96 90 66 64 39 58 47 33 37 41 37 41 35 33 33 34 33 32 23 25 25 22 22 25 29 35 28 23 22 29 42 43 47 43 42 46 46 50 62 65 63 71 67 66 55 55 53 54
92 89 65 57 52 42 53 43 35 42 43 43 43 37 29 32 34 31 29 23 24 20 21 22 22 28 29 26 22 20 22 37 39 44 44 43 45 48 53 52 54 56 58 58 57 54 50 49 51
82 66 57 53 47 44 45 37 45 52 43 45 42 36 30 35 36 30 28 23 27 27 22 22 21 26 24 25 20 18 21 31 35 38 43 46 42 41 44 49 51 53 48 53 57 52 52 51 53
66 52 53 48 46 41 44 47 50 53 49 43 42 37 30 32 34 30 31 27 26 28 28 23 24 25 25 22 19 18 22 28 33 37 42 48 47 42 42 44 45 45 47 49 53 54 57 56 57
52 50 49 41 40 39 50 50 51 51 52 50 46 47 33 34 33 32 30 32 27 27 31 27 25 24 24 20 19 16 23 31 35 38 41 47 46 48 44 46 49 47 47 50 50 54 58 61 62
45 42 43 40 40 44 55 54 51 51 53 53 47 43 41 41 45 31 31 34 28 33 34 33 26 24 22 23 17 15 13 28 37 41 43 49 49 49 47 45 49 51 53 54 56 57 58 61 65
41 39 42 39 42 49 60 59 55 50 54 50 49 46 47 48 45 36 33 37 37 39 35 32 31 24 22 23 20 16 12 12 25 41 46 48 47 50 49 50 51 53 55 57 60 61 62 66 68

GFSSGP_250_spd_096.txt.gz
Wind_Speed
45 44 44 44 44 48 50 51 50 47 47 56 48 49 48 42 42 44 45 43 43 45 45 46 49 51 51 51 53 57 59 62 63 61 61 61 61 62 60 60 63 66 67 66 65 68 70 75 79
33 34 31 31 34 39 40 43 42 44 45 49 46 46 42 39 41 43 44 46 43 46 45 44 44 47 49 49 48 48 50 50 50 51 55 56 54 52 48 46 48 50 52 54 53 54 57 63 67
34 34 35 33 37 38 36 37 40 39 44 42 44 46 41 38 43 44 45 45 46 45 44 43 44 47 48 47 47 46 47 46 46 47 47 45 44 42 32 24 23 27 30 32 33 34 38 40 45
37 32 30 36 39 36 38 40 40 35 41 40 40 45 41 39 41 46 46 44 45 46 44 43 42 43 45 46 45 44 46 45 43 40 44 46 39 34 27 20 18 22 28 35 36 34 37 37 37
43 38 34 36 41 36 40 43 43 36 37 39 37 46 43 41 42 43 43 45 44 44 43 41 43 44 45 44 43 43 43 44 38 37 44 45 35 40 35 28 24 22 31 42 44 41 37 40 33
48 43 41 36 47 38 38 36 39 33 36 43 37 42 46 46 44 44 43 43 43 43 41 43 43 45 45 44 42 42 40 41 42 41 47 47 43 45 37 30 28 28 28 34 29 24 25 21 18
45 40 42 44 43 45 42 39 45 36 41 47 39 40 45 49 46 47 45 40 41 39 41 39 39 44 45 44 42 40 38 41 42 43 45 49 47 49 36 26 30 36 31 34 26 22 21 17 15
51 46 50 54 39 52 46 40 44 41 40 45 38 39 44 47 46 47 44 40 39 39 40 40 41 43 40 39 40 41 42 37 36 39 45 48 48 53 44 37 19 37 42 35 26 22 21 16 16
58 52 52 59 47 54 47 45 46 49 45 45 37 37 42 41 43 45 44 40 39 39 39 41 41 40 39 36 38 42 42 38 37 40 43 46 48 49 44 42 46 42 44 35 35 25 20 16 22
55 50 52 58 55 55 53 45 50 47 50 50 46 35 36 36 40 44 42 41 39 37 39 39 40 41 42 38 39 40 38 38 34 33 38 44 47 54 49 44 41 49 42 33 29 33 26 16 20
58 55 59 61 58 51 57 50 53 54 45 45 45 40 36 31 37 41 41 40 39 41 39 36 37 41 43 41 39 39 37 35 29 29 34 43 55 59 50 47 44 55 42 33 38 36 31 22 30
61 59 61 61 62 56 57 57 53 54 55 48 40 36 34 34 34 39 40 38 43 41 43 38 38 39 43 44 42 42 36 31 26 24 29 41 56 61 60 54 56 48 41 42 29 29 18 22 30
62 66 61 61 68 65 64 61 59 54 57 55 48 36 30 33 33 38 40 39 42 43 44 39 39 38 41 42 41 43 38 29 25 21 22 37 54 60 64 52 41 37 39 39 28 24 26 20 24
65 62 66 64 69 70 68 62 59 63 57 55 54 51 31 32 33 37 40 40 39 39 41 40 41 43 41 40 41 41 37 29 23 21 28 32 54 55 55 51 50 52 45 35 28 26 25 26 32
64 63 65 65 66 70 71 58 62 61 63 62 56 48 43 38 35 34 38 38 36 36 39 39 40 40 40 41 42 41 36 29 24 28 35 36 49 60 58 52 48 47 46 40 33 32 28 25 29
67 68 65 68 71 71 68 58 63 66 69 63 54 49 47 42 39 36 36 37 37 36 36 40 40 40 39 39 41 42 33 29 29 29 43 41 42 53 59 61 51 46 42 36 35 36 29 27 30
64 66 67 66 69 68 73 69 69 73 72 60 60 54 42 43 39 39 37 38 33 36 34 39 42 41 38 34 37 40 31 28 32 32 42 48 44 47 63 55 50 48 44 41 36 38 33 28 29
82 80 73 74 77 81 79 75 75 73 67 60 62 51 37 41 39 38 40 34 32 36 35 38 39 37 32 33 32 36 33 26 36 34 40 49 51 51 45 54 60 48 47 45 41 42 40 40 33
89 82 78 79 82 86 86 72 66 65 68 62 63 50 40 40 41 33 41 31 32 32 32 37 35 30 30 31 32 25 32 26 38 38 44 46 56 52 52 54 53 55 49 47 43 46 37 41 38
83 81 81 85 86 82 77 64 67 69 72 63 56 45 41 41 30 30 41 29 30 29 32 37 32 29 28 30 30 29 25 27 37 41 44 46 51 58 58 56 54 50 53 54 46 45 46 39 44
85 82 80 81 82 82 81 70 72 73 74 72 53 41 43 40 27 31 42 28 29 26 29 34 29 29 29 30 30 28 26 27 33 42 45 49 48 52 56 59 58 57 55 56 54 53 46 47 42
81 82 82 78 81 81 84 70 73 75 77 71 46 46 37 36 33 35 41 29 27 26 28 32 30 28 28 29 29 27 26 24 32 43 45 49 45 45 51 45 58 54 58 57 58 56 58 56 52
82 88 88 89 87 90 88 88 73 74 64 49 46 43 40 38 32 35 39 28 26 24 28 31 29 28 27 28 29 28 23 22 28 39 44 47 46 47 44 50 52 52 53 61 62 62 58 57 59
90 91 93 93 93 90 88 88 59 69 64 44 53 47 47 39 30 34 37 30 28 26 28 28 28 26 26 26 29 31 25 15 21 34 42 42 42 43 46 49 49 54 56 60 60 61 64 60 60
89 90 94 94 92 88 89 79 65 63 62 46 52 46 47 41 37 35 39 32 31 28 26 25 24 24 24 24 28 31 26 18 13 24 34 38 35 39 38 51 54 52 57 59 58 62 62 62 62
85 87 86 86 82 80 68 62 53 51 52 47 54 46 44 38 36 37 35 33 34 30 29 25 25 27 26 26 23 27 27 17 14 14 27 31 37 38 39 43 51 55 56 58 62 63 63 70 70
79 77 81 76 58 53 48 43 47 38 47 50 49 50 49 41 41 40 31 31 30 26 29 23 24 25 26 28 22 22 25 19 14 12 24 28 29 35 42 43 47 47 50 49 57 61 58 60 66
81 82 75 64 50 42 41 41 41 39 47 52 53 53 44 43 41 35 30 31 30 27 29 27 22 23 27 27 25 20 21 19 15 16 19 25 27 29 41 42 45 49 51 53 53 54 56 56 60
69 68 63 52 42 37 40 39 40 44 53 55 55 55 47 41 41 37 32 29 32 28 31 28 23 27 27 27 25 19 17 18 15 18 23 27 30 31 35 40 44 43 44 49 52 51 51 49 53
58 59 49 40 36 37 38 39 47 52 57 57 59 52 49 47 43 39 33 35 33 29 29 32 33 30 30 28 24 22 17 16 16 14 17 26 33 38 37 39 42 42 45 43 46 50 53 54 52

GFSSGP_250_spd_099.txt.gz
Wind_Speed
47 45 42 44 44 44 42 41 45 45 48 52 52 49 47 46 49 48 48 50 50 49 49 50 50 50 50 51 52 53 53 54 54 54 57 61 64 67 72 74 76 76 78 77 75 78 81 80 81
41 38 37 38 40 39 37 37 40 42 45 48 50 48 47 45 45 48 49 49 49 48 49 47 48 50 51 49 49 49 49 51 51 51 52 53 54 57 60 61 64 65 66 65 66 68 71 69 69
40 40 37 36 40 39 36 34 32 32 36 43 46 45 48 49 46 48 49 49 50 49 49 48 46 47 47 47 45 43 43 46 47 47 49 49 48 50 51 51 52 53 54 52 48 47 51 52 51
44 42 38 39 43 41 37 33 27 31 36 42 40 36 40 46 48 49 50 51 52 51 51 47 46 46 45 44 43 40 40 42 42 44 48 47 48 44 43 43 41 42 41 28 18 19 26 31 33
42 43 40 43 47 47 47 38 27 26 32 39 34 39 41 40 45 50 52 52 51 51 51 47 46 46 46 43 42 41 39 39 39 42 46 47 46 45 40 40 37 36 33 25 20 22 31 35 33
44 44 39 43 46 49 50 39 34 28 33 40 37 44 44 39 37 48 52 52 51 49 51 46 46 45 43 40 40 39 39 39 36 38 43 42 45 43 40 40 43 41 33 24 20 23 31 37 37
48 44 41 46 53 51 46 36 31 32 33 41 40 37 46 43 44 46 51 53 50 48 48 46 45 43 40 40 40 36 36 34 35 37 40 41 46 44 38 40 46 41 33 27 23 24 22 28 24
46 41 42 54 55 56 56 44 39 38 37 43 41 39 44 42 41 47 51 49 50 50 46 42 42 41 40 40 41 35 34 33 36 38 37 42 41 42 38 42 53 44 35 30 20 24 19 23 20
53 46 43 57 59 59 54 48 43 40 40 41 42 46 44 45 41 45 43 46 44 50 42 38 39 38 37 38 39 33 34 36 37 39 38 40 35 37 39 46 55 41 36 32 26 24 25 22 18
61 54 51 63 56 56 55 49 50 37 33 45 44 45 43 44 40 46 40 41 42 46 40 35 35 37 38 37 38 36 34 36 36 39 38 38 34 37 40 47 53 46 36 26 32 26 28 25 16
66 56 63 63 63 58 58 56 55 44 35 49 45 46 44 47 44 47 44 39 41 45 42 36 33 38 40 41 38 36 36 34 34 38 36 37 32 33 38 46 51 55 34 38 32 29 32 31 30
64 57 58 62 65 59 56 57 52 46 43 50 43 46 45 47 52 43 43 38 42 45 42 36 35 36 38 39 38 38 37 35 35 34 34 33 31 29 39 50 49 48 47 41 34 27 27 33 34
61 58 58 58 60 61 61 55 55 47 56 49 44 42 43 49 43 46 43 43 41 43 43 38 38 38 38 38 38 36 36 35 34 32 28 29 22 25 41 46 45 42 40 39 27 32 32 28 22
68 69 65 64 67 65 61 58 58 60 55 49 46 43 47 49 49 49 47 44 44 43 40 40 38 40 39 39 39 40 36 35 34 31 24 23 15 17 52 49 45 43 41 39 40 36 34 32 28
73 73 73 70 61 61 62 59 59 62 59 51 52 53 53 53 51 49 49 43 48 43 38 39 40 39 39 40 40 40 36 36 35 26 23 20 23 23 46 56 54 47 44 39 34 36 37 30 26
76 67 61 58 63 65 70 53 58 61 59 56 56 60 58 54 51 49 49 44 48 40 37 38 39 36 38 39 37 37 35 36 35 21 23 26 29 30 51 52 62 54 46 38 43 41 33 30 28
80 80 73 74 72 73 69 56 55 60 60 56 62 64 63 48 50 51 51 42 43 37 37 38 37 35 36 34 32 30 33 38 32 20 28 34 35 35 46 50 52 59 53 45 43 42 36 34 36
85 84 84 80 78 77 70 61 60 65 68 70 72 71 57 48 52 54 54 44 40 33 35 35 36 32 34 35 29 29 29 32 30 21 32 37 40 40 50 54 51 50 48 57 51 40 41 39 38
89 88 84 81 80 81 78 75 76 76 74 75 73 68 51 51 53 55 54 46 41 33 36 33 32 28 31 31 28 28 26 30 34 23 34 37 46 45 47 51 55 57 56 50 47 40 38 41 42
78 81 84 85 86 85 80 72 71 73 72 69 68 62 51 54 54 55 54 43 40 31 37 31 29 28 31 30 28 29 27 31 32 25 30 40 47 45 45 43 46 55 55 55 48 44 43 41 40
79 81 84 86 86 83 79 71 73 72 72 71 66 62 53 56 56 58 53 40 44 31 37 31 28 27 31 28 27 26 26 29 30 28 28 45 46 53 48 48 52 47 52 58 50 44 43 46 45
86 83 85 85 87 84 83 72 73 73 69 70 68 64 58 58 63 59 46 43 47 32 36 31 29 26 31 25 25 25 26 30 27 24 29 47 49 51 56 58 48 49 49 53 51 52 50 50 51
83 88 81 82 84 84 82 80 65 68 68 71 71 69 68 67 64 56 43 48 53 33 38 32 31 24 27 24 25 24 25 29 23 23 24 45 49 48 48 57 58 56 53 52 50 56 59 58 58
86 84 81 79 81 77 80 80 65 71 77 76 73 72 69 59 55 49 45 46 46 37 40 35 28 23 24 24 24 23 24 26 24 18 21 34 49 49 47 48 56 57 53 53 54 55 55 59 60
82 83 81 82 81 73 80 76 72 74 77 72 71 70 66 59 55 50 44 46 48 39 42 36 26 24 22 25 23 25 23 25 23 15 15 25 42 43 46 45 47 51 54 49 50 56 58 62 65
82 85 79 76 74 74 76 65 66 68 66 64 63 60 53 51 51 47 47 47 45 41 40 36 29 27 23 24 23 26 25 22 23 10 5 17 30 36 46 44 45 46 52 50 52 53 55 57 63
81 80 80 81 75 71 65 61 60 63 62 57 53 47 44 45 49 45 49 49 41 41 38 34 32 28 27 21 20 25 25 23 21 10 3 9 21 30 35 35 41 42 44 56 55 50 48 57 62
83 83 82 77 72 69 60 60 60 64 52 46 44 39 40 46 48 57 56 50 44 38 38 35 27 30 29 19 19 23 25 23 17 16 6 12 16 22 25 34 36 39 38 47 56 56 57 54 57
82 80 84 82 72 65 60 55 64 48 41 38 35 37 43 48 53 54 60 55 43 37 35 30 25 28 28 19 21 26 24 23 18 14 14 11 15 20 21 23 30 38 41 45 51 56 58 58 58
89 88 93 79 77 60 52 48 45 37 39 35 39 43 47 52 54 53 54 50 43 40 35 35 28 34 31 26 23 21 23 22 21 15 13 12 14 21 21 22 24 31 39 44 44 47 52 54 58

GFSSGP_250_spd_102.txt.gz
Wind_Speed
51 51 49 48 47 44 42 41 43 43 44 49 52 56 56 54 53 50 50 50 51 49 51 52 51 49 50 51 51 52 52 52 52 54 55 57 61 64 66 66 71 78 81 83 85 89 90 88 86
46 46 47 46 46 45 41 40 41 39 40 44 49 51 53 53 52 50 48 48 49 51 52 51 50 49 49 50 49 49 49 50 49 49 52 54 54 56 58 60 58 64 68 71 75 76 74 75 77
46 46 46 44 45 46 41 38 38 33 34 42 47 42 43 40 46 46 48 46 46 47 49 51 50 49 48 49 49 48 47 46 46 46 47 48 52 54 53 51 52 49 55 58 61 63 65 67 68
46 47 47 46 49 49 46 44 38 37 36 40 37 33 34 38 43 42 46 43 46 43 47 51 52 51 51 47 43 43 42 42 42 43 43 44 46 48 50 46 46 42 44 47 47 50 49 49 53
46 47 45 46 51 50 48 45 37 36 35 40 42 36 32 33 38 44 45 44 42 39 47 52 54 53 51 47 43 42 41 40 40 40 42 40 42 44 46 46 48 42 41 42 38 38 30 23 26
51 50 48 47 48 50 49 43 32 29 33 43 42 40 36 33 38 42 45 48 41 43 47 50 52 53 51 46 42 40 39 38 38 37 37 38 40 40 43 44 47 43 43 39 31 36 33 29 20
51 49 47 45 53 55 51 42 33 32 42 45 43 43 38 32 39 43 46 43 41 41 50 51 51 49 50 46 40 35 36 36 33 34 32 33 35 37 40 39 41 41 40 37 33 35 37 32 33
57 55 48 49 56 57 55 46 39 39 41 44 44 43 38 34 41 43 45 44 43 42 45 44 44 46 45 42 35 34 35 34 31 29 30 32 30 34 35 35 36 36 36 41 37 35 27 28 18
62 53 49 53 60 62 59 52 47 47 46 44 47 43 38 34 41 43 42 46 48 41 43 47 42 43 38 38 35 35 37 36 31 31 32 34 31 35 31 32 35 39 41 47 44 33 27 23 19
64 56 53 63 66 66 63 56 55 51 51 47 54 51 44 34 41 44 44 46 48 46 44 44 39 38 37 38 36 34 34 34 33 32 31 32 34 35 25 26 35 43 46 51 45 40 26 25 22
69 64 60 58 66 64 63 64 59 59 55 53 55 44 40 38 42 46 43 46 48 50 47 45 41 34 38 39 34 35 36 32 32 32 33 32 32 33 23 25 36 45 53 46 41 28 31 33 22
67 67 68 69 71 72 69 70 67 55 51 53 50 42 40 40 41 43 46 49 50 52 53 48 45 35 36 37 36 36 36 34 32 32 33 31 32 29 25 27 39 48 51 46 37 35 30 26 30
68 67 70 72 74 75 73 67 60 53 55 56 53 49 46 41 38 41 43 49 49 51 54 45 47 38 35 36 35 38 37 34 33 34 30 30 30 27 25 24 40 49 53 49 36 34 36 33 33
72 71 72 73 72 71 69 65 63 58 65 61 61 53 48 42 40 45 45 48 49 50 51 45 45 44 40 36 35 38 37 35 33 31 27 33 27 26 20 19 41 47 51 46 38 38 34 29 28
72 71 69 70 73 72 72 62 62 68 70 63 55 57 48 47 46 49 49 50 48 50 49 45 44 44 40 34 35 37 38 34 30 27 28 31 24 22 16 21 44 50 49 44 43 38 31 32 29
74 73 68 68 73 72 78 59 68 63 61 60 65 62 48 50 52 50 52 53 49 50 50 45 42 42 41 35 33 39 36 34 25 27 29 26 24 21 26 38 45 49 44 43 38 40 38 33 30
76 74 71 71 75 79 77 60 61 58 57 59 66 59 56 51 49 54 57 55 49 50 50 45 40 41 38 33 33 37 36 29 25 27 27 23 27 27 35 40 50 51 43 41 42 35 38 37 32
74 73 77 75 75 76 77 69 70 73 73 72 65 60 60 60 63 63 61 60 49 50 49 43 37 38 35 31 33 35 34 27 25 27 27 24 32 32 44 46 50 52 53 42 43 40 34 34 36
85 84 81 78 74 73 74 73 76 76 71 69 67 64 65 66 66 64 57 53 47 52 50 49 35 38 32 31 32 33 33 26 27 29 32 25 34 39 51 51 52 52 52 47 46 38 39 44 43
91 89 77 74 75 73 72 58 64 71 75 73 71 68 66 64 61 57 57 47 50 52 49 47 35 39 31 30 30 32 30 25 25 28 32 27 31 47 45 52 55 53 54 49 49 48 48 42 38
90 82 78 76 78 76 71 58 61 64 64 68 67 70 70 66 59 57 53 47 50 53 52 46 35 39 29 29 29 32 27 25 26 29 33 28 31 49 49 47 55 52 49 51 50 55 54 48 44
81 81 83 81 80 75 77 67 66 68 65 68 73 72 66 62 60 62 55 47 51 54 53 44 35 37 28 28 30 27 22 23 27 29 33 28 31 49 52 50 47 59 57 58 56 52 46 51 45
77 81 81 82 84 83 79 74 65 66 70 73 70 69 68 66 65 53 52 51 54 56 53 41 36 36 29 26 31 24 22 23 27 28 31 24 30 49 54 54 49 55 65 64 54 58 55 49 52
84 81 85 84 81 78 76 77 70 68 64 67 63 64 66 63 61 58 57 56 57 56 50 37 39 35 30 27 30 23 22 24 25 28 30 21 28 48 60 56 49 57 54 56 58 54 51 55 54
90 89 89 89 84 78 79 80 74 66 63 54 63 70 67 65 63 64 62 59 55 54 52 36 39 34 31 29 28 22 24 23 25 27 28 21 24 38 60 62 56 57 54 53 53 51 53 53 54
92 89 87 88 88 82 80 76 67 63 60 62 66 70 72 70 67 66 62 59 51 52 48 36 39 37 34 32 29 21 20 20 20 24 25 19 22 34 55 61 62 57 55 53 52 52 51 55 56
91 89 91 93 90 89 85 75 67 63 63 63 61 63 65 59 58 58 54 52 54 49 48 41 43 39 36 31 28 23 19 20 17 20 24 13 14 24 44 48 53 50 54 55 58 53 54 58 59
89 91 89 87 81 82 73 69 67 67 63 59 54 52 51 52 55 57 47 49 45 49 46 43 43 40 33 29 28 22 17 22 19 16 19 14 8 14 27 39 40 47 46 52 53 53 58 54 50
85 85 84 79 75 75 70 68 67 67 65 59 51 49 53 58 49 43 45 44 45 45 42 41 41 34 35 26 27 23 20 23 21 15 16 15 14 14 19 28 33 35 42 46 51 51 56 58 58
82 81 82 83 83 82 82 69 68 67 64 57 41 47 46 46 35 36 40 39 46 46 41 42 38 36 29 26 26 26 22 23 22 19 18 16 9 17 24 27 28 32 35 43 48 49 46 50 53

GFSSGP_250_spd_105.txt.gz
Wind_Speed
58 54 52 52 51 51 48 44 48 46 48 50 51 53 52 51 53 52 53 51 52 51 49 47 47 48 48 48 50 50 48 47 49 50 52 56 58 58 59 61 66 70 74 78 82 84 86 89 89
49 49 48 47 47 49 45 42 46 43 42 43 47 48 50 47 50 53 53 53 52 50 48 43 43 44 46 46 48 49 48 47 46 47 50 51 52 54 57 57 57 60 62 64 69 69 73 78 82
45 45 45 45 45 46 43 42 43 41 42 44 46 47 49 48 47 49 49 47 49 50 51 46 41 39 41 45 48 48 47 46 44 43 44 46 47 49 50 52 51 54 52 53 57 60 58 58 63
49 46 46 44 47 46 45 43 44 43 43 45 45 49 46 43 44 43 46 44 48 47 49 47 42 39 43 45 47 48 46 44 43 40 41 42 42 44 47 49 48 49 48 50 55 52 52 52 51
47 47 45 46 49 48 45 44 45 42 40 42 43 43 40 40 42 46 42 41 48 47 49 42 38 38 41 44 42 41 42 40 38 36 37 37 39 42 45 43 39 40 44 41 49 49 45 44 45
51 49 46 48 52 51 50 48 46 43 40 39 40 41 43 45 44 46 47 46 45 45 46 45 37 41 40 42 40 39 38 35 34 34 34 34 35 37 40 42 40 45 43 43 41 48 41 41 41
55 53 48 52 56 58 55 50 46 42 40 42 43 41 44 45 43 44 45 43 44 44 47 43 41 41 43 43 42 40 35 32 30 31 32 31 32 28 29 32 37 40 44 41 44 45 39 36 34
61 59 54 56 62 64 60 55 47 45 47 43 42 46 45 47 48 46 49 44 45 44 48 44 37 38 42 42 41 37 31 29 31 33 32 30 31 32 36 33 32 36 39 40 39 38 34 36 43
66 61 58 63 67 69 63 56 52 50 48 47 45 48 50 47 52 55 53 45 44 45 46 44 42 44 44 42 41 39 33 30 32 32 34 32 32 32 36 37 36 36 36 37 38 36 40 38 37
69 64 62 66 70 68 63 58 56 53 53 51 53 55 56 56 57 57 50 45 45 47 47 45 45 48 48 47 43 39 33 33 32 32 33 33 32 32 30 29 29 36 37 39 39 41 43 36 40
70 61 65 68 73 71 69 63 61 58 52 56 58 61 58 63 57 49 44 46 46 46 46 45 47 49 49 48 44 37 35 33 34 33 35 34 34 34 30 27 28 31 33 43 45 47 42 36 36
68 64 66 66 75 70 68 70 65 61 62 60 61 64 64 62 55 47 44 46 44 47 46 46 47 52 50 46 41 37 34 33 34 34 38 36 35 32 30 26 30 31 32 45 47 48 38 39 34
66 65 67 65 67 65 64 64 66 64 63 66 65 66 61 57 50 49 45 45 47 49 51 50 50 54 46 43 41 36 35 35 34 35 36 39 35 31 30 27 29 32 34 46 50 51 47 43 38
64 64 64 64 63 63 62 64 64 62 70 70 67 63 57 54 54 50 46 45 49 51 52 51 52 53 46 38 39 36 32 33 33 36 36 36 33 29 28 26 27 30 34 51 54 47 35 32 41
71 68 67 64 62 65 67 61 64 70 74 72 68 59 56 54 55 49 52 50 53 52 49 50 53 52 48 41 43 34 31 32 33 35 37 34 26 28 25 24 26 28 39 56 47 44 40 35 37
77 77 73 71 73 72 72 57 67 72 71 68 66 63 59 58 55 57 53 49 48 47 49 54 56 50 44 46 42 34 34 31 32 33 35 26 23 23 21 22 20 22 47 56 48 43 39 35 35
81 75 72 74 76 75 75 67 69 69 68 68 65 63 62 57 55 53 55 47 46 48 51 60 53 45 40 43 43 35 32 30 32 31 33 25 21 22 21 23 20 32 54 50 48 48 41 37 34
88 83 82 83 85 83 81 72 68 69 69 67 65 67 67 68 66 67 61 56 56 56 56 52 46 42 40 41 39 33 32 30 32 31 29 26 21 22 25 27 33 39 53 48 46 44 45 40 39
93 92 88 88 91 87 80 75 73 72 67 67 68 66 66 67 70 72 66 61 57 54 52 50 48 39 40 40 36 34 33 31 32 30 27 23 23 22 26 31 48 49 51 54 53 47 44 38 38
99 95 92 90 90 91 86 77 76 73 68 68 67 67 65 59 53 58 66 63 56 54 54 52 45 39 37 41 33 34 34 31 32 31 27 23 26 24 26 35 56 51 51 55 50 47 43 40 39
102 99 95 91 92 90 87 78 74 75 74 68 68 66 63 59 58 56 55 55 55 57 56 52 48 42 36 45 35 33 33 32 30 27 25 24 28 30 26 39 57 59 56 55 48 39 48 46 40
91 88 93 93 95 90 84 74 74 74 74 70 69 66 64 64 61 59 55 54 54 54 54 52 46 42 35 45 36 32 31 31 28 25 24 25 30 34 27 45 59 62 59 56 54 54 51 47 46
88 89 92 96 92 80 76 74 68 64 67 70 70 68 66 61 59 59 55 56 53 55 53 53 47 43 34 42 35 33 29 28 27 25 24 25 30 34 28 52 56 66 57 66 57 55 54 56 53
78 79 84 81 68 73 70 72 64 59 67 72 71 67 64 56 59 49 50 51 54 55 55 53 48 45 33 40 34 34 29 26 27 27 28 28 32 33 28 49 61 58 61 64 60 54 56 60 53
82 82 82 80 77 73 69 67 57 60 67 70 70 67 64 63 50 46 45 48 51 52 49 52 52 45 36 38 35 34 30 25 23 21 24 26 31 30 29 48 58 62 62 62 68 59 60 55 50
81 81 80 76 73 74 71 65 66 67 72 74 70 70 69 65 54 42 43 50 55 57 54 55 53 47 37 37 38 35 33 26 23 18 22 24 28 27 23 43 60 63 64 62 69 66 57 58 49
80 79 80 79 73 71 69 73 76 74 74 74 74 75 71 70 54 44 52 56 61 65 62 59 54 48 39 38 41 37 33 30 25 17 22 23 25 24 18 35 61 63 60 61 62 63 60 61 63
80 81 79 77 74 74 74 75 76 79 77 77 76 74 71 60 53 51 49 55 57 60 54 55 54 46 41 40 43 38 35 31 23 19 22 22 21 20 20 23 54 70 65 58 55 58 61 61 59
73 80 85 83 80 81 80 81 82 79 78 77 77 65 58 54 51 45 46 52 55 55 57 55 55 46 46 43 44 39 36 31 21 19 20 19 18 17 16 19 31 63 65 61 56 52 54 55 57
72 70 75 76 75 74 73 72 74 77 78 72 65 62 55 56 52 49 51 57 52 47 47 50 50 45 49 43 42 39 35 29 22 19 18 18 15 15 13 15 23 43 59 65 68 61 58 56 58

GFSSGP_250_spd_108.txt.gz
Wind_Speed
69 68 66 66 61 61 59 53 55 54 49 50 52 52 53 52 51 49 50 50 51 50 50 49 48 45 45 45 46 44 47 50 51 51 52 54 54 55 59 60 61 61 63 65 67 73 78 82 84
63 61 58 58 54 53 51 47 49 47 45 47 49 50 51 48 49 46 48 49 48 48 48 48 48 47 44 44 41 43 45 47 49 49 49 50 51 52 54 56 55 56 58 60 61 61 64 68 72
58 55 49 46 45 49 45 41 43 44 44 46 49 47 47 46 44 46 47 47 48 45 47 47 50 46 46 42 39 42 44 45 46 47 44 47 46 47 49 49 48 48 48 46 49 52 56 57 60
49 46 45 42 47 47 47 42 43 44 46 47 49 47 47 46 46 43 46 45 45 46 47 47 49 49 44 41 41 40 43 42 39 40 39 41 41 42 44 44 44 43 42 41 45 46 45 49 53
49 48 46 45 49 50 47 44 43 46 45 44 48 49 48 47 47 44 44 45 45 44 44 46 50 46 43 44 43 39 39 40 38 34 35 34 35 36 40 40 40 42 45 42 38 49 49 45 47
51 51 48 48 53 51 50 47 48 48 46 45 48 49 47 46 47 45 44 44 46 46 48 51 51 48 44 37 41 37 39 35 36 33 32 29 32 32 34 34 34 36 38 40 40 45 43 44 41
55 55 52 52 54 54 56 52 51 49 46 47 49 49 49 46 47 47 47 45 48 50 52 54 49 48 47 39 42 34 37 37 33 31 28 30 29 32 34 37 36 29 35 38 42 44 28 43 37
58 55 52 54 58 61 61 59 53 51 48 48 50 52 52 49 48 50 48 49 50 55 55 53 47 45 46 43 44 41 41 39 34 28 26 30 31 35 35 37 40 42 33 30 43 37 39 33 35
61 56 55 59 67 69 67 60 56 52 50 52 52 54 56 52 52 53 51 50 50 56 55 50 47 44 42 46 49 43 40 37 33 28 27 27 32 33 35 38 40 44 39 38 36 39 41 37 36
65 60 62 64 71 73 68 64 60 57 55 53 54 57 60 59 56 57 54 54 53 56 50 46 46 43 44 46 48 47 41 38 33 28 30 29 33 33 33 38 44 42 44 43 36 36 41 41 41
69 63 68 68 74 73 70 67 64 60 57 58 60 57 60 59 57 58 57 56 54 48 48 49 49 47 44 46 46 48 40 38 33 30 30 30 33 35 35 37 39 39 42 41 45 43 41 45 40
73 71 70 69 74 71 70 69 65 64 64 62 60 57 61 60 56 59 59 60 52 50 53 50 51 44 46 46 45 48 44 40 39 30 32 32 34 35 34 35 38 38 37 37 37 42 45 44 42
71 73 72 72 73 71 68 67 70 66 63 68 63 62 62 62 62 59 59 59 52 53 53 53 47 47 48 45 46 50 46 39 42 31 35 33 33 35 34 36 36 37 37 36 35 40 50 49 44
78 75 72 71 68 71 71 70 69 65 63 67 63 59 61 62 59 59 57 54 52 56 58 50 51 45 46 47 46 48 43 43 37 32 34 34 34 34 34 34 33 35 34 35 33 44 51 50 44
84 76 74 70 69 69 69 66 68 66 65 64 64 62 61 60 60 56 54 54 56 55 52 54 49 45 47 48 49 49 41 42 35 32 33 34 33 32 30 31 31 31 32 35 36 42 54 51 46
86 86 80 77 75 71 71 59 67 64 67 68 69 63 61 59 57 57 56 57 55 56 53 55 50 47 46 46 51 48 45 40 37 32 32 31 32 29 29 27 26 25 29 31 33 46 53 46 46
83 88 90 87 79 79 76 72 75 69 72 72 67 64 64 62 61 60 59 56 56 52 52 49 49 49 50 52 48 48 47 43 38 30 31 32 31 29 26 26 20 18 16 23 27 47 48 44 46
89 87 88 91 92 87 83 79 79 77 76 73 70 68 69 68 64 63 60 56 58 59 58 60 59 58 53 49 47 50 46 39 37 30 31 32 32 28 26 24 19 17 19 21 35 46 40 42 43
97 91 89 89 93 92 88 87 81 77 75 75 71 71 71 71 70 68 57 58 60 59 60 59 59 59 52 47 47 47 46 39 38 31 31 32 33 29 25 20 20 25 28 27 43 52 48 46 43
97 93 90 92 91 93 94 89 88 82 79 80 79 78 75 73 70 64 60 61 61 57 52 52 55 55 51 48 48 50 47 39 39 33 31 32 33 30 26 20 22 25 36 35 49 53 51 48 47
97 92 91 92 92 90 92 85 85 88 84 85 83 82 76 73 70 69 66 61 55 53 53 53 54 53 52 45 48 50 49 39 38 34 31 32 32 29 28 25 22 27 39 48 51 52 51 46 47
98 97 98 95 92 78 92 87 85 82 83 85 85 81 76 75 72 70 72 65 58 57 56 56 56 51 52 45 44 48 46 40 37 35 31 33 30 28 30 27 24 30 45 57 51 56 53 54 49
89 97 94 94 92 93 84 85 84 80 84 85 85 84 79 75 65 65 62 60 59 61 55 56 57 53 52 48 42 45 46 39 37 35 31 33 29 28 32 31 28 30 48 64 61 57 60 52 47
87 88 87 94 93 90 82 85 81 77 79 81 84 81 78 74 66 63 57 57 60 56 58 56 55 53 52 48 43 43 46 38 38 35 30 32 29 31 33 33 33 31 45 69 64 60 60 53 47
74 81 84 86 84 79 82 83 74 70 71 70 70 75 72 64 57 56 56 58 54 55 57 54 54 52 50 49 45 43 44 37 38 35 28 27 26 28 31 32 34 32 48 66 65 62 56 62 54
69 70 72 75 71 74 74 74 77 63 64 67 71 68 65 57 55 53 57 56 52 54 56 54 52 52 50 47 43 42 41 38 38 36 26 21 19 23 29 31 33 32 45 59 70 60 64 59 62
71 65 72 71 65 74 65 66 66 69 66 67 68 67 61 60 59 57 54 52 53 55 58 56 55 53 53 50 45 44 38 41 40 37 27 25 25 22 27 29 28 29 41 60 64 64 63 66 60
70 72 70 70 67 71 69 70 71 75 72 73 73 66 65 65 66 65 56 56 56 57 55 56 58 58 60 58 52 46 38 43 43 37 29 28 26 25 25 26 21 25 37 62 63 64 61 69 66
71 69 68 74 73 70 70 73 73 77 73 71 70 70 70 72 68 66 62 61 58 53 55 54 59 59 58 59 54 46 42 45 44 37 28 26 23 21 22 22 20 16 30 54 68 64 64 63 71
74 72 69 67 69 72 73 73 71 75 74 71 67 66 67 70 70 69 61 59 49 52 54 58 60 60 58 59 53 42 47 47 44 37 28 27 23 19 19 19 17 18 18 47 62 64 67 63 67

GFSSGP_250_spd_114.txt.gz
Wind_Speed
78 79 78 80 79 77 76 76 78 81 73 71 72 74 69 71 69 67 62 56 53 51 52 51 47 44 44 42 43 40 41 41 39 40 40 42 44 46 48 52 56 58 61 63 65 66 66 65 66
75 76 77 78 77 77 73 75 83 80 70 59 70 66 66 65 61 61 53 49 48 48 48 45 41 36 37 38 40 40 43 44 42 39 36 37 40 43 45 47 49 51 54 56 58 60 60 61 60
73 73 74 74 72 67 68 72 80 74 63 61 59 56 57 57 51 50 44 45 45 43 42 38 36 32 32 34 38 41 43 43 41 39 38 35 39 42 45 44 44 47 48 48 47 50 47 43 44
61 66 68 67 66 58 59 64 68 60 48 55 51 51 51 49 45 39 43 44 42 39 36 33 33 32 33 36 40 44 43 43 40 38 38 37 38 38 40 42 42 44 43 38 32 33 37 40 40
51 56 57 55 54 53 55 57 59 45 45 44 48 48 47 43 41 37 42 42 39 37 35 35 34 35 35 38 41 46 44 42 38 38 38 39 38 37 39 39 38 38 37 37 33 32 31 38 36
47 52 50 49 51 54 54 55 49 44 46 44 48 50 47 39 43 35 43 41 37 37 37 37 37 37 39 41 42 46 45 44 39 41 42 41 36 37 37 34 31 31 31 32 30 32 23 28 36
51 50 47 50 50 52 56 59 46 47 47 46 49 48 48 40 44 39 45 41 37 37 39 40 42 41 41 45 44 48 47 45 42 42 41 43 39 40 35 34 29 27 28 30 31 31 28 28 27
53 52 45 48 53 54 60 61 46 47 47 50 49 49 52 41 41 50 45 44 38 38 41 43 44 44 45 49 50 51 49 45 42 41 43 43 41 43 37 34 31 31 28 30 31 31 26 27 29
59 54 45 49 56 56 64 66 50 51 51 51 53 51 51 45 48 51 46 46 43 41 41 45 45 46 45 48 52 54 52 47 43 43 41 41 40 42 37 34 35 35 33 34 35 33 34 32 32
66 60 51 59 61 60 62 63 62 52 57 54 53 51 54 51 51 55 52 50 48 46 43 46 48 50 47 49 51 53 52 50 47 43 42 43 37 38 39 34 35 37 35 35 32 34 36 35 30
70 55 65 62 65 68 66 65 65 57 56 57 56 55 57 54 54 59 59 57 50 49 48 46 49 51 51 50 51 53 54 51 47 44 42 37 35 37 35 33 34 35 35 36 36 35 37 37 34
80 67 69 68 69 71 71 68 67 64 63 58 62 55 58 58 62 64 64 61 53 50 49 48 50 54 55 53 53 51 52 52 48 46 44 39 38 37 36 33 35 35 37 38 37 36 37 37 36
84 79 77 75 74 71 74 72 69 63 60 60 63 60 58 62 68 67 65 58 54 53 53 50 53 57 54 54 53 48 52 49 49 49 48 42 41 41 41 37 33 37 36 35 37 34 36 36 36
91 90 84 84 76 75 77 75 76 66 64 61 63 65 64 60 67 67 62 61 61 61 52 51 56 55 52 54 53 50 49 51 49 51 50 48 44 43 42 34 33 33 34 33 34 33 32 31 30
101 99 93 86 78 80 85 80 71 73 71 66 63 67 66 62 62 61 59 59 61 62 63 55 56 54 55 55 55 50 48 49 49 49 52 55 51 45 42 36 35 33 31 32 32 29 30 32 32
108 106 96 78 86 88 91 77 77 81 77 69 65 62 66 66 67 68 67 67 65 64 60 59 58 55 56 56 55 52 50 47 51 53 54 56 53 45 45 38 37 34 29 31 30 33 30 30 31
112 102 95 89 94 89 95 76 84 86 83 76 68 64 68 61 61 63 64 64 65 62 57 63 58 56 57 55 54 53 55 52 52 56 57 57 51 44 45 38 37 37 33 34 30 30 31 31 35
90 96 96 88 88 89 93 82 88 90 87 81 74 69 71 69 61 59 56 54 55 53 56 56 57 55 58 59 57 57 56 55 53 54 55 53 49 44 42 39 38 37 36 33 30 29 27 26 21
97 102 99 95 91 95 96 85 90 92 87 80 77 72 71 74 69 66 64 61 55 53 56 59 58 58 60 62 60 58 57 57 57 50 51 51 48 46 42 41 40 37 35 34 30 27 29 25 25
102 107 106 101 96 105 99 95 89 92 82 81 81 77 75 74 72 71 73 69 62 58 58 60 61 61 63 63 65 60 57 57 54 54 53 53 48 46 41 42 42 37 34 34 30 28 28 31 25
101 106 102 97 97 105 97 96 93 91 88 81 81 79 80 76 71 76 77 71 67 69 69 66 64 65 64 64 67 60 58 58 58 57 57 53 51 48 41 40 44 37 32 33 29 28 29 34 23
93 96 97 99 101 99 96 95 94 90 91 90 84 84 82 81 78 79 78 69 68 72 73 68 70 70 69 68 65 61 61 61 59 61 56 56 50 49 43 40 44 36 31 33 29 29 28 28 23
79 92 96 100 97 89 91 89 83 91 92 91 84 89 87 84 85 84 79 71 68 70 73 70 71 70 68 66 64 62 64 63 61 58 57 55 52 50 43 40 42 37 32 34 30 32 30 33 30
76 86 88 86 86 87 79 85 78 87 86 87 92 86 92 89 85 84 80 70 69 71 70 69 71 68 66 66 63 61 62 60 59 59 60 60 52 50 45 41 41 39 34 35 34 32 31 42 39
68 70 73 75 77 75 80 83 73 82 85 85 86 82 75 84 83 80 79 67 70 70 67 64 64 65 68 67 62 58 59 61 58 57 56 57 50 50 48 41 41 39 34 35 35 36 39 44 49
53 60 61 66 66 67 73 66 64 75 81 82 89 93 87 85 83 83 80 71 66 62 65 63 67 69 70 62 61 57 56 57 54 53 54 53 50 52 49 42 39 37 32 33 34 34 33 41 51
53 53 60 62 61 61 60 56 57 66 77 83 85 87 76 82 80 77 72 70 63 65 62 60 64 64 63 61 55 57 55 57 55 54 50 50 49 51 47 44 38 36 30 30 30 31 34 40 38
48 57 61 58 57 56 56 54 54 55 66 69 73 83 84 84 77 74 70 63 55 60 63 64 62 61 61 56 57 60 55 54 55 54 48 50 49 50 44 44 40 37 34 34 35 34 32 34 39
49 52 57 58 59 55 56 57 48 49 53 57 71 73 78 73 65 63 66 69 70 70 65 67 58 58 56 51 59 60 58 60 57 52 46 48 49 49 44 43 41 38 33 33 34 31 32 31 35
50 55 61 61 57 55 56 50 47 47 50 56 62 64 69 70 76 77 72 73 74 76 72 68 54 64 69 53 56 58 63 62 54 48 45 43 49 53 45 44 42 39 32 32 32 29 29 29 31

GFSSGP_250_spd_117.txt.gz
Wind_Speed
74 75 73 74 75 73 71 74 78 84 81 76 72 76 80 79 75 71 72 68 63 60 55 53 49 47 45 44 41 39 39 39 39 40 41 40 39 41 44 47 49 53 51 53 56 57 57 58 58
70 73 74 72 70 66 65 74 79 83 77 71 73 75 79 77 73 67 67 65 54 50 49 46 44 39 38 34 31 31 31 33 36 35 36 35 34 35 35 39 42 43 46 47 46 45 48 49 51
66 70 73 70 63 62 61 72 78 77 74 64 65 76 75 72 68 57 59 51 45 43 43 42 38 35 29 28 26 27 29 32 34 36 38 37 34 35 37 37 37 38 36 37 38 39 41 41 40
58 56 59 59 56 51 53 65 71 67 65 57 53 66 67 65 49 43 51 40 41 38 38 37 36 33 28 27 27 27 29 33 35 38 39 39 38 35 36 37 37 37 33 31 31 32 30 31 31
48 46 44 43 44 43 49 60 62 59 52 44 48 58 59 54 38 35 41 36 38 36 36 35 34 31 30 30 29 31 33 36 37 41 41 42 40 39 37 37 38 34 30 28 27 29 29 32 30
47 45 37 36 40 42 46 53 59 52 43 40 45 56 52 44 32 34 39 35 39 34 35 33 34 33 33 33 34 36 36 37 39 40 44 42 41 40 36 38 41 35 31 26 26 26 28 27 22
48 49 40 35 35 38 46 55 55 47 44 39 43 52 51 37 34 32 35 37 40 32 33 36 35 34 36 37 37 38 38 39 40 41 45 43 44 39 40 39 40 33 32 31 31 30 26 26 27
55 52 44 40 41 39 51 57 53 50 44 45 45 43 51 36 35 35 40 42 42 35 33 36 37 36 37 40 40 41 40 41 43 42 46 46 42 41 38 37 38 38 32 33 35 32 29 27 27
65 58 48 48 49 48 54 59 54 50 49 46 50 42 44 38 36 41 47 41 45 40 34 35 39 39 39 42 43 44 42 42 44 44 45 45 40 40 37 36 36 38 36 36 38 39 37 32 32
72 66 59 61 59 55 58 59 63 53 45 47 53 49 39 49 43 42 47 45 47 45 35 38 40 41 41 44 46 45 48 46 46 44 46 43 41 41 38 33 36 38 38 35 37 38 38 34 33
83 70 75 68 68 65 62 59 64 62 48 46 54 49 47 47 53 45 46 51 54 47 42 44 45 41 42 44 47 48 51 53 49 44 45 46 43 42 40 37 37 40 40 37 36 36 35 35 32
86 78 82 74 74 71 65 65 65 65 56 51 55 57 47 49 53 54 54 55 56 54 45 48 47 42 45 47 45 47 51 52 49 45 44 48 44 45 44 44 40 40 39 37 35 36 38 38 34
89 88 89 85 83 75 77 72 74 67 66 64 57 61 53 51 51 59 62 61 54 58 54 55 48 49 49 49 50 49 52 47 46 48 46 52 47 47 47 48 45 40 41 37 35 35 37 36 34
93 93 93 95 85 83 86 78 81 67 75 70 65 63 61 57 54 55 66 61 56 57 60 57 48 49 46 46 51 54 54 47 48 49 51 52 48 47 47 49 48 45 40 38 32 33 33 35 33
105 106 99 92 83 90 96 94 78 77 82 77 72 67 66 63 59 50 59 62 63 58 61 56 52 53 53 54 55 54 56 48 45 49 52 50 48 50 50 45 45 43 38 37 31 33 31 36 32
118 120 108 90 93 98 103 95 80 87 86 82 80 77 71 67 64 62 53 58 59 58 56 50 51 57 59 59 57 55 53 46 46 52 54 55 50 49 49 41 43 40 40 35 33 30 30 34 34
123 119 110 102 105 106 109 98 91 92 90 88 85 84 76 71 70 67 62 55 55 59 64 60 55 56 57 56 53 52 46 48 49 52 53 56 51 48 50 42 42 42 40 38 34 30 30 35 34
117 119 117 112 101 108 109 100 96 93 92 88 87 82 79 73 69 72 69 59 59 56 57 52 51 52 51 54 53 51 47 47 52 53 56 57 54 50 50 48 44 42 41 39 36 31 31 34 33
117 118 116 110 105 111 111 104 93 92 93 90 87 85 82 75 75 75 73 71 63 61 57 49 43 48 50 57 56 48 49 52 53 52 57 59 56 53 53 53 45 44 44 40 36 33 32 34 31
108 107 106 102 105 112 110 108 97 98 93 90 87 86 82 79 79 78 76 73 72 66 61 56 55 51 50 53 55 53 53 54 60 57 57 57 56 57 54 55 49 44 43 41 37 32 31 34 31
99 99 95 92 97 108 107 102 95 91 92 86 85 82 80 79 80 80 78 74 77 71 62 59 61 60 54 56 59 57 54 55 60 59 56 54 53 58 56 57 51 43 41 41 37 31 31 32 31
79 82 88 94 95 102 102 98 93 91 92 85 82 79 78 80 77 78 79 77 72 72 63 59 58 57 56 57 55 55 56 60 62 59 57 54 56 57 56 55 52 47 41 42 38 31 31 29 29
64 72 79 86 96 94 95 97 90 88 87 83 78 78 78 79 80 81 81 75 74 72 65 62 62 57 58 57 56 54 58 65 64 58 57 55 54 55 54 56 56 46 42 43 41 33 33 32 28
59 68 76 78 84 84 89 87 83 82 79 81 82 82 85 86 87 86 87 80 75 72 67 63 63 58 59 59 57 60 60 60 60 59 59 55 54 56 53 53 55 48 40 43 42 34 35 33 30
52 60 63 71 69 72 75 74 71 79 81 81 81 82 85 88 89 89 90 83 72 69 66 67 65 66 64 60 60 59 55 57 58 61 57 55 56 55 52 51 54 48 43 44 43 34 35 33 32
44 41 48 47 52 59 68 62 67 78 80 79 80 84 82 83 87 91 87 76 71 74 72 69 70 70 63 66 62 60 57 60 61 60 53 54 53 54 52 55 55 47 42 45 44 35 35 34 32
31 33 35 37 44 53 57 59 66 70 75 74 71 72 77 79 79 81 80 76 79 77 68 72 68 65 69 70 60 57 57 56 59 54 52 52 53 55 51 55 58 44 40 44 42 35 34 32 30
33 44 44 46 46 48 50 53 57 65 62 68 69 73 78 77 75 75 75 74 72 68 70 66 63 62 67 67 59 56 53 54 54 53 51 52 52 52 53 56 58 44 39 44 41 37 35 34 36
30 28 34 41 44 40 42 44 53 52 50 51 53 60 66 68 66 67 70 77 78 68 66 67 64 63 60 57 51 52 55 56 49 49 48 51 54 55 57 58 54 45 41 42 39 37 36 35 37
31 34 39 36 35 39 36 44 45 44 44 45 44 47 54 55 59 64 72 75 77 69 68 67 66 67 67 63 58 54 53 57 50 51 50 50 53 56 57 53 51 43 41 42 40 36 35 37 37

GFSSGP_250_spd_120.txt.gz
Wind_Speed
74 73 73 74 75 71 69 79 82 86 82 80 79 78 77 78 75 74 72 73 74 69 66 62 58 55 51 48 47 44 43 40 37 38 38 36 34 33 35 38 42 45 46 46 48 50 50 52 54
72 73 73 72 70 68 69 81 84 84 80 82 82 82 79 79 79 76 74 70 72 68 63 56 49 46 44 42 39 38 33 33 31 31 28 30 30 31 31 33 35 36 37 40 39 40 43 44 47
74 72 69 66 66 68 72 78 80 82 82 82 84 82 77 77 79 73 68 61 64 56 48 44 41 40 39 36 32 28 29 29 28 28 30 32 33 34 33 35 35 36 33 32 35 34 37 38 39
63 65 65 58 57 59 60 70 75 72 75 77 74 73 77 68 64 62 57 53 49 48 40 38 37 35 34 31 30 29 28 29 29 31 31 32 33 36 35 37 36 33 33 30 30 31 31 30 29
55 55 54 49 44 46 47 59 58 56 56 59 61 46 59 57 50 46 48 46 44 37 36 35 34 32 32 30 29 30 30 31 30 31 32 32 34 38 37 36 38 36 33 29 29 32 31 29 26
49 48 43 40 42 43 43 55 54 53 49 49 50 38 44 44 42 41 43 42 35 33 33 32 31 32 29 27 28 30 32 33 33 32 33 32 37 40 38 37 38 36 34 33 30 32 30 26 26
50 47 39 38 36 40 48 57 55 54 49 42 42 36 37 38 38 38 40 40 34 35 35 31 31 31 30 28 29 30 32 31 34 34 34 33 36 40 40 37 41 38 36 38 34 32 32 30 29
54 47 40 42 44 42 55 59 59 57 52 43 38 33 35 35 34 36 40 41 36 37 34 32 34 32 30 30 32 33 35 33 33 33 36 37 37 40 42 39 40 37 34 37 39 34 33 34 32
61 57 48 50 52 53 64 60 64 59 55 49 42 33 35 37 32 36 42 45 39 37 36 36 34 37 35 33 35 37 36 35 35 37 39 40 39 41 42 44 40 37 37 35 37 37 36 36 34
67 58 57 58 64 62 64 65 73 64 61 57 51 41 37 33 34 38 45 47 43 37 40 38 36 38 39 38 39 41 40 39 36 36 39 43 39 42 43 47 41 36 39 36 37 37 38 37 33
73 60 67 67 67 67 65 68 79 72 63 63 60 49 42 40 33 42 45 51 50 44 45 45 37 40 42 41 41 45 47 44 39 42 42 44 40 44 44 48 44 40 38 40 38 37 39 37 34
79 76 75 72 72 72 72 74 74 78 66 69 68 60 47 49 41 38 46 50 54 61 53 48 44 43 45 46 44 47 49 49 47 44 44 46 41 44 43 45 46 42 41 37 37 36 37 36 33
80 82 82 80 75 75 79 76 78 77 76 77 73 67 60 50 44 47 44 51 55 59 60 53 46 44 47 49 49 49 49 47 44 46 48 47 43 42 43 46 46 41 40 37 37 34 34 34 31
93 92 87 89 79 80 84 81 89 70 84 83 79 73 68 60 60 50 52 50 55 60 59 58 54 51 49 54 52 51 49 42 46 49 50 47 39 39 44 47 45 42 41 40 38 34 33 32 31
102 102 100 92 89 90 98 96 87 69 83 86 87 81 75 68 64 63 53 58 59 55 58 58 58 55 56 56 55 53 45 44 48 50 49 42 37 40 45 47 45 43 43 42 40 36 34 32 30
112 115 109 97 101 97 104 104 87 88 91 89 86 85 84 79 73 68 65 61 63 61 55 51 52 54 57 58 52 51 50 49 48 50 45 41 40 42 45 48 49 47 46 43 42 38 35 34 31
117 122 120 110 109 110 114 109 92 99 100 96 95 91 87 85 82 76 72 67 66 65 62 60 53 47 53 54 54 50 52 50 52 48 46 42 43 44 47 50 50 48 46 44 42 42 38 35 34
120 127 122 115 111 117 117 111 104 109 112 105 101 97 94 90 84 82 79 74 72 68 66 63 61 50 50 52 56 55 52 49 49 47 45 44 46 46 49 51 51 49 46 46 43 44 40 36 34
119 116 114 108 106 112 110 111 103 111 111 107 103 100 96 91 88 88 86 81 76 71 67 67 62 57 51 47 51 45 41 45 51 51 48 46 47 47 49 52 51 51 49 48 44 42 40 37 34
115 112 107 102 104 108 105 109 99 109 106 101 100 93 90 92 93 90 86 82 77 76 67 66 67 62 56 50 55 46 43 45 49 51 49 47 47 48 52 52 51 52 51 48 45 43 41 36 33
105 104 97 95 98 102 106 104 91 94 96 96 97 93 84 81 83 85 85 81 78 78 73 68 69 68 64 56 55 53 49 50 50 51 51 49 47 50 54 52 51 54 52 50 45 41 41 36 32
91 100 87 85 87 93 98 94 87 85 86 90 93 93 84 78 83 87 86 80 79 77 74 70 69 69 69 64 58 56 56 56 55 53 49 51 50 53 55 53 52 54 52 49 48 45 41 35 32
73 73 72 74 73 84 88 88 83 82 84 82 86 86 76 82 90 87 84 82 76 74 72 71 71 69 72 65 63 58 57 55 56 56 50 48 53 54 54 52 54 52 53 51 47 47 39 32 32
58 59 62 63 64 66 67 71 76 78 79 78 78 78 79 88 91 92 86 83 79 74 71 70 71 70 69 67 66 63 60 57 55 54 50 52 53 49 52 53 54 53 53 52 49 48 38 32 32
41 42 45 49 50 51 57 60 66 74 75 79 78 80 84 90 93 88 86 83 81 78 73 70 72 70 71 70 72 62 60 54 53 56 52 56 52 52 56 56 53 53 53 53 49 50 39 32 33
34 33 38 40 42 42 47 52 58 66 74 75 77 80 86 91 85 88 87 84 80 79 75 74 73 73 70 69 70 69 67 60 54 56 58 58 52 52 55 55 53 55 54 53 50 49 41 33 31
31 31 32 31 29 29 36 48 57 62 64 69 71 74 79 82 85 82 82 83 82 80 78 76 76 74 73 72 71 68 65 65 60 62 60 59 52 55 54 51 52 53 54 55 49 52 41 35 29
22 21 28 30 29 28 37 46 50 53 55 58 63 70 74 74 79 78 80 83 83 81 80 79 82 80 78 76 74 72 66 60 60 60 61 55 51 53 53 50 53 52 53 53 51 51 41 36 32
22 23 25 29 33 32 37 39 40 43 48 53 58 62 67 71 73 75 76 76 80 84 83 80 78 74 79 81 76 70 69 64 60 61 61 52 49 51 52 49 47 50 49 49 49 45 40 36 34
20 25 27 34 36 35 34 31 35 37 37 41 44 48 56 61 64 68 70 72 73 75 77 75 74 72 72 73 74 71 66 62 60 62 58 49 48 48 53 53 47 51 51 51 49 47 42 38 35

GFSSGP_250_spd_123.txt.gz
Wind_Speed
75 74 72 72 70 68 71 78 83 82 81 82 82 82 83 81 80 80 80 78 77 79 75 75 74 70 68 67 64 60 55 52 51 48 44 42 37 38 35 35 36 37 38 41 45 48 50 51 51
78 79 75 70 69 67 75 81 85 84 84 84 84 86 84 82 79 78 80 79 79 81 77 75 73 67 63 60 54 49 46 45 43 41 37 37 34 34 33 32 32 34 37 37 40 43 46 46 48
72 72 72 70 70 68 72 77 80 82 83 83 79 80 80 79 77 79 79 78 78 78 74 69 62 56 50 47 44 43 41 40 40 38 36 34 30 30 29 31 31 32 35 35 38 38 40 42 42
61 60 60 58 58 60 68 73 73 74 73 75 71 67 69 72 66 73 72 67 67 67 63 56 51 44 43 40 39 38 36 36 35 35 32 30 30 28 27 29 29 31 33 35 36 35 37 37 34
52 52 50 46 49 53 58 65 62 60 63 63 62 58 60 56 55 61 59 56 54 52 45 43 40 35 38 36 35 34 33 35 34 33 32 31 29 26 27 29 28 33 35 37 36 34 33 32 32
49 50 47 44 43 48 50 58 54 54 54 54 50 50 50 47 46 51 49 45 46 43 36 38 37 33 36 35 33 31 31 31 31 29 28 28 27 28 28 31 31 35 39 39 37 34 35 34 30
48 44 40 41 42 46 51 59 56 57 55 51 48 43 39 42 41 43 41 42 42 40 34 35 34 31 34 35 33 30 29 29 28 27 27 27 28 28 29 31 33 36 44 43 39 37 37 35 30
54 51 38 40 42 40 60 63 59 59 52 52 49 44 39 38 39 39 38 43 42 37 34 35 33 33 35 35 32 31 30 30 28 27 26 27 27 30 30 32 36 39 44 42 41 40 37 35 32
61 56 47 49 50 52 67 66 68 63 53 52 49 46 44 38 40 41 36 42 49 40 33 37 33 33 37 39 34 33 34 33 31 30 28 27 29 33 32 35 37 40 44 45 41 41 39 38 33
66 61 58 60 59 57 64 70 72 66 60 57 56 56 51 45 42 42 40 42 45 47 36 37 40 40 40 40 37 36 35 36 36 36 32 32 36 36 37 38 38 42 44 45 38 41 40 39 36
66 62 67 65 66 65 65 69 74 73 62 64 63 62 57 52 48 45 44 46 41 45 44 42 43 46 44 43 41 40 41 40 40 41 38 38 38 35 38 39 41 43 43 45 40 40 40 39 38
74 71 71 68 70 71 70 72 77 78 65 74 74 69 62 58 51 51 46 48 50 44 44 49 47 47 45 43 42 42 45 44 45 45 43 41 36 37 40 42 41 39 42 44 42 40 42 40 36
80 77 78 75 75 74 74 75 80 76 72 80 81 75 67 60 53 51 52 50 52 53 48 47 50 52 49 47 47 48 49 49 47 49 46 42 38 39 41 39 39 38 42 45 44 42 41 39 36
85 83 81 81 82 85 84 82 85 66 83 83 85 81 75 69 64 57 56 58 57 57 56 52 46 48 53 51 51 51 53 55 52 52 51 44 40 41 43 41 38 39 43 46 46 43 42 40 34
89 89 90 83 89 92 93 88 82 75 88 90 89 91 83 75 68 62 59 59 62 65 64 58 55 50 49 55 54 54 54 55 56 57 51 45 43 42 44 42 38 40 43 46 47 43 41 40 36
96 98 96 85 98 99 103 95 88 93 94 93 95 96 95 85 79 72 66 64 62 67 67 65 62 55 53 54 55 58 57 57 58 53 49 48 45 45 46 43 37 40 44 47 47 46 44 40 39
92 96 104 94 94 99 107 106 92 103 105 101 101 103 102 96 89 80 75 70 69 69 71 68 66 65 59 57 53 51 54 54 52 51 48 49 49 50 44 41 36 42 45 46 48 50 46 42 40
89 97 100 105 88 108 109 110 107 106 109 107 104 104 104 102 92 87 85 83 79 75 73 74 70 70 67 62 57 55 57 56 53 51 51 50 48 45 44 41 41 43 45 46 47 50 48 44 39
92 96 104 102 113 110 110 99 96 102 100 102 108 106 103 101 98 96 92 89 83 78 79 78 73 72 69 67 61 61 60 59 58 54 52 47 46 45 43 44 44 44 45 47 47 49 49 46 40
95 98 110 122 119 117 113 97 92 91 91 89 99 107 105 102 99 97 95 92 88 80 79 80 77 75 72 70 65 64 62 59 58 53 48 49 44 45 44 47 46 45 47 49 49 48 47 47 40
99 108 108 112 106 103 104 100 94 92 97 96 89 98 101 103 101 99 99 97 91 83 73 78 80 79 77 72 67 63 61 58 54 49 51 48 49 48 47 47 45 48 50 50 51 48 46 45 42
89 106 99 98 98 91 102 66 73 72 84 87 82 89 90 100 101 100 98 96 90 82 74 70 77 77 77 73 66 62 59 58 58 55 56 56 52 50 50 49 48 50 50 52 50 49 48 46 39
79 88 87 85 84 77 79 57 61 64 71 79 80 85 91 93 94 94 94 92 87 80 72 65 71 78 78 74 69 63 60 54 50 59 66 61 58 57 51 47 46 51 51 52 51 51 49 45 42
70 74 72 67 69 66 68 46 50 51 61 70 74 86 91 94 95 89 89 88 83 77 70 64 71 78 80 77 73 66 52 51 60 67 64 65 63 56 53 47 49 52 54 53 50 52 49 45 42
63 63 57 54 53 52 51 38 50 47 55 67 75 83 83 86 88 85 84 81 78 73 69 68 69 77 77 77 73 69 68 67 70 72 70 66 65 61 55 48 47 51 53 52 52 52 49 44 44
54 51 45 42 38 37 34 36 41 45 51 58 67 74 76 74 74 74 74 74 75 72 68 71 74 76 78 80 80 77 75 78 76 75 73 71 66 62 58 58 56 57 55 53 52 50 45 44 44
47 40 35 32 28 27 27 30 35 38 48 52 56 62 65 66 67 70 71 70 72 72 74 76 77 77 76 78 77 77 76 78 79 78 76 71 67 64 56 53 55 56 52 52 52 50 43 39 41
38 35 30 24 20 24 23 25 28 30 36 37 51 49 56 61 70 71 68 66 70 74 76 78 80 80 79 78 78 76 75 74 75 75 72 71 69 67 63 61 57 53 53 50 53 48 40 42 42
32 29 22 18 18 22 20 19 22 26 32 39 44 46 52 59 67 65 65 70 72 73 77 78 81 84 85 85 84 82 80 77 79 78 73 72 70 68 64 58 57 55 51 50 47 47 41 44 43
25 24 21 18 20 23 20 15 16 21 27 32 36 43 50 56 60 64 61 65 68 76 82 80 84 83 84 87 86 86 84 82 81 79 74 71 70 68 60 54 57 53 51 43 46 47 48 49 44